| time (UTC) | temp C | wind direction | speed KPH | gust KPH | rain 1hr cm | rain 24hr cm | rain mn cm | humidity % | barometer mb |
| 20260906040155 | 25 | 0 | 1.6 | 9.7 | 0.00 | 0.00 | 0.00 | 79 | 993.1 |
| 20260906040056 | 25 | 270 | 1.6 | 9.7 | 0.00 | 0.00 | 0.00 | 79 | 993.1 |
| 20260906035959 | 25 | 0 | 1.6 | 9.7 | 0.00 | 0.00 | 0.00 | 79 | 993.1 |
| 20260906035955 | 25 | 319 | 1.6 | 9.7 | 0.00 | 0.00 | 0.00 | 79 | 993.1 |
| 20260906035855 | 25 | 302 | 1.6 | 9.7 | 0.00 | 0.00 | 0.00 | 79 | 993.1 |
| 20260906035756 | 25 | 182 | 1.6 | 9.7 | 0.00 | 0.00 | 0.00 | 79 | 993.1 |
| 20260906035655 | 25 | 0 | 1.6 | 9.7 | 0.00 | 0.00 | 0.00 | 79 | 993.1 |
| 20260906035555 | 25 | 0 | 1.6 | 9.7 | 0.00 | 0.00 | 0.00 | 79 | 993.1 |
| 20260906035505 | 25 | 355 | 1.6 | 9.7 | 0.00 | 0.00 | 0.00 | 79 | 993.1 |
| 20260906035502 | 25 | 11 | 1.6 | 9.7 | 0.00 | 0.00 | 0.00 | 79 | 993.1 |
| 20260906035355 | 25 | 0 | 1.6 | 9.7 | 0.00 | 0.00 | 0.00 | 79 | 993.1 |
| 20260906035255 | 25 | 0 | 1.6 | 9.7 | 0.00 | 0.00 | 0.00 | 79 | 993.1 |
| 20260906035221 | 25 | 0 | 1.6 | 9.7 | 0.00 | 0.00 | 0.00 | 79 | 993.1 |
| 20260906035156 | 25 | 353 | 1.6 | 9.7 | 0.00 | 0.00 | 0.00 | 79 | 993.1 |
| 20260906035117 | 25 | 0 | 1.6 | 6.4 | 0.00 | 0.00 | 0.00 | 79 | 993.1 |
| 20260906034955 | 25 | 345 | 1.6 | 9.7 | 0.00 | 0.00 | 0.00 | 79 | 993.1 |
| 20260906034855 | 25 | 184 | 1.6 | 9.7 | 0.00 | 0.00 | 0.00 | 79 | 993.1 |
| 20260906034756 | 25 | 330 | 1.6 | 9.7 | 0.00 | 0.00 | 0.00 | 79 | 993.1 |
| 20260906034656 | 25 | 319 | 1.6 | 9.7 | 0.00 | 0.00 | 0.00 | 79 | 993.0 |
| 20260906034556 | 25 | 0 | 1.6 | 9.7 | 0.00 | 0.00 | 0.00 | 79 | 993.0 |
| 20260906034456 | 25 | 0 | 1.6 | 9.7 | 0.00 | 0.00 | 0.00 | 79 | 993.0 |
| 20260906034355 | 25 | 0 | 1.6 | 9.7 | 0.00 | 0.00 | 0.00 | 79 | 993.0 |
| 20260906034255 | 25 | 19 | 1.6 | 9.7 | 0.00 | 0.00 | 0.00 | 79 | 993.0 |
| 20260906034156 | 25 | 208 | 1.6 | 9.7 | 0.00 | 0.00 | 0.00 | 79 | 993.0 |
| 20260906034056 | 25 | 330 | 1.6 | 9.7 | 0.00 | 0.00 | 0.00 | 80 | 993.0 |
| 20260906034000 | 25 | 233 | 1.6 | 9.7 | 0.00 | 0.00 | 0.00 | 80 | 993.0 |
| 20260906033956 | 25 | 338 | 1.6 | 9.7 | 0.00 | 0.00 | 0.00 | 80 | 993.0 |
| 20260906033855 | 25 | 194 | 1.6 | 4.8 | 0.00 | 0.00 | 0.00 | 80 | 993.0 |
| 20260906033756 | 25 | 0 | 0.0 | 4.8 | 0.00 | 0.00 | 0.00 | 80 | 993.0 |
| 20260906033655 | 25 | 188 | 1.6 | 4.8 | 0.00 | 0.00 | 0.00 | 80 | 992.9 |
| 20260906033556 | 25 | 0 | 1.6 | 8.0 | 0.00 | 0.00 | 0.00 | 80 | 992.9 |
| 20260906033459 | 25 | 0 | 1.6 | 8.0 | 0.00 | 0.00 | 0.00 | 80 | 992.9 |
| 20260906033455 | 25 | 340 | 1.6 | 8.0 | 0.00 | 0.00 | 0.00 | 80 | 992.9 |
| 20260906033356 | 25 | 0 | 0.0 | 8.0 | 0.00 | 0.00 | 0.00 | 80 | 992.9 |
| 20260906033255 | 25 | 0 | 1.6 | 8.0 | 0.00 | 0.00 | 0.00 | 80 | 992.9 |
| 20260906033156 | 25 | 332 | 1.6 | 8.0 | 0.00 | 0.00 | 0.00 | 80 | 992.9 |
| 20260906033055 | 25 | 326 | 1.6 | 8.0 | 0.00 | 0.00 | 0.00 | 80 | 992.8 |
| 20260906032956 | 25 | 0 | 0.0 | 8.0 | 0.00 | 0.00 | 0.00 | 80 | 992.8 |
| 20260906032856 | 25 | 0 | 1.6 | 8.0 | 0.00 | 0.00 | 0.00 | 80 | 992.8 |
| 20260906032756 | 25 | 0 | 1.6 | 8.0 | 0.00 | 0.00 | 0.00 | 80 | 992.7 |
| 20260906032732 | 25 | 0 | 1.6 | 6.4 | 0.00 | 0.00 | 0.00 | 80 | 992.7 |
| 20260906032655 | 25 | 353 | 1.6 | 8.0 | 0.00 | 0.00 | 0.00 | 80 | 992.7 |
| 20260906032621 | 25 | 0 | 1.6 | 6.4 | 0.00 | 0.00 | 0.00 | 80 | 992.7 |
| 20260906032453 | 25 | 0 | 1.6 | 6.4 | 0.00 | 0.00 | 0.00 | 80 | 992.7 |
| 20260906032352 | 25 | 0 | 1.6 | 6.4 | 0.00 | 0.00 | 0.00 | 79 | 992.7 |
| 20260906032250 | 25 | 307 | 1.6 | 6.4 | 0.00 | 0.00 | 0.00 | 79 | 992.7 |
| 20260906032150 | 25 | 211 | 1.6 | 6.4 | 0.00 | 0.00 | 0.00 | 79 | 992.7 |
| 20260906032102 | 25 | 350 | 1.6 | 6.4 | 0.00 | 0.00 | 0.00 | 79 | 992.7 |
| 20260906031957 | 25 | 0 | 1.6 | 6.4 | 0.00 | 0.00 | 0.00 | 79 | 992.7 |
| 20260906031950 | 25 | 339 | 1.6 | 6.4 | 0.00 | 0.00 | 0.00 | 79 | 992.7 |
| 20260906031847 | 25 | 0 | 1.6 | 6.4 | 0.00 | 0.00 | 0.00 | 79 | 992.7 |
| 20260906031748 | 25 | 279 | 1.6 | 6.4 | 0.00 | 0.00 | 0.00 | 79 | 992.7 |
| 20260906031646 | 25 | 353 | 1.6 | 6.4 | 0.00 | 0.00 | 0.00 | 79 | 992.7 |
| 20260906031545 | 25 | 358 | 1.6 | 6.4 | 0.00 | 0.00 | 0.00 | 79 | 992.7 |
| 20260906031457 | 25 | 0 | 0.0 | 4.8 | 0.00 | 0.00 | 0.00 | 79 | 992.7 |
| 20260906031445 | 25 | 0 | 1.6 | 4.8 | 0.00 | 0.00 | 0.00 | 79 | 992.7 |
| 20260906031345 | 25 | 339 | 0.0 | 4.8 | 0.00 | 0.00 | 0.00 | 79 | 992.7 |
| 20260906031245 | 25 | 290 | 0.0 | 6.4 | 0.00 | 0.00 | 0.00 | 79 | 992.7 |
| 20260906031145 | 25 | 0 | 1.6 | 6.4 | 0.00 | 0.00 | 0.00 | 79 | 992.7 |
| 20260906031041 | 25 | 353 | 1.6 | 6.4 | 0.00 | 0.00 | 0.00 | 79 | 992.7 |
| 20260906030955 | 25 | 342 | 1.6 | 6.4 | 0.00 | 0.00 | 0.00 | 79 | 992.7 |
| 20260906030941 | 25 | 0 | 1.6 | 6.4 | 0.00 | 0.00 | 0.00 | 79 | 992.6 |
| 20260906030841 | 25 | 347 | 1.6 | 6.4 | 0.00 | 0.00 | 0.00 | 79 | 992.6 |
| 20260906030741 | 25 | 0 | 1.6 | 6.4 | 0.00 | 0.00 | 0.00 | 79 | 992.6 |
| 20260906030638 | 25 | 4 | 1.6 | 6.4 | 0.00 | 0.00 | 0.00 | 79 | 992.6 |
| 20260906030535 | 25 | 322 | 1.6 | 6.4 | 0.00 | 0.00 | 0.00 | 79 | 992.6 |
| 20260906030455 | 25 | 331 | 1.6 | 6.4 | 0.00 | 0.00 | 0.00 | 79 | 992.6 |
| 20260906030435 | 25 | 0 | 1.6 | 6.4 | 0.00 | 0.00 | 0.00 | 79 | 992.6 |
| 20260906030332 | 25 | 318 | 1.6 | 6.4 | 0.00 | 0.00 | 0.00 | 79 | 992.6 |
| 20260906030232 | 25 | 0 | 1.6 | 8.0 | 0.00 | 0.00 | 0.00 | 78 | 992.6 |
| 20260906030216 | 25 | 328 | 1.6 | 8.0 | 0.00 | 0.00 | 0.00 | 78 | 992.6 |
| 20260906030133 | 25 | 6 | 1.6 | 8.0 | 0.00 | 0.00 | 0.00 | 78 | 992.6 |
| 20260906030118 | 25 | 0 | 1.6 | 8.0 | 0.00 | 0.00 | 0.00 | 78 | 992.6 |
| 20260906025932 | 25 | 343 | 1.6 | 8.0 | 0.00 | 0.00 | 0.00 | 78 | 992.5 |
| 20260906025832 | 25 | 0 | 1.6 | 8.0 | 0.00 | 0.00 | 0.00 | 78 | 992.5 |
| 20260906025732 | 25 | 347 | 1.6 | 8.0 | 0.00 | 0.00 | 0.00 | 78 | 992.5 |
| 20260906025632 | 26 | 315 | 1.6 | 8.0 | 0.00 | 0.00 | 0.00 | 78 | 992.6 |
| 20260906025533 | 26 | 0 | 1.6 | 8.0 | 0.00 | 0.00 | 0.00 | 78 | 992.6 |
| 20260906025454 | 26 | 0 | 1.6 | 8.0 | 0.00 | 0.00 | 0.00 | 78 | 992.6 |
| 20260906025442 | 26 | 8 | 1.6 | 8.0 | 0.00 | 0.00 | 0.00 | 78 | 992.6 |
| 20260906025332 | 26 | 0 | 1.6 | 8.0 | 0.00 | 0.00 | 0.00 | 78 | 992.6 |
| 20260906025233 | 26 | 342 | 1.6 | 8.0 | 0.00 | 0.00 | 0.00 | 78 | 992.6 |
| 20260906025133 | 26 | 9 | 1.6 | 6.4 | 0.00 | 0.00 | 0.00 | 78 | 992.6 |
| 20260906025032 | 26 | 0 | 1.6 | 6.4 | 0.00 | 0.00 | 0.00 | 78 | 992.6 |
| 20260906024933 | 26 | 0 | 1.6 | 6.4 | 0.00 | 0.00 | 0.00 | 78 | 992.6 |
| 20260906024842 | 26 | 0 | 1.6 | 6.4 | 0.00 | 0.00 | 0.00 | 78 | 992.7 |
| 20260906024732 | 26 | 354 | 1.6 | 6.4 | 0.00 | 0.00 | 0.00 | 78 | 992.7 |
| 20260906024632 | 26 | 349 | 1.6 | 6.4 | 0.00 | 0.00 | 0.00 | 78 | 992.7 |
| 20260906024534 | 26 | 15 | 1.6 | 6.4 | 0.00 | 0.00 | 0.00 | 78 | 992.7 |
| 20260906024455 | 26 | 4 | 1.6 | 6.4 | 0.00 | 0.00 | 0.00 | 78 | 992.7 |
| 20260906024432 | 26 | 0 | 1.6 | 6.4 | 0.00 | 0.00 | 0.00 | 77 | 992.7 |
| 20260906024332 | 26 | 0 | 1.6 | 6.4 | 0.00 | 0.00 | 0.00 | 77 | 992.7 |
| 20260906024232 | 26 | 354 | 1.6 | 4.8 | 0.00 | 0.00 | 0.00 | 77 | 992.7 |
| 20260906024132 | 26 | 0 | 1.6 | 4.8 | 0.00 | 0.00 | 0.00 | 77 | 992.7 |
| 20260906024032 | 26 | 0 | 1.6 | 4.8 | 0.00 | 0.00 | 0.00 | 77 | 992.7 |
| 20260906023955 | 26 | 0 | 1.6 | 4.8 | 0.00 | 0.00 | 0.00 | 77 | 992.7 |
| 20260906023932 | 26 | 355 | 1.6 | 4.8 | 0.00 | 0.00 | 0.00 | 77 | 992.7 |
| 20260906023832 | 26 | 347 | 1.6 | 4.8 | 0.00 | 0.00 | 0.00 | 77 | 992.6 |
| 20260906023733 | 26 | 358 | 1.6 | 4.8 | 0.00 | 0.00 | 0.00 | 77 | 992.7 |
| 20260906023633 | 26 | 333 | 1.6 | 8.0 | 0.00 | 0.00 | 0.00 | 77 | 992.6 |
| 20260906023532 | 26 | 350 | 1.6 | 8.0 | 0.00 | 0.00 | 0.00 | 77 | 992.6 |
| 20260906023455 | 26 | 322 | 1.6 | 8.0 | 0.00 | 0.00 | 0.00 | 77 | 992.6 |
| 20260906023430 | 26 | 0 | 1.6 | 8.0 | 0.00 | 0.00 | 0.00 | 77 | 992.6 |
| 20260906023330 | 26 | 353 | 1.6 | 8.0 | 0.00 | 0.00 | 0.00 | 77 | 992.6 |
| 20260906023235 | 26 | 331 | 1.6 | 8.0 | 0.00 | 0.00 | 0.00 | 77 | 992.5 |
| 20260906023229 | 26 | 0 | 1.6 | 8.0 | 0.00 | 0.00 | 0.00 | 77 | 992.6 |
| 20260906023129 | 26 | 243 | 1.6 | 8.0 | 0.00 | 0.00 | 0.00 | 77 | 992.5 |
| 20260906023111 | 26 | 0 | 1.6 | 8.0 | 0.00 | 0.00 | 0.00 | 77 | 992.5 |
| 20260906022929 | 26 | 0 | 1.6 | 8.0 | 0.00 | 0.00 | 0.00 | 77 | 992.5 |
| 20260906022829 | 26 | 0 | 1.6 | 8.0 | 0.00 | 0.00 | 0.00 | 77 | 992.5 |
| 20260906022730 | 26 | 11 | 1.6 | 8.0 | 0.00 | 0.00 | 0.00 | 77 | 992.5 |
| 20260906022630 | 26 | 357 | 1.6 | 8.0 | 0.00 | 0.00 | 0.00 | 77 | 992.5 |
| 20260906022530 | 26 | 356 | 1.6 | 6.4 | 0.00 | 0.00 | 0.00 | 77 | 992.5 |
| 20260906022455 | 26 | 0 | 1.6 | 6.4 | 0.00 | 0.00 | 0.00 | 77 | 992.5 |
| 20260906022430 | 26 | 324 | 1.6 | 6.4 | 0.00 | 0.00 | 0.00 | 77 | 992.5 |
| 20260906022329 | 26 | 334 | 1.6 | 6.4 | 0.00 | 0.00 | 0.00 | 77 | 992.5 |
| 20260906022230 | 26 | 0 | 1.6 | 6.4 | 0.00 | 0.00 | 0.00 | 77 | 992.5 |
| 20260906022217 | 26 | 0 | 1.6 | 6.4 | 0.00 | 0.00 | 0.00 | 77 | 992.5 |
| 20260906022129 | 26 | 0 | 1.6 | 6.4 | 0.00 | 0.00 | 0.00 | 77 | 992.5 |
| 20260906022111 | 26 | 306 | 1.6 | 6.4 | 0.00 | 0.00 | 0.00 | 77 | 992.5 |
| 20260906021927 | 26 | 287 | 1.6 | 6.4 | 0.00 | 0.00 | 0.00 | 76 | 992.5 |
| 20260906021827 | 26 | 330 | 1.6 | 6.4 | 0.00 | 0.00 | 0.00 | 77 | 992.5 |
| 20260906021728 | 26 | 0 | 1.6 | 6.4 | 0.00 | 0.00 | 0.00 | 76 | 992.5 |
| 20260906021624 | 26 | 339 | 1.6 | 6.4 | 0.00 | 0.00 | 0.00 | 76 | 992.5 |
| 20260906021524 | 26 | 0 | 1.6 | 6.4 | 0.00 | 0.00 | 0.00 | 76 | 992.5 |
| 20260906021455 | 26 | 338 | 1.6 | 6.4 | 0.00 | 0.00 | 0.00 | 76 | 992.5 |
| 20260906021423 | 26 | 348 | 0.0 | 4.8 | 0.00 | 0.00 | 0.00 | 76 | 992.4 |
| 20260906021322 | 26 | 327 | 1.6 | 4.8 | 0.00 | 0.00 | 0.00 | 76 | 992.5 |
| 20260906021221 | 26 | 0 | 0.0 | 4.8 | 0.00 | 0.00 | 0.00 | 76 | 992.5 |
| 20260906021130 | 26 | 274 | 1.6 | 4.8 | 0.00 | 0.00 | 0.00 | 76 | 992.4 |
| 20260906021017 | 26 | 0 | 0.0 | 4.8 | 0.00 | 0.00 | 0.00 | 76 | 992.4 |
| 20260906020955 | 26 | 0 | 0.0 | 4.8 | 0.00 | 0.00 | 0.00 | 76 | 992.4 |
| 20260906020931 | 26 | 0 | 1.6 | 4.8 | 0.00 | 0.00 | 0.00 | 76 | 992.4 |
| 20260906020817 | 26 | 355 | 1.6 | 4.8 | 0.00 | 0.00 | 0.00 | 76 | 992.4 |
| 20260906020717 | 26 | 321 | 1.6 | 4.8 | 0.00 | 0.00 | 0.00 | 76 | 992.4 |
| 20260906020616 | 26 | 188 | 1.6 | 4.8 | 0.00 | 0.00 | 0.00 | 76 | 992.5 |
| 20260906020516 | 26 | 0 | 1.6 | 4.8 | 0.00 | 0.00 | 0.00 | 76 | 992.4 |
| 20260906020455 | 26 | 0 | 1.6 | 4.8 | 0.00 | 0.00 | 0.00 | 76 | 992.4 |
| 20260906020420 | 26 | 0 | 1.6 | 4.8 | 0.00 | 0.00 | 0.00 | 76 | 992.4 |
| 20260906020312 | 26 | 0 | 1.6 | 4.8 | 0.00 | 0.00 | 0.00 | 76 | 992.4 |
| 20260906020212 | 26 | 340 | 1.6 | 4.8 | 0.00 | 0.00 | 0.00 | 76 | 992.4 |
| 20260906020113 | 26 | 337 | 1.6 | 4.8 | 0.00 | 0.00 | 0.00 | 76 | 992.4 |
| 20260906020012 | 26 | 0 | 1.6 | 4.8 | 0.00 | 0.00 | 0.00 | 76 | 992.4 |
| 20260906015952 | 26 | 220 | 1.6 | 4.8 | 0.00 | 0.00 | 0.00 | 76 | 992.4 |
| 20260906015912 | 26 | 38 | 1.6 | 4.8 | 0.00 | 0.00 | 0.00 | 76 | 992.4 |
| 20260906015812 | 26 | 0 | 1.6 | 4.8 | 0.00 | 0.00 | 0.00 | 76 | 992.4 |
| 20260906015712 | 26 | 11 | 1.6 | 6.4 | 0.00 | 0.00 | 0.00 | 76 | 992.4 |
| 20260906015612 | 26 | 355 | 1.6 | 8.0 | 0.00 | 0.00 | 0.00 | 76 | 992.4 |
| 20260906015512 | 26 | 0 | 1.6 | 8.0 | 0.00 | 0.00 | 0.00 | 76 | 992.4 |
| 20260906015452 | 26 | 0 | 1.6 | 8.0 | 0.00 | 0.00 | 0.00 | 76 | 992.4 |
| 20260906015412 | 26 | 0 | 1.6 | 8.0 | 0.00 | 0.00 | 0.00 | 76 | 992.4 |
| 20260906015312 | 26 | 280 | 1.6 | 8.0 | 0.00 | 0.00 | 0.00 | 76 | 992.4 |
| 20260906015212 | 27 | 0 | 1.6 | 8.0 | 0.00 | 0.00 | 0.00 | 76 | 992.4 |
| 20260906015113 | 27 | 352 | 1.6 | 8.0 | 0.00 | 0.00 | 0.00 | 76 | 992.4 |
| 20260906015012 | 27 | 317 | 1.6 | 8.0 | 0.00 | 0.00 | 0.00 | 76 | 992.4 |
| 20260906014953 | 27 | 262 | 1.6 | 8.0 | 0.00 | 0.00 | 0.00 | 76 | 992.4 |
| 20260906014913 | 27 | 0 | 1.6 | 8.0 | 0.00 | 0.00 | 0.00 | 76 | 992.3 |
| 20260906014812 | 27 | 338 | 1.6 | 8.0 | 0.00 | 0.00 | 0.00 | 76 | 992.3 |
| 20260906014712 | 27 | 304 | 1.6 | 8.0 | 0.00 | 0.00 | 0.00 | 76 | 992.3 |
| 20260906014613 | 27 | 215 | 0.0 | 8.0 | 0.00 | 0.00 | 0.00 | 76 | 992.3 |
| 20260906014513 | 27 | 328 | 1.6 | 6.4 | 0.00 | 0.00 | 0.00 | 76 | 992.3 |
| 20260906014453 | 27 | 348 | 1.6 | 6.4 | 0.00 | 0.00 | 0.00 | 76 | 992.3 |
| 20260906014412 | 27 | 0 | 1.6 | 6.4 | 0.00 | 0.00 | 0.00 | 76 | 992.2 |
| 20260906014312 | 27 | 288 | 1.6 | 6.4 | 0.00 | 0.00 | 0.00 | 76 | 992.2 |
| 20260906014221 | 27 | 358 | 1.6 | 6.4 | 0.00 | 0.00 | 0.00 | 76 | 992.1 |
| 20260906014212 | 27 | 0 | 1.6 | 6.4 | 0.00 | 0.00 | 0.00 | 76 | 992.2 |
| 20260906014122 | 27 | 0 | 1.6 | 6.4 | 0.00 | 0.00 | 0.00 | 76 | 992.2 |
| 20260906014106 | 27 | 359 | 1.6 | 6.4 | 0.00 | 0.00 | 0.00 | 76 | 992.1 |
| 20260906013913 | 27 | 0 | 1.6 | 6.4 | 0.00 | 0.00 | 0.00 | 76 | 992.1 |
| 20260906013812 | 27 | 0 | 1.6 | 9.7 | 0.00 | 0.00 | 0.00 | 76 | 992.1 |
| 20260906013712 | 27 | 356 | 1.6 | 9.7 | 0.00 | 0.00 | 0.00 | 76 | 992.1 |
| 20260906013612 | 27 | 341 | 1.6 | 9.7 | 0.00 | 0.00 | 0.00 | 76 | 992.1 |
| 20260906013512 | 27 | 0 | 1.6 | 9.7 | 0.00 | 0.00 | 0.00 | 76 | 992.1 |
| 20260906013454 | 27 | 340 | 1.6 | 9.7 | 0.00 | 0.00 | 0.00 | 76 | 992.1 |
| 20260906013413 | 27 | 10 | 1.6 | 9.7 | 0.00 | 0.00 | 0.00 | 76 | 992.0 |
| 20260906013312 | 27 | 344 | 1.6 | 9.7 | 0.00 | 0.00 | 0.00 | 76 | 992.0 |
| 20260906013210 | 27 | 347 | 1.6 | 9.7 | 0.00 | 0.00 | 0.00 | 76 | 992.0 |
| 20260906013109 | 27 | 0 | 1.6 | 9.7 | 0.00 | 0.00 | 0.00 | 76 | 992.0 |
| 20260906013009 | 27 | 359 | 1.6 | 9.7 | 0.00 | 0.00 | 0.00 | 76 | 992.0 |
| 20260906012953 | 27 | 359 | 1.6 | 9.7 | 0.00 | 0.00 | 0.00 | 76 | 992.0 |
| 20260906012909 | 27 | 198 | 1.6 | 9.7 | 0.00 | 0.00 | 0.00 | 76 | 991.9 |
| 20260906012809 | 27 | 328 | 1.6 | 8.0 | 0.00 | 0.00 | 0.00 | 76 | 992.0 |
| 20260906012710 | 27 | 0 | 1.6 | 8.0 | 0.00 | 0.00 | 0.00 | 76 | 991.9 |
| 20260906012610 | 27 | 250 | 1.6 | 9.7 | 0.00 | 0.00 | 0.00 | 76 | 991.9 |
| 20260906012509 | 27 | 17 | 1.6 | 9.7 | 0.00 | 0.00 | 0.00 | 76 | 992.0 |
| 20260906012453 | 27 | 349 | 1.6 | 9.7 | 0.00 | 0.00 | 0.00 | 76 | 992.0 |
| 20260906012409 | 27 | 0 | 1.6 | 9.7 | 0.00 | 0.00 | 0.00 | 76 | 991.9 |
| 20260906012309 | 27 | 0 | 1.6 | 9.7 | 0.00 | 0.00 | 0.00 | 76 | 991.9 |
| 20260906012210 | 27 | 0 | 1.6 | 9.7 | 0.00 | 0.00 | 0.00 | 76 | 991.9 |
| 20260906012108 | 27 | 333 | 1.6 | 9.7 | 0.00 | 0.00 | 0.00 | 76 | 991.9 |
| 20260906012008 | 27 | 210 | 1.6 | 9.7 | 0.00 | 0.00 | 0.00 | 76 | 992.0 |
| 20260906011951 | 27 | 227 | 1.6 | 9.7 | 0.00 | 0.00 | 0.00 | 76 | 992.0 |
| 20260906011904 | 27 | 185 | 1.6 | 9.7 | 0.00 | 0.00 | 0.00 | 76 | 991.9 |
| 20260906011804 | 27 | 3 | 1.6 | 9.7 | 0.00 | 0.00 | 0.00 | 76 | 991.9 |
| 20260906011704 | 27 | 353 | 1.6 | 9.7 | 0.00 | 0.00 | 0.00 | 76 | 991.9 |
| 20260906011604 | 27 | 282 | 1.6 | 8.0 | 0.00 | 0.00 | 0.00 | 75 | 991.9 |
| 20260906011503 | 27 | 267 | 1.6 | 8.0 | 0.00 | 0.00 | 0.00 | 75 | 991.9 |
| 20260906011448 | 27 | 183 | 1.6 | 8.0 | 0.00 | 0.00 | 0.00 | 75 | 991.9 |
| 20260906011401 | 27 | 179 | 1.6 | 8.0 | 0.00 | 0.00 | 0.00 | 75 | 991.9 |
| 20260906011301 | 27 | 339 | 1.6 | 8.0 | 0.00 | 0.00 | 0.00 | 75 | 991.9 |
| 20260906011200 | 27 | 0 | 3.2 | 8.0 | 0.00 | 0.00 | 0.00 | 75 | 991.9 |
| 20260906011100 | 27 | 256 | 3.2 | 12.9 | 0.00 | 0.00 | 0.00 | 75 | 991.9 |
| 20260906010948 | 27 | 0 | 3.2 | 12.9 | 0.00 | 0.00 | 0.00 | 75 | 991.9 |
| 20260906010858 | 27 | 342 | 3.2 | 12.9 | 0.00 | 0.00 | 0.00 | 75 | 991.9 |
| 20260906010758 | 28 | 337 | 3.2 | 12.9 | 0.00 | 0.00 | 0.00 | 75 | 991.8 |
| 20260906010710 | 28 | 194 | 3.2 | 12.9 | 0.00 | 0.00 | 0.00 | 75 | 991.8 |
| 20260906010559 | 28 | 316 | 3.2 | 12.9 | 0.00 | 0.00 | 0.00 | 74 | 991.7 |
| 20260906010458 | 28 | 195 | 3.2 | 12.9 | 0.00 | 0.00 | 0.00 | 74 | 991.8 |
| 20260906010444 | 28 | 220 | 3.2 | 12.9 | 0.00 | 0.00 | 0.00 | 74 | 991.8 |
| 20260906010355 | 28 | 14 | 3.2 | 12.9 | 0.00 | 0.00 | 0.00 | 74 | 991.7 |
| 20260906010255 | 28 | 2 | 3.2 | 12.9 | 0.00 | 0.00 | 0.00 | 74 | 991.7 |
| 20260906010155 | 28 | 282 | 3.2 | 12.9 | 0.00 | 0.00 | 0.00 | 74 | 991.7 |
| 20260906010108 | 28 | 195 | 3.2 | 8.0 | 0.00 | 0.00 | 0.00 | 74 | 991.7 |
| 20260906005956 | 28 | 322 | 3.2 | 8.0 | 0.00 | 0.00 | 0.00 | 74 | 991.7 |
| 20260906005945 | 28 | 303 | 3.2 | 8.0 | 0.00 | 0.00 | 0.00 | 74 | 991.7 |
| 20260906005855 | 28 | 210 | 3.2 | 8.0 | 0.00 | 0.00 | 0.00 | 74 | 991.8 |
| 20260906005755 | 28 | 0 | 3.2 | 8.0 | 0.00 | 0.00 | 0.00 | 74 | 991.6 |
| 20260906005655 | 28 | 253 | 1.6 | 8.0 | 0.00 | 0.00 | 0.00 | 74 | 991.7 |
| 20260906005554 | 28 | 0 | 1.6 | 8.0 | 0.00 | 0.00 | 0.00 | 74 | 991.6 |
| 20260906005445 | 28 | 348 | 1.6 | 8.0 | 0.00 | 0.00 | 0.00 | 74 | 991.6 |
| 20260906005356 | 28 | 17 | 1.6 | 8.0 | 0.00 | 0.00 | 0.00 | 74 | 991.6 |
| 20260906005255 | 28 | 274 | 1.6 | 8.0 | 0.00 | 0.00 | 0.00 | 74 | 991.6 |
| 20260906005155 | 28 | 355 | 1.6 | 6.4 | 0.00 | 0.00 | 0.00 | 73 | 991.6 |
| 20260906005055 | 28 | 271 | 1.6 | 6.4 | 0.00 | 0.00 | 0.00 | 73 | 991.6 |
| 20260906004945 | 28 | 346 | 1.6 | 6.4 | 0.00 | 0.00 | 0.00 | 73 | 991.5 |
| 20260906004855 | 28 | 5 | 1.6 | 6.4 | 0.00 | 0.00 | 0.00 | 73 | 991.5 |
| 20260906004755 | 28 | 341 | 1.6 | 6.4 | 0.00 | 0.00 | 0.00 | 73 | 991.5 |
| 20260906004655 | 28 | 359 | 1.6 | 6.4 | 0.00 | 0.00 | 0.00 | 73 | 991.5 |
| 20260906004554 | 28 | 0 | 1.6 | 6.4 | 0.00 | 0.00 | 0.00 | 73 | 991.5 |
| 20260906004456 | 28 | 352 | 1.6 | 6.4 | 0.00 | 0.00 | 0.00 | 73 | 991.4 |
| 20260906004445 | 28 | 351 | 1.6 | 6.4 | 0.00 | 0.00 | 0.00 | 73 | 991.4 |
| 20260906004355 | 29 | 339 | 1.6 | 6.4 | 0.00 | 0.00 | 0.00 | 72 | 991.4 |
| 20260906004255 | 29 | 320 | 1.6 | 6.4 | 0.00 | 0.00 | 0.00 | 72 | 991.4 |
| 20260906004156 | 29 | 0 | 1.6 | 8.0 | 0.00 | 0.00 | 0.00 | 72 | 991.4 |
| 20260906004055 | 29 | 275 | 1.6 | 8.0 | 0.00 | 0.00 | 0.00 | 72 | 991.4 |
| 20260906003945 | 29 | 0 | 1.6 | 8.0 | 0.00 | 0.00 | 0.00 | 72 | 991.4 |
| 20260906003855 | 29 | 0 | 1.6 | 8.0 | 0.00 | 0.00 | 0.00 | 72 | 991.4 |
| 20260906003756 | 29 | 187 | 1.6 | 8.0 | 0.00 | 0.00 | 0.00 | 71 | 991.3 |
| 20260906003655 | 29 | 309 | 1.6 | 8.0 | 0.00 | 0.00 | 0.00 | 71 | 991.3 |
| 20260906003555 | 29 | 2 | 1.6 | 8.0 | 0.00 | 0.00 | 0.00 | 71 | 991.3 |
| 20260906003444 | 29 | 256 | 1.6 | 8.0 | 0.00 | 0.00 | 0.00 | 71 | 991.3 |
| 20260906003355 | 29 | 11 | 1.6 | 8.0 | 0.00 | 0.00 | 0.00 | 71 | 991.3 |
| 20260906003255 | 29 | 341 | 1.6 | 8.0 | 0.00 | 0.00 | 0.00 | 71 | 991.2 |
| 20260906003153 | 29 | 328 | 1.6 | 6.4 | 0.00 | 0.00 | 0.00 | 70 | 991.2 |
| 20260906003052 | 29 | 0 | 1.6 | 8.0 | 0.00 | 0.00 | 0.00 | 70 | 991.2 |
| 20260906002953 | 29 | 0 | 1.6 | 8.0 | 0.00 | 0.00 | 0.00 | 70 | 991.2 |
| 20260906002854 | 29 | 341 | 1.6 | 8.0 | 0.00 | 0.00 | 0.00 | 70 | 991.2 |
| 20260906002753 | 29 | 2 | 1.6 | 8.0 | 0.00 | 0.00 | 0.00 | 70 | 991.2 |
| 20260906002653 | 29 | 205 | 1.6 | 8.0 | 0.00 | 0.00 | 0.00 | 70 | 991.2 |
| 20260906002553 | 29 | 341 | 1.6 | 8.0 | 0.00 | 0.00 | 0.00 | 70 | 991.2 |
| 20260906002453 | 29 | 0 | 3.2 | 8.0 | 0.00 | 0.00 | 0.00 | 70 | 991.2 |
| 20260906002352 | 29 | 325 | 3.2 | 8.0 | 0.00 | 0.00 | 0.00 | 70 | 991.2 |
| 20260906002253 | 29 | 356 | 3.2 | 8.0 | 0.00 | 0.00 | 0.00 | 70 | 991.1 |
| 20260906002150 | 29 | 348 | 3.2 | 8.0 | 0.00 | 0.00 | 0.00 | 70 | 991.1 |
| 20260906002051 | 29 | 354 | 3.2 | 8.0 | 0.00 | 0.00 | 0.00 | 70 | 991.2 |
| 20260906001950 | 29 | 352 | 3.2 | 8.0 | 0.00 | 0.00 | 0.00 | 70 | 991.2 |
| 20260906001931 | 30 | 352 | 3.2 | 8.0 | 0.00 | 0.00 | 0.00 | 70 | 991.2 |
| 20260906001851 | 29 | 350 | 3.2 | 8.0 | 0.00 | 0.00 | 0.00 | 70 | 991.2 |
| 20260906001827 | 30 | 0 | 3.2 | 8.0 | 0.00 | 0.00 | 0.00 | 70 | 991.2 |
| 20260906001651 | 30 | 291 | 3.2 | 8.0 | 0.00 | 0.00 | 0.00 | 70 | 991.2 |
| 20260906001611 | 30 | 341 | 3.2 | 8.0 | 0.00 | 0.00 | 0.00 | 70 | 991.3 |
| 20260906001555 | 30 | 352 | 3.2 | 8.0 | 0.00 | 0.00 | 0.00 | 70 | 991.2 |
| 20260906001351 | 30 | 321 | 3.2 | 8.0 | 0.00 | 0.00 | 0.00 | 70 | 991.3 |
| 20260906001251 | 30 | 289 | 3.2 | 8.0 | 0.00 | 0.00 | 0.00 | 70 | 991.3 |
| 20260906001222 | 30 | 322 | 3.2 | 8.0 | 0.00 | 0.00 | 0.00 | 70 | 991.3 |
| 20260906001150 | 30 | 347 | 3.2 | 6.4 | 0.00 | 0.00 | 0.00 | 70 | 991.3 |
| 20260906001108 | 30 | 245 | 3.2 | 8.0 | 0.00 | 0.00 | 0.00 | 70 | 991.3 |
| 20260906000948 | 30 | 319 | 3.2 | 8.0 | 0.00 | 0.00 | 0.00 | 70 | 991.3 |
| 20260906000847 | 30 | 14 | 1.6 | 8.0 | 0.00 | 0.00 | 0.00 | 70 | 991.3 |
| 20260906000749 | 30 | 0 | 1.6 | 8.0 | 0.00 | 0.00 | 0.00 | 70 | 991.3 |
| 20260906000716 | 30 | 10 | 3.2 | 8.0 | 0.00 | 0.00 | 0.00 | 70 | 991.2 |
| 20260906000647 | 30 | 0 | 1.6 | 8.0 | 0.00 | 0.00 | 0.00 | 70 | 991.3 |
| 20260906000611 | 30 | 341 | 3.2 | 8.0 | 0.00 | 0.00 | 0.00 | 70 | 991.3 |
| 20260906000444 | 30 | 306 | 3.2 | 8.0 | 0.00 | 0.00 | 0.00 | 70 | 991.2 |
| 20260906000341 | 30 | 355 | 3.2 | 8.0 | 0.00 | 0.00 | 0.00 | 70 | 991.2 |
| 20260906000241 | 30 | 274 | 3.2 | 8.0 | 0.00 | 0.00 | 0.00 | 70 | 991.2 |
| 20260906000141 | 30 | 340 | 3.2 | 8.0 | 0.00 | 0.00 | 0.00 | 70 | 991.3 |
| 20260906000041 | 30 | 345 | 3.2 | 11.3 | 0.00 | 0.00 | 0.00 | 70 | 991.3 |
| 20260905235941 | 30 | 0 | 3.2 | 11.3 | 0.00 | 0.00 | 0.00 | 70 | 991.3 |
| 20260905235841 | 30 | 35 | 3.2 | 11.3 | 0.00 | 0.00 | 0.00 | 70 | 991.3 |
| 20260905235741 | 30 | 343 | 3.2 | 11.3 | 0.00 | 0.00 | 0.00 | 70 | 991.3 |
| 20260905235715 | 30 | 325 | 3.2 | 11.3 | 0.00 | 0.00 | 0.00 | 71 | 991.2 |
| 20260905235641 | 30 | 8 | 3.2 | 11.3 | 0.00 | 0.00 | 0.00 | 70 | 991.3 |
| 20260905235607 | 30 | 347 | 3.2 | 11.3 | 0.00 | 0.00 | 0.00 | 70 | 991.3 |
| 20260905235440 | 30 | 0 | 3.2 | 11.3 | 0.00 | 0.00 | 0.00 | 71 | 991.2 |
| 20260905235341 | 30 | 351 | 3.2 | 11.3 | 0.00 | 0.00 | 0.00 | 70 | 991.2 |
| 20260905235241 | 30 | 236 | 3.2 | 11.3 | 0.00 | 0.00 | 0.00 | 70 | 991.2 |
| 20260905235212 | 30 | 337 | 1.6 | 8.0 | 0.00 | 0.00 | 0.00 | 70 | 991.2 |
| 20260905235141 | 30 | 3 | 3.2 | 11.3 | 0.00 | 0.00 | 0.00 | 70 | 991.2 |
| 20260905235107 | 30 | 341 | 1.6 | 11.3 | 0.00 | 0.00 | 0.00 | 70 | 991.2 |
| 20260905234941 | 30 | 350 | 1.6 | 8.0 | 0.00 | 0.00 | 0.00 | 70 | 991.2 |
| 20260905234841 | 30 | 348 | 1.6 | 8.0 | 0.00 | 0.00 | 0.00 | 70 | 991.2 |
| 20260905234742 | 30 | 320 | 1.6 | 8.0 | 0.00 | 0.00 | 0.00 | 70 | 991.1 |
| 20260905234641 | 30 | 3 | 1.6 | 8.0 | 0.00 | 0.00 | 0.00 | 70 | 991.1 |
| 20260905234541 | 30 | 229 | 1.6 | 8.0 | 0.00 | 0.00 | 0.00 | 70 | 991.1 |
| 20260905234451 | 30 | 0 | 3.2 | 8.0 | 0.00 | 0.00 | 0.00 | 70 | 991.1 |
| 20260905234441 | 30 | 245 | 3.2 | 12.9 | 0.00 | 0.00 | 0.00 | 70 | 991.1 |
| 20260905234341 | 30 | 215 | 3.2 | 12.9 | 0.00 | 0.00 | 0.00 | 70 | 991.2 |
| 20260905234243 | 30 | 21 | 3.2 | 12.9 | 0.00 | 0.00 | 0.00 | 70 | 991.1 |
| 20260905234143 | 30 | 212 | 3.2 | 12.9 | 0.00 | 0.00 | 0.00 | 70 | 991.2 |
| 20260905234042 | 30 | 347 | 3.2 | 12.9 | 0.00 | 0.00 | 0.00 | 70 | 991.1 |
| 20260905234005 | 30 | 317 | 3.2 | 12.9 | 0.00 | 0.00 | 0.00 | 70 | 991.1 |
| 20260905233954 | 30 | 313 | 3.2 | 12.9 | 0.00 | 0.00 | 0.00 | 70 | 991.1 |
| 20260905233841 | 30 | 0 | 3.2 | 12.9 | 0.00 | 0.00 | 0.00 | 70 | 991.1 |
| 20260905233741 | 31 | 7 | 3.2 | 12.9 | 0.00 | 0.00 | 0.00 | 70 | 991.1 |
| 20260905233642 | 31 | 222 | 3.2 | 12.9 | 0.00 | 0.00 | 0.00 | 70 | 991.1 |
| 20260905233541 | 31 | 7 | 3.2 | 12.9 | 0.00 | 0.00 | 0.00 | 70 | 991.1 |
| 20260905233451 | 31 | 0 | 3.2 | 12.9 | 0.00 | 0.00 | 0.00 | 70 | 991.1 |
| 20260905233440 | 31 | 193 | 3.2 | 12.9 | 0.00 | 0.00 | 0.00 | 70 | 991.1 |
| 20260905233341 | 31 | 340 | 3.2 | 9.7 | 0.00 | 0.00 | 0.00 | 70 | 991.1 |
| 20260905233241 | 31 | 287 | 3.2 | 9.7 | 0.00 | 0.00 | 0.00 | 69 | 991.1 |
| 20260905233215 | 31 | 2 | 3.2 | 14.5 | 0.00 | 0.00 | 0.00 | 69 | 991.0 |
| 20260905233141 | 31 | 23 | 3.2 | 9.7 | 0.00 | 0.00 | 0.00 | 69 | 991.1 |
| 20260905233105 | 31 | 0 | 3.2 | 9.7 | 0.00 | 0.00 | 0.00 | 69 | 991.1 |
| 20260905232942 | 31 | 304 | 3.2 | 14.5 | 0.00 | 0.00 | 0.00 | 69 | 991.0 |
| 20260905232842 | 31 | 3 | 3.2 | 14.5 | 0.00 | 0.00 | 0.00 | 70 | 991.0 |
| 20260905232741 | 31 | 358 | 3.2 | 14.5 | 0.00 | 0.00 | 0.00 | 70 | 991.0 |
| 20260905232642 | 31 | 340 | 3.2 | 14.5 | 0.00 | 0.00 | 0.00 | 69 | 991.0 |
| 20260905232539 | 31 | 313 | 3.2 | 14.5 | 0.00 | 0.00 | 0.00 | 69 | 991.0 |
| 20260905232449 | 31 | 319 | 3.2 | 14.5 | 0.00 | 0.00 | 0.00 | 69 | 991.0 |
| 20260905232441 | 31 | 330 | 3.2 | 14.5 | 0.00 | 0.00 | 0.00 | 69 | 991.0 |
| 20260905232428 | 31 | 336 | 3.2 | 14.5 | 0.00 | 0.00 | 0.00 | 69 | 990.8 |
| 20260905232339 | 31 | 333 | 3.2 | 14.5 | 0.00 | 0.00 | 0.00 | 69 | 990.9 |
| 20260905232323 | 31 | 252 | 3.2 | 14.5 | 0.00 | 0.00 | 0.00 | 69 | 990.9 |
| 20260905232137 | 31 | 293 | 4.8 | 14.5 | 0.00 | 0.00 | 0.00 | 69 | 990.9 |
| 20260905232100 | 31 | 3 | 3.2 | 14.5 | 0.00 | 0.00 | 0.00 | 69 | 990.8 |
| 20260905231935 | 31 | 326 | 3.2 | 14.5 | 0.00 | 0.00 | 0.00 | 69 | 990.8 |
| 20260905231833 | 31 | 357 | 3.2 | 9.7 | 0.00 | 0.00 | 0.00 | 69 | 990.8 |
| 20260905231733 | 31 | 0 | 3.2 | 9.7 | 0.00 | 0.00 | 0.00 | 69 | 990.7 |
| 20260905231629 | 31 | 29 | 3.2 | 9.7 | 0.00 | 0.00 | 0.00 | 68 | 990.7 |
| 20260905231530 | 32 | 340 | 3.2 | 9.7 | 0.00 | 0.00 | 0.00 | 68 | 990.7 |
| 20260905231444 | 32 | 350 | 3.2 | 9.7 | 0.00 | 0.00 | 0.00 | 68 | 990.7 |
| 20260905231430 | 32 | 351 | 3.2 | 9.7 | 0.00 | 0.00 | 0.00 | 68 | 990.7 |
| 20260905231330 | 32 | 8 | 3.2 | 9.7 | 0.00 | 0.00 | 0.00 | 68 | 990.7 |
| 20260905231230 | 32 | 349 | 3.2 | 8.0 | 0.00 | 0.00 | 0.00 | 68 | 990.6 |
| 20260905231129 | 32 | 0 | 3.2 | 8.0 | 0.00 | 0.00 | 0.00 | 68 | 990.6 |
| 20260905231028 | 32 | 354 | 3.2 | 6.4 | 0.00 | 0.00 | 0.00 | 67 | 990.6 |
| 20260905230944 | 32 | 313 | 3.2 | 6.4 | 0.00 | 0.00 | 0.00 | 67 | 990.5 |
| 20260905230927 | 32 | 336 | 3.2 | 6.4 | 0.00 | 0.00 | 0.00 | 67 | 990.5 |
| 20260905230828 | 32 | 349 | 3.2 | 6.4 | 0.00 | 0.00 | 0.00 | 67 | 990.5 |
| 20260905230728 | 32 | 334 | 1.6 | 6.4 | 0.00 | 0.00 | 0.00 | 66 | 990.5 |
| 20260905230627 | 32 | 353 | 1.6 | 6.4 | 0.00 | 0.00 | 0.00 | 67 | 990.5 |
| 20260905230527 | 32 | 349 | 1.6 | 6.4 | 0.00 | 0.00 | 0.00 | 66 | 990.5 |
| 20260905230440 | 32 | 341 | 1.6 | 6.4 | 0.00 | 0.00 | 0.00 | 66 | 990.5 |
| 20260905230427 | 32 | 32 | 1.6 | 6.4 | 0.00 | 0.00 | 0.00 | 66 | 990.5 |
| 20260905230324 | 32 | 328 | 1.6 | 6.4 | 0.00 | 0.00 | 0.00 | 66 | 990.5 |
| 20260905230227 | 32 | 318 | 1.6 | 6.4 | 0.00 | 0.00 | 0.00 | 66 | 990.5 |
| 20260905230135 | 32 | 339 | 1.6 | 6.4 | 0.00 | 0.00 | 0.00 | 66 | 990.5 |
| 20260905230024 | 32 | 0 | 1.6 | 6.4 | 0.00 | 0.00 | 0.00 | 66 | 990.5 |
| 20260905225921 | 32 | 0 | 1.6 | 6.4 | 0.00 | 0.00 | 0.00 | 66 | 990.5 |
| 20260905225821 | 32 | 321 | 1.6 | 8.0 | 0.00 | 0.00 | 0.00 | 66 | 990.5 |
| 20260905225721 | 32 | 357 | 1.6 | 8.0 | 0.00 | 0.00 | 0.00 | 65 | 990.5 |
| 20260905225622 | 32 | 0 | 3.2 | 8.0 | 0.00 | 0.00 | 0.00 | 66 | 990.5 |
| 20260905225521 | 32 | 335 | 3.2 | 8.0 | 0.00 | 0.00 | 0.00 | 65 | 990.5 |
| 20260905225441 | 32 | 302 | 3.2 | 9.7 | 0.00 | 0.00 | 0.00 | 66 | 990.5 |
| 20260905225421 | 32 | 269 | 3.2 | 9.7 | 0.00 | 0.00 | 0.00 | 66 | 990.5 |
| 20260905225324 | 32 | 293 | 3.2 | 9.7 | 0.00 | 0.00 | 0.00 | 66 | 990.5 |
| 20260905225222 | 32 | 341 | 3.2 | 9.7 | 0.00 | 0.00 | 0.00 | 66 | 990.6 |
| 20260905225122 | 32 | 338 | 3.2 | 9.7 | 0.00 | 0.00 | 0.00 | 66 | 990.6 |
| 20260905225024 | 32 | 223 | 3.2 | 9.7 | 0.00 | 0.00 | 0.00 | 66 | 990.6 |
| 20260905224941 | 32 | 343 | 3.2 | 9.7 | 0.00 | 0.00 | 0.00 | 66 | 990.7 |
| 20260905224921 | 32 | 0 | 3.2 | 9.7 | 0.00 | 0.00 | 0.00 | 66 | 990.7 |
| 20260905224822 | 32 | 10 | 3.2 | 9.7 | 0.00 | 0.00 | 0.00 | 65 | 990.7 |
| 20260905224722 | 32 | 342 | 3.2 | 9.7 | 0.00 | 0.00 | 0.00 | 65 | 990.6 |
| 20260905224622 | 32 | 335 | 3.2 | 9.7 | 0.00 | 0.00 | 0.00 | 65 | 990.7 |
| 20260905224522 | 32 | 7 | 3.2 | 9.7 | 0.00 | 0.00 | 0.00 | 65 | 990.7 |
| 20260905224441 | 32 | 45 | 3.2 | 9.7 | 0.00 | 0.00 | 0.00 | 65 | 990.8 |
| 20260905224424 | 32 | 358 | 3.2 | 9.7 | 0.00 | 0.00 | 0.00 | 65 | 990.8 |
| 20260905224329 | 32 | 336 | 1.6 | 8.0 | 0.00 | 0.00 | 0.00 | 64 | 990.7 |
| 20260905224222 | 32 | 356 | 1.6 | 8.0 | 0.00 | 0.00 | 0.00 | 64 | 990.7 |
| 20260905224121 | 32 | 2 | 1.6 | 4.8 | 0.00 | 0.00 | 0.00 | 64 | 990.7 |
| 20260905224025 | 32 | 43 | 1.6 | 6.4 | 0.00 | 0.00 | 0.00 | 64 | 990.7 |
| 20260905223940 | 32 | 329 | 1.6 | 6.4 | 0.00 | 0.00 | 0.00 | 65 | 990.7 |
| 20260905223921 | 32 | 336 | 1.6 | 6.4 | 0.00 | 0.00 | 0.00 | 65 | 990.7 |
| 20260905223823 | 32 | 41 | 1.6 | 8.0 | 0.00 | 0.00 | 0.00 | 65 | 990.6 |
| 20260905223722 | 32 | 0 | 1.6 | 8.0 | 0.00 | 0.00 | 0.00 | 65 | 990.7 |
| 20260905223622 | 32 | 355 | 1.6 | 8.0 | 0.00 | 0.00 | 0.00 | 65 | 990.6 |
| 20260905223522 | 32 | 346 | 1.6 | 8.0 | 0.00 | 0.00 | 0.00 | 65 | 990.6 |
| 20260905223441 | 32 | 0 | 1.6 | 8.0 | 0.00 | 0.00 | 0.00 | 65 | 990.6 |
| 20260905223424 | 32 | 331 | 1.6 | 8.0 | 0.00 | 0.00 | 0.00 | 65 | 990.6 |
| 20260905223324 | 32 | 0 | 1.6 | 8.0 | 0.00 | 0.00 | 0.00 | 64 | 990.6 |
| 20260905223222 | 32 | 332 | 1.6 | 8.0 | 0.00 | 0.00 | 0.00 | 64 | 990.6 |
| 20260905223122 | 32 | 233 | 1.6 | 8.0 | 0.00 | 0.00 | 0.00 | 64 | 990.6 |
| 20260905223022 | 32 | 348 | 1.6 | 8.0 | 0.00 | 0.00 | 0.00 | 64 | 990.6 |
| 20260905222941 | 32 | 325 | 3.2 | 8.0 | 0.00 | 0.00 | 0.00 | 64 | 990.6 |
| 20260905222922 | 32 | 356 | 3.2 | 8.0 | 0.00 | 0.00 | 0.00 | 64 | 990.6 |
| 20260905222822 | 32 | 17 | 1.6 | 8.0 | 0.00 | 0.00 | 0.00 | 64 | 990.6 |
| 20260905222724 | 32 | 344 | 1.6 | 8.0 | 0.00 | 0.00 | 0.00 | 63 | 990.6 |
| 20260905222623 | 32 | 321 | 1.6 | 8.0 | 0.00 | 0.00 | 0.00 | 63 | 990.7 |
| 20260905222519 | 32 | 1 | 1.6 | 8.0 | 0.00 | 0.00 | 0.00 | 63 | 990.7 |
| 20260905222442 | 32 | 267 | 3.2 | 8.0 | 0.00 | 0.00 | 0.00 | 63 | 990.7 |
| 20260905222420 | 32 | 301 | 3.2 | 8.0 | 0.00 | 0.00 | 0.00 | 63 | 990.7 |
| 20260905222318 | 32 | 0 | 3.2 | 8.0 | 0.00 | 0.00 | 0.00 | 64 | 990.7 |
| 20260905222218 | 32 | 327 | 3.2 | 8.0 | 0.00 | 0.00 | 0.00 | 64 | 990.7 |
| 20260905222117 | 32 | 2 | 3.2 | 8.0 | 0.00 | 0.00 | 0.00 | 64 | 990.7 |
| 20260905222018 | 32 | 324 | 3.2 | 8.0 | 0.00 | 0.00 | 0.00 | 64 | 990.7 |
| 20260905221940 | 32 | 334 | 3.2 | 11.3 | 0.00 | 0.00 | 0.00 | 64 | 990.7 |
| 20260905221917 | 32 | 10 | 3.2 | 11.3 | 0.00 | 0.00 | 0.00 | 64 | 990.7 |
| 20260905221817 | 32 | 273 | 3.2 | 11.3 | 0.00 | 0.00 | 0.00 | 64 | 990.7 |
| 20260905221718 | 32 | 12 | 3.2 | 11.3 | 0.00 | 0.00 | 0.00 | 64 | 990.7 |
| 20260905221615 | 32 | 262 | 3.2 | 11.3 | 0.00 | 0.00 | 0.00 | 64 | 990.7 |
| 20260905221513 | 32 | 355 | 3.2 | 11.3 | 0.00 | 0.00 | 0.00 | 64 | 990.7 |
| 20260905221440 | 32 | 352 | 3.2 | 11.3 | 0.00 | 0.00 | 0.00 | 64 | 990.7 |
| 20260905221410 | 32 | 340 | 3.2 | 11.3 | 0.00 | 0.00 | 0.00 | 64 | 990.7 |
| 20260905221310 | 32 | 308 | 3.2 | 11.3 | 0.00 | 0.00 | 0.00 | 64 | 990.7 |
| 20260905221215 | 33 | 351 | 3.2 | 9.7 | 0.00 | 0.00 | 0.00 | 63 | 990.6 |
| 20260905221207 | 33 | 348 | 3.2 | 11.3 | 0.00 | 0.00 | 0.00 | 64 | 990.7 |
| 20260905221109 | 33 | 342 | 3.2 | 11.3 | 0.00 | 0.00 | 0.00 | 63 | 990.7 |
| 20260905221049 | 33 | 350 | 3.2 | 11.3 | 0.00 | 0.00 | 0.00 | 63 | 990.7 |
| 20260905220904 | 33 | 276 | 3.2 | 9.7 | 0.00 | 0.00 | 0.00 | 63 | 990.6 |
| 20260905220803 | 33 | 33 | 3.2 | 9.7 | 0.00 | 0.00 | 0.00 | 63 | 990.6 |
| 20260905220701 | 33 | 270 | 3.2 | 8.0 | 0.00 | 0.00 | 0.00 | 63 | 990.6 |
| 20260905220601 | 33 | 24 | 3.2 | 8.0 | 0.00 | 0.00 | 0.00 | 63 | 990.6 |
| 20260905220500 | 33 | 0 | 3.2 | 8.0 | 0.00 | 0.00 | 0.00 | 63 | 990.6 |
| 20260905220436 | 32 | 276 | 3.2 | 8.0 | 0.00 | 0.00 | 0.00 | 64 | 990.6 |
| 20260905220358 | 32 | 345 | 3.2 | 8.0 | 0.00 | 0.00 | 0.00 | 64 | 990.6 |
| 20260905220258 | 32 | 4 | 3.2 | 8.0 | 0.00 | 0.00 | 0.00 | 64 | 990.6 |
| 20260905220157 | 32 | 4 | 3.2 | 6.4 | 0.00 | 0.00 | 0.00 | 65 | 990.6 |
| 20260905220108 | 32 | 350 | 3.2 | 8.0 | 0.00 | 0.00 | 0.00 | 64 | 990.6 |
| 20260905215955 | 32 | 252 | 3.2 | 8.0 | 0.00 | 0.00 | 0.00 | 64 | 990.5 |
| 20260905215935 | 32 | 270 | 3.2 | 8.0 | 0.00 | 0.00 | 0.00 | 64 | 990.5 |
| 20260905215855 | 32 | 314 | 4.8 | 8.0 | 0.00 | 0.00 | 0.00 | 64 | 990.5 |
| 20260905215755 | 32 | 351 | 3.2 | 8.0 | 0.00 | 0.00 | 0.00 | 64 | 990.6 |
| 20260905215655 | 32 | 351 | 3.2 | 8.0 | 0.00 | 0.00 | 0.00 | 64 | 990.6 |
| 20260905215556 | 33 | 348 | 3.2 | 8.0 | 0.00 | 0.00 | 0.00 | 63 | 990.5 |
| 20260905215455 | 33 | 355 | 3.2 | 8.0 | 0.00 | 0.00 | 0.00 | 63 | 990.6 |
| 20260905215436 | 33 | 3 | 3.2 | 9.7 | 0.00 | 0.00 | 0.00 | 63 | 990.5 |
| 20260905215355 | 33 | 9 | 3.2 | 9.7 | 0.00 | 0.00 | 0.00 | 63 | 990.5 |
| 20260905215255 | 33 | 0 | 3.2 | 9.7 | 0.00 | 0.00 | 0.00 | 63 | 990.5 |
| 20260905215155 | 33 | 346 | 3.2 | 9.7 | 0.00 | 0.00 | 0.00 | 63 | 990.5 |
| 20260905215055 | 33 | 340 | 3.2 | 9.7 | 0.00 | 0.00 | 0.00 | 63 | 990.5 |
| 20260905214956 | 33 | 312 | 3.2 | 9.7 | 0.00 | 0.00 | 0.00 | 62 | 990.5 |
| 20260905214936 | 33 | 321 | 3.2 | 9.7 | 0.00 | 0.00 | 0.00 | 61 | 990.5 |
| 20260905214855 | 33 | 358 | 3.2 | 9.7 | 0.00 | 0.00 | 0.00 | 61 | 990.5 |
| 20260905214756 | 33 | 3 | 3.2 | 9.7 | 0.00 | 0.00 | 0.00 | 61 | 990.5 |
| 20260905214655 | 33 | 330 | 3.2 | 9.7 | 0.00 | 0.00 | 0.00 | 62 | 990.5 |
| 20260905214555 | 33 | 215 | 3.2 | 9.7 | 0.00 | 0.00 | 0.00 | 62 | 990.5 |
| 20260905214455 | 33 | 329 | 3.2 | 9.7 | 0.00 | 0.00 | 0.00 | 62 | 990.5 |
| 20260905214436 | 33 | 357 | 3.2 | 9.7 | 0.00 | 0.00 | 0.00 | 61 | 990.5 |
| 20260905214355 | 33 | 349 | 3.2 | 9.7 | 0.00 | 0.00 | 0.00 | 61 | 990.5 |
| 20260905214256 | 33 | 341 | 3.2 | 9.7 | 0.00 | 0.00 | 0.00 | 62 | 990.5 |
| 20260905214155 | 33 | 358 | 3.2 | 9.7 | 0.00 | 0.00 | 0.00 | 61 | 990.5 |
| 20260905214057 | 33 | 336 | 3.2 | 9.7 | 0.00 | 0.00 | 0.00 | 61 | 990.5 |
| 20260905213955 | 33 | 332 | 3.2 | 9.7 | 0.00 | 0.00 | 0.00 | 61 | 990.5 |
| 20260905213936 | 33 | 355 | 3.2 | 9.7 | 0.00 | 0.00 | 0.00 | 61 | 990.5 |
| 20260905213856 | 33 | 0 | 3.2 | 9.7 | 0.00 | 0.00 | 0.00 | 61 | 990.5 |
| 20260905213755 | 33 | 349 | 3.2 | 9.7 | 0.00 | 0.00 | 0.00 | 61 | 990.5 |
| 20260905213656 | 33 | 347 | 3.2 | 9.7 | 0.00 | 0.00 | 0.00 | 60 | 990.5 |
| 20260905213556 | 33 | 332 | 1.6 | 6.4 | 0.00 | 0.00 | 0.00 | 61 | 990.5 |
| 20260905213455 | 33 | 0 | 1.6 | 6.4 | 0.00 | 0.00 | 0.00 | 61 | 990.5 |
| 20260905213436 | 33 | 250 | 1.6 | 6.4 | 0.00 | 0.00 | 0.00 | 61 | 990.5 |
| 20260905213355 | 33 | 327 | 1.6 | 6.4 | 0.00 | 0.00 | 0.00 | 61 | 990.5 |
| 20260905213255 | 33 | 0 | 1.6 | 6.4 | 0.00 | 0.00 | 0.00 | 62 | 990.5 |
| 20260905213155 | 33 | 346 | 1.6 | 6.4 | 0.00 | 0.00 | 0.00 | 61 | 990.5 |
| 20260905213055 | 33 | 344 | 1.6 | 6.4 | 0.00 | 0.00 | 0.00 | 61 | 990.5 |
| 20260905212955 | 33 | 0 | 3.2 | 8.0 | 0.00 | 0.00 | 0.00 | 61 | 990.5 |
| 20260905212936 | 33 | 328 | 1.6 | 8.0 | 0.00 | 0.00 | 0.00 | 60 | 990.5 |
| 20260905212856 | 33 | 356 | 1.6 | 8.0 | 0.00 | 0.00 | 0.00 | 60 | 990.5 |
| 20260905212756 | 33 | 345 | 1.6 | 8.0 | 0.00 | 0.00 | 0.00 | 60 | 990.5 |
| 20260905212654 | 33 | 333 | 1.6 | 8.0 | 0.00 | 0.00 | 0.00 | 60 | 990.5 |
| 20260905212608 | 33 | 297 | 3.2 | 8.0 | 0.00 | 0.00 | 0.00 | 60 | 990.4 |
| 20260905212453 | 33 | 355 | 3.2 | 8.0 | 0.00 | 0.00 | 0.00 | 60 | 990.5 |
| 20260905212437 | 33 | 355 | 3.2 | 8.0 | 0.00 | 0.00 | 0.00 | 60 | 990.5 |
| 20260905212433 | 33 | 333 | 3.2 | 8.0 | 0.00 | 0.00 | 0.00 | 62 | 990.5 |
| 20260905212354 | 33 | 0 | 3.2 | 8.0 | 0.00 | 0.00 | 0.00 | 60 | 990.5 |
| 20260905212321 | 33 | 342 | 3.2 | 8.0 | 0.00 | 0.00 | 0.00 | 60 | 990.5 |
| 20260905212154 | 33 | 354 | 3.2 | 8.0 | 0.00 | 0.00 | 0.00 | 61 | 990.5 |
| 20260905212103 | 33 | 0 | 3.2 | 8.0 | 0.00 | 0.00 | 0.00 | 62 | 990.5 |
| 20260905212049 | 33 | 334 | 3.2 | 8.0 | 0.00 | 0.00 | 0.00 | 62 | 990.5 |
| 20260905211854 | 33 | 325 | 3.2 | 8.0 | 0.00 | 0.00 | 0.00 | 62 | 990.5 |
| 20260905211754 | 33 | 39 | 3.2 | 8.0 | 0.00 | 0.00 | 0.00 | 62 | 990.5 |
| 20260905211653 | 33 | 341 | 3.2 | 6.4 | 0.00 | 0.00 | 0.00 | 62 | 990.5 |
| 20260905211553 | 32 | 288 | 3.2 | 6.4 | 0.00 | 0.00 | 0.00 | 63 | 990.5 |
| 20260905211453 | 32 | 352 | 3.2 | 6.4 | 0.00 | 0.00 | 0.00 | 63 | 990.5 |
| 20260905211431 | 32 | 334 | 3.2 | 6.4 | 0.00 | 0.00 | 0.00 | 63 | 990.5 |
| 20260905211353 | 32 | 0 | 3.2 | 6.4 | 0.00 | 0.00 | 0.00 | 64 | 990.5 |
| 20260905211249 | 33 | 341 | 3.2 | 6.4 | 0.00 | 0.00 | 0.00 | 63 | 990.5 |
| 20260905211156 | 33 | 341 | 3.2 | 6.4 | 0.00 | 0.00 | 0.00 | 64 | 990.5 |
| 20260905211149 | 33 | 340 | 3.2 | 6.4 | 0.00 | 0.00 | 0.00 | 63 | 990.5 |
| 20260905211109 | 33 | 5 | 3.2 | 6.4 | 0.00 | 0.00 | 0.00 | 64 | 990.5 |
| 20260905211056 | 33 | 333 | 3.2 | 6.4 | 0.00 | 0.00 | 0.00 | 64 | 990.5 |
| 20260905210850 | 33 | 352 | 3.2 | 6.4 | 0.00 | 0.00 | 0.00 | 64 | 990.5 |
| 20260905210747 | 33 | 4 | 3.2 | 6.4 | 0.00 | 0.00 | 0.00 | 64 | 990.5 |
| 20260905210648 | 33 | 0 | 3.2 | 8.0 | 0.00 | 0.00 | 0.00 | 64 | 990.5 |
| 20260905210546 | 33 | 345 | 3.2 | 8.0 | 0.00 | 0.00 | 0.00 | 63 | 990.5 |
| 20260905210446 | 33 | 339 | 3.2 | 8.0 | 0.00 | 0.00 | 0.00 | 63 | 990.5 |
| 20260905210428 | 33 | 357 | 3.2 | 8.0 | 0.00 | 0.00 | 0.00 | 63 | 990.5 |
| 20260905210345 | 33 | 1 | 3.2 | 8.0 | 0.00 | 0.00 | 0.00 | 62 | 990.5 |
| 20260905210245 | 33 | 343 | 3.2 | 8.0 | 0.00 | 0.00 | 0.00 | 62 | 990.5 |
| 20260905210141 | 33 | 356 | 3.2 | 8.0 | 0.00 | 0.00 | 0.00 | 62 | 990.5 |
| 20260905210042 | 33 | 325 | 3.2 | 8.0 | 0.00 | 0.00 | 0.00 | 61 | 990.5 |
| 20260905205941 | 33 | 342 | 3.2 | 8.0 | 0.00 | 0.00 | 0.00 | 62 | 990.5 |
| 20260905205927 | 33 | 0 | 3.2 | 8.0 | 0.00 | 0.00 | 0.00 | 62 | 990.5 |
| 20260905205841 | 33 | 269 | 3.2 | 8.0 | 0.00 | 0.00 | 0.00 | 62 | 990.5 |
| 20260905205741 | 33 | 330 | 3.2 | 8.0 | 0.00 | 0.00 | 0.00 | 61 | 990.5 |
| 20260905205641 | 33 | 348 | 3.2 | 8.0 | 0.00 | 0.00 | 0.00 | 61 | 990.5 |
| 20260905205541 | 33 | 350 | 3.2 | 8.0 | 0.00 | 0.00 | 0.00 | 60 | 990.5 |
| 20260905205441 | 33 | 323 | 3.2 | 6.4 | 0.00 | 0.00 | 0.00 | 61 | 990.5 |
| 20260905205428 | 33 | 342 | 3.2 | 6.4 | 0.00 | 0.00 | 0.00 | 61 | 990.5 |
| 20260905205342 | 33 | 240 | 3.2 | 6.4 | 0.00 | 0.00 | 0.00 | 61 | 990.5 |
| 20260905205241 | 33 | 341 | 3.2 | 6.4 | 0.00 | 0.00 | 0.00 | 61 | 990.5 |
| 20260905205142 | 33 | 311 | 3.2 | 6.4 | 0.00 | 0.00 | 0.00 | 61 | 990.6 |
| 20260905205042 | 33 | 293 | 3.2 | 6.4 | 0.00 | 0.00 | 0.00 | 61 | 990.6 |
| 20260905204941 | 33 | 347 | 3.2 | 6.4 | 0.00 | 0.00 | 0.00 | 62 | 990.6 |
| 20260905204928 | 33 | 351 | 3.2 | 6.4 | 0.00 | 0.00 | 0.00 | 62 | 990.6 |
| 20260905204841 | 33 | 7 | 3.2 | 8.0 | 0.00 | 0.00 | 0.00 | 62 | 990.6 |
| 20260905204740 | 33 | 333 | 3.2 | 8.0 | 0.00 | 0.00 | 0.00 | 61 | 990.6 |
| 20260905204641 | 33 | 333 | 3.2 | 8.0 | 0.00 | 0.00 | 0.00 | 61 | 990.6 |
| 20260905204541 | 33 | 300 | 3.2 | 8.0 | 0.00 | 0.00 | 0.00 | 61 | 990.6 |
| 20260905204442 | 33 | 332 | 3.2 | 8.0 | 0.00 | 0.00 | 0.00 | 61 | 990.6 |
| 20260905204428 | 33 | 320 | 3.2 | 8.0 | 0.00 | 0.00 | 0.00 | 61 | 990.6 |
| 20260905204341 | 33 | 0 | 3.2 | 8.0 | 0.00 | 0.00 | 0.00 | 61 | 990.6 |
| 20260905204241 | 33 | 343 | 3.2 | 8.0 | 0.00 | 0.00 | 0.00 | 61 | 990.5 |
| 20260905204141 | 33 | 5 | 3.2 | 8.0 | 0.00 | 0.00 | 0.00 | 62 | 990.5 |
| 20260905204044 | 33 | 353 | 3.2 | 8.0 | 0.00 | 0.00 | 0.00 | 62 | 990.5 |
| 20260905203941 | 33 | 329 | 3.2 | 8.0 | 0.00 | 0.00 | 0.00 | 62 | 990.5 |
| 20260905203928 | 33 | 325 | 3.2 | 8.0 | 0.00 | 0.00 | 0.00 | 62 | 990.5 |
| 20260905203842 | 33 | 327 | 3.2 | 8.0 | 0.00 | 0.00 | 0.00 | 62 | 990.5 |
| 20260905203742 | 33 | 346 | 3.2 | 8.0 | 0.00 | 0.00 | 0.00 | 62 | 990.6 |
| 20260905203642 | 33 | 340 | 3.2 | 6.4 | 0.00 | 0.00 | 0.00 | 62 | 990.6 |
| 20260905203541 | 33 | 305 | 3.2 | 6.4 | 0.00 | 0.00 | 0.00 | 62 | 990.6 |
| 20260905203442 | 33 | 243 | 3.2 | 6.4 | 0.00 | 0.00 | 0.00 | 62 | 990.6 |
| 20260905203428 | 33 | 239 | 3.2 | 6.4 | 0.00 | 0.00 | 0.00 | 62 | 990.6 |
| 20260905203342 | 33 | 313 | 3.2 | 8.0 | 0.00 | 0.00 | 0.00 | 62 | 990.6 |
| 20260905203241 | 33 | 5 | 3.2 | 8.0 | 0.00 | 0.00 | 0.00 | 61 | 990.6 |
| 20260905203142 | 33 | 346 | 3.2 | 8.0 | 0.00 | 0.00 | 0.00 | 61 | 990.6 |
| 20260905203041 | 33 | 338 | 3.2 | 8.0 | 0.00 | 0.00 | 0.00 | 61 | 990.7 |
| 20260905202942 | 33 | 333 | 3.2 | 8.0 | 0.00 | 0.00 | 0.00 | 61 | 990.7 |
| 20260905202928 | 33 | 348 | 3.2 | 8.0 | 0.00 | 0.00 | 0.00 | 61 | 990.7 |
| 20260905202841 | 33 | 258 | 3.2 | 8.0 | 0.00 | 0.00 | 0.00 | 61 | 990.7 |
| 20260905202741 | 33 | 333 | 3.2 | 8.0 | 0.00 | 0.00 | 0.00 | 61 | 990.7 |
| 20260905202641 | 33 | 326 | 3.2 | 8.0 | 0.00 | 0.00 | 0.00 | 62 | 990.8 |
| 20260905202542 | 33 | 335 | 3.2 | 8.0 | 0.00 | 0.00 | 0.00 | 61 | 990.8 |
| 20260905202442 | 33 | 347 | 3.2 | 8.0 | 0.00 | 0.00 | 0.00 | 61 | 990.8 |
| 20260905202428 | 33 | 7 | 3.2 | 8.0 | 0.00 | 0.00 | 0.00 | 61 | 990.8 |
| 20260905202342 | 33 | 273 | 3.2 | 8.0 | 0.00 | 0.00 | 0.00 | 60 | 990.7 |
| 20260905202254 | 33 | 353 | 3.2 | 8.0 | 0.00 | 0.00 | 0.00 | 61 | 990.7 |
| 20260905202139 | 33 | 340 | 3.2 | 8.0 | 0.00 | 0.00 | 0.00 | 62 | 990.8 |
| 20260905202037 | 33 | 326 | 3.2 | 8.0 | 0.00 | 0.00 | 0.00 | 62 | 990.8 |
| 20260905201932 | 33 | 358 | 3.2 | 8.0 | 0.00 | 0.00 | 0.00 | 62 | 990.8 |
| 20260905201920 | 33 | 316 | 1.6 | 6.4 | 0.00 | 0.00 | 0.00 | 62 | 990.8 |
| 20260905201833 | 33 | 309 | 3.2 | 8.0 | 0.00 | 0.00 | 0.00 | 61 | 990.8 |
| 20260905201812 | 33 | 343 | 3.2 | 8.0 | 0.00 | 0.00 | 0.00 | 61 | 990.8 |
| 20260905201633 | 33 | 6 | 1.6 | 6.4 | 0.00 | 0.00 | 0.00 | 61 | 990.8 |
| 20260905201548 | 33 | 358 | 1.6 | 6.4 | 0.00 | 0.00 | 0.00 | 62 | 990.8 |
| 20260905201430 | 33 | 282 | 1.6 | 6.4 | 0.00 | 0.00 | 0.00 | 62 | 990.8 |
| 20260905201329 | 33 | 0 | 1.6 | 6.4 | 0.00 | 0.00 | 0.00 | 61 | 990.9 |
| 20260905201228 | 33 | 13 | 1.6 | 6.4 | 0.00 | 0.00 | 0.00 | 61 | 990.9 |
| 20260905201128 | 33 | 326 | 1.6 | 4.8 | 0.00 | 0.00 | 0.00 | 62 | 990.9 |
| 20260905201031 | 33 | 351 | 1.6 | 4.8 | 0.00 | 0.00 | 0.00 | 63 | 990.9 |
| 20260905200931 | 33 | 352 | 1.6 | 4.8 | 0.00 | 0.00 | 0.00 | 62 | 990.9 |
| 20260905200927 | 33 | 0 | 1.6 | 4.8 | 0.00 | 0.00 | 0.00 | 62 | 990.9 |
| 20260905200824 | 33 | 269 | 1.6 | 4.8 | 0.00 | 0.00 | 0.00 | 62 | 990.9 |
| 20260905200726 | 33 | 0 | 1.6 | 4.8 | 0.00 | 0.00 | 0.00 | 63 | 990.9 |
| 20260905200624 | 33 | 0 | 1.6 | 8.0 | 0.00 | 0.00 | 0.00 | 63 | 990.9 |
| 20260905200534 | 33 | 344 | 1.6 | 8.0 | 0.00 | 0.00 | 0.00 | 63 | 990.9 |
| 20260905200426 | 33 | 346 | 1.6 | 8.0 | 0.00 | 0.00 | 0.00 | 63 | 990.9 |
| 20260905200418 | 33 | 352 | 1.6 | 8.0 | 0.00 | 0.00 | 0.00 | 63 | 990.9 |
| 20260905200315 | 33 | 256 | 1.6 | 8.0 | 0.00 | 0.00 | 0.00 | 63 | 990.9 |
| 20260905200215 | 33 | 356 | 1.6 | 8.0 | 0.00 | 0.00 | 0.00 | 64 | 991.0 |
| 20260905200117 | 33 | 353 | 1.6 | 8.0 | 0.00 | 0.00 | 0.00 | 63 | 991.0 |
| 20260905200013 | 33 | 0 | 3.2 | 8.0 | 0.00 | 0.00 | 0.00 | 63 | 990.9 |
| 20260905195925 | 33 | 0 | 3.2 | 8.0 | 0.00 | 0.00 | 0.00 | 63 | 990.9 |
| 20260905195911 | 33 | 317 | 3.2 | 8.0 | 0.00 | 0.00 | 0.00 | 63 | 990.9 |
| 20260905195811 | 33 | 346 | 3.2 | 8.0 | 0.00 | 0.00 | 0.00 | 63 | 990.9 |
| 20260905195711 | 33 | 7 | 3.2 | 8.0 | 0.00 | 0.00 | 0.00 | 63 | 990.9 |
| 20260905195611 | 33 | 353 | 3.2 | 8.0 | 0.00 | 0.00 | 0.00 | 64 | 991.0 |
| 20260905195510 | 33 | 0 | 3.2 | 8.0 | 0.00 | 0.00 | 0.00 | 63 | 991.0 |
| 20260905195423 | 33 | 344 | 3.2 | 8.0 | 0.00 | 0.00 | 0.00 | 62 | 991.0 |
| 20260905195411 | 33 | 340 | 3.2 | 8.0 | 0.00 | 0.00 | 0.00 | 62 | 991.0 |
| 20260905195211 | 33 | 316 | 3.2 | 8.0 | 0.00 | 0.00 | 0.00 | 62 | 991.0 |
| 20260905195111 | 33 | 331 | 3.2 | 8.0 | 0.00 | 0.00 | 0.00 | 62 | 991.0 |
| 20260905195011 | 33 | 201 | 3.2 | 8.0 | 0.00 | 0.00 | 0.00 | 61 | 990.9 |
| 20260905194912 | 34 | 340 | 3.2 | 8.0 | 0.00 | 0.00 | 0.00 | 60 | 990.9 |
| 20260905194811 | 34 | 343 | 1.6 | 6.4 | 0.00 | 0.00 | 0.00 | 60 | 990.9 |
| 20260905194712 | 33 | 349 | 1.6 | 4.8 | 0.00 | 0.00 | 0.00 | 61 | 990.9 |
| 20260905194610 | 33 | 340 | 1.6 | 4.8 | 0.00 | 0.00 | 0.00 | 61 | 990.9 |
| 20260905194511 | 33 | 0 | 1.6 | 4.8 | 0.00 | 0.00 | 0.00 | 61 | 990.9 |
| 20260905194423 | 33 | 345 | 1.6 | 4.8 | 0.00 | 0.00 | 0.00 | 62 | 991.0 |
| 20260905194411 | 33 | 355 | 1.6 | 4.8 | 0.00 | 0.00 | 0.00 | 62 | 991.0 |
| 20260905194312 | 34 | 0 | 1.6 | 4.8 | 0.00 | 0.00 | 0.00 | 61 | 990.9 |
| 20260905194211 | 34 | 347 | 1.6 | 4.8 | 0.00 | 0.00 | 0.00 | 61 | 990.9 |
| 20260905194111 | 34 | 7 | 1.6 | 4.8 | 0.00 | 0.00 | 0.00 | 61 | 990.9 |
| 20260905194011 | 34 | 0 | 1.6 | 4.8 | 0.00 | 0.00 | 0.00 | 61 | 990.9 |
| 20260905193923 | 34 | 329 | 1.6 | 4.8 | 0.00 | 0.00 | 0.00 | 60 | 990.9 |
| 20260905193911 | 34 | 0 | 1.6 | 4.8 | 0.00 | 0.00 | 0.00 | 60 | 990.9 |
| 20260905193824 | 34 | 329 | 3.2 | 4.8 | 0.00 | 0.00 | 0.00 | 60 | 990.9 |
| 20260905193712 | 34 | 19 | 1.6 | 4.8 | 0.00 | 0.00 | 0.00 | 60 | 990.9 |
| 20260905193611 | 34 | 356 | 3.2 | 6.4 | 0.00 | 0.00 | 0.00 | 60 | 990.9 |
| 20260905193512 | 34 | 357 | 3.2 | 6.4 | 0.00 | 0.00 | 0.00 | 60 | 990.9 |
| 20260905193424 | 33 | 326 | 3.2 | 6.4 | 0.00 | 0.00 | 0.00 | 60 | 990.9 |
| 20260905193411 | 33 | 321 | 3.2 | 6.4 | 0.00 | 0.00 | 0.00 | 60 | 990.9 |
| 20260905193312 | 33 | 285 | 3.2 | 6.4 | 0.00 | 0.00 | 0.00 | 61 | 990.9 |
| 20260905193212 | 33 | 337 | 3.2 | 8.0 | 0.00 | 0.00 | 0.00 | 61 | 990.9 |
| 20260905193146 | 33 | 326 | 3.2 | 8.0 | 0.00 | 0.00 | 0.00 | 62 | 990.9 |
| 20260905193111 | 33 | 353 | 3.2 | 8.0 | 0.00 | 0.00 | 0.00 | 61 | 990.9 |
| 20260905193046 | 33 | 324 | 3.2 | 8.0 | 0.00 | 0.00 | 0.00 | 62 | 991.0 |
| 20260905193041 | 33 | 354 | 3.2 | 8.0 | 0.00 | 0.00 | 0.00 | 61 | 990.9 |
| 20260905192911 | 33 | 343 | 3.2 | 8.0 | 0.00 | 0.00 | 0.00 | 62 | 990.9 |
| 20260905192813 | 33 | 6 | 3.2 | 8.0 | 0.00 | 0.00 | 0.00 | 62 | 991.0 |
| 20260905192759 | 33 | 329 | 3.2 | 8.0 | 0.00 | 0.00 | 0.00 | 62 | 991.0 |
| 20260905192610 | 33 | 346 | 3.2 | 8.0 | 0.00 | 0.00 | 0.00 | 62 | 991.0 |
| 20260905192539 | 33 | 271 | 3.2 | 8.0 | 0.00 | 0.00 | 0.00 | 62 | 991.0 |
| 20260905192408 | 33 | 319 | 3.2 | 8.0 | 0.00 | 0.00 | 0.00 | 62 | 991.0 |
| 20260905192306 | 33 | 345 | 3.2 | 8.0 | 0.00 | 0.00 | 0.00 | 61 | 991.0 |
| 20260905192201 | 33 | 325 | 3.2 | 8.0 | 0.00 | 0.00 | 0.00 | 62 | 991.0 |
| 20260905192101 | 33 | 328 | 3.2 | 8.0 | 0.00 | 0.00 | 0.00 | 62 | 991.1 |
| 20260905192000 | 33 | 9 | 3.2 | 8.0 | 0.00 | 0.00 | 0.00 | 62 | 991.1 |
| 20260905191923 | 33 | 351 | 3.2 | 6.4 | 0.00 | 0.00 | 0.00 | 63 | 991.1 |
| 20260905191857 | 33 | 329 | 3.2 | 6.4 | 0.00 | 0.00 | 0.00 | 63 | 991.1 |
| 20260905191757 | 33 | 287 | 1.6 | 6.4 | 0.00 | 0.00 | 0.00 | 63 | 991.1 |
| 20260905191658 | 33 | 336 | 1.6 | 6.4 | 0.00 | 0.00 | 0.00 | 62 | 991.1 |
| 20260905191557 | 33 | 319 | 1.6 | 6.4 | 0.00 | 0.00 | 0.00 | 63 | 991.1 |
| 20260905191457 | 33 | 325 | 1.6 | 4.8 | 0.00 | 0.00 | 0.00 | 62 | 991.1 |
| 20260905191420 | 33 | 311 | 1.6 | 4.8 | 0.00 | 0.00 | 0.00 | 62 | 991.1 |
| 20260905191357 | 33 | 336 | 1.6 | 4.8 | 0.00 | 0.00 | 0.00 | 62 | 991.1 |
| 20260905191257 | 33 | 332 | 1.6 | 4.8 | 0.00 | 0.00 | 0.00 | 63 | 991.1 |
| 20260905191157 | 33 | 229 | 1.6 | 4.8 | 0.00 | 0.00 | 0.00 | 62 | 991.1 |
| 20260905191058 | 33 | 339 | 1.6 | 4.8 | 0.00 | 0.00 | 0.00 | 62 | 991.1 |
| 20260905190957 | 33 | 0 | 1.6 | 4.8 | 0.00 | 0.00 | 0.00 | 61 | 991.1 |
| 20260905190921 | 33 | 0 | 1.6 | 4.8 | 0.00 | 0.00 | 0.00 | 61 | 991.1 |
| 20260905190857 | 33 | 1 | 1.6 | 4.8 | 0.00 | 0.00 | 0.00 | 62 | 991.1 |
| 20260905190756 | 33 | 0 | 1.6 | 4.8 | 0.00 | 0.00 | 0.00 | 62 | 991.1 |
| 20260905190656 | 33 | 0 | 1.6 | 6.4 | 0.00 | 0.00 | 0.00 | 62 | 991.2 |
| 20260905190555 | 33 | 336 | 1.6 | 6.4 | 0.00 | 0.00 | 0.00 | 61 | 991.2 |
| 20260905190455 | 33 | 308 | 1.6 | 6.4 | 0.00 | 0.00 | 0.00 | 61 | 991.2 |
| 20260905190417 | 33 | 2 | 1.6 | 6.4 | 0.00 | 0.00 | 0.00 | 61 | 991.2 |
| 20260905190355 | 33 | 343 | 1.6 | 6.4 | 0.00 | 0.00 | 0.00 | 61 | 991.2 |
| 20260905190255 | 33 | 343 | 1.6 | 6.4 | 0.00 | 0.00 | 0.00 | 61 | 991.2 |
| 20260905190154 | 33 | 0 | 1.6 | 6.4 | 0.00 | 0.00 | 0.00 | 61 | 991.2 |
| 20260905190052 | 33 | 343 | 3.2 | 6.4 | 0.00 | 0.00 | 0.00 | 61 | 991.2 |
| 20260905185949 | 33 | 344 | 3.2 | 6.4 | 0.00 | 0.00 | 0.00 | 61 | 991.2 |
| 20260905185918 | 33 | 34 | 3.2 | 6.4 | 0.00 | 0.00 | 0.00 | 61 | 991.2 |
| 20260905185849 | 33 | 13 | 3.2 | 9.7 | 0.00 | 0.00 | 0.00 | 61 | 991.2 |
| 20260905185749 | 33 | 17 | 3.2 | 9.7 | 0.00 | 0.00 | 0.00 | 61 | 991.2 |
| 20260905185708 | 33 | 221 | 3.2 | 9.7 | 0.00 | 0.00 | 0.00 | 63 | 991.2 |
| 20260905185700 | 33 | 223 | 3.2 | 9.7 | 0.00 | 0.00 | 0.00 | 62 | 991.2 |
| 20260905185548 | 33 | 242 | 3.2 | 9.7 | 0.00 | 0.00 | 0.00 | 62 | 991.2 |
| 20260905185533 | 33 | 266 | 3.2 | 9.7 | 0.00 | 0.00 | 0.00 | 63 | 991.2 |
| 20260905185347 | 33 | 328 | 3.2 | 9.7 | 0.00 | 0.00 | 0.00 | 62 | 991.2 |
| 20260905185248 | 33 | 324 | 3.2 | 9.7 | 0.00 | 0.00 | 0.00 | 63 | 991.2 |
| 20260905185148 | 33 | 207 | 3.2 | 9.7 | 0.00 | 0.00 | 0.00 | 62 | 991.2 |
| 20260905185047 | 33 | 348 | 3.2 | 9.7 | 0.00 | 0.00 | 0.00 | 62 | 991.2 |
| 20260905184948 | 33 | 341 | 3.2 | 9.7 | 0.00 | 0.00 | 0.00 | 62 | 991.2 |
| 20260905184918 | 33 | 1 | 3.2 | 9.7 | 0.00 | 0.00 | 0.00 | 62 | 991.2 |
| 20260905184847 | 33 | 340 | 3.2 | 9.7 | 0.00 | 0.00 | 0.00 | 62 | 991.2 |
| 20260905184748 | 33 | 321 | 1.6 | 6.4 | 0.00 | 0.00 | 0.00 | 62 | 991.2 |
| 20260905184648 | 33 | 0 | 3.2 | 6.4 | 0.00 | 0.00 | 0.00 | 62 | 991.2 |
| 20260905184547 | 33 | 279 | 3.2 | 6.4 | 0.00 | 0.00 | 0.00 | 63 | 991.3 |
| 20260905184418 | 33 | 0 | 3.2 | 6.4 | 0.00 | 0.00 | 0.00 | 63 | 991.3 |
| 20260905184347 | 33 | 202 | 3.2 | 6.4 | 0.00 | 0.00 | 0.00 | 63 | 991.3 |
| 20260905184247 | 33 | 339 | 3.2 | 6.4 | 0.00 | 0.00 | 0.00 | 62 | 991.3 |
| 20260905184148 | 33 | 354 | 3.2 | 6.4 | 0.00 | 0.00 | 0.00 | 62 | 991.3 |
| 20260905184049 | 33 | 3 | 1.6 | 6.4 | 0.00 | 0.00 | 0.00 | 62 | 991.3 |
| 20260905183948 | 33 | 336 | 1.6 | 6.4 | 0.00 | 0.00 | 0.00 | 62 | 991.4 |
| 20260905183918 | 33 | 346 | 1.6 | 6.4 | 0.00 | 0.00 | 0.00 | 62 | 991.4 |
| 20260905183847 | 33 | 18 | 1.6 | 6.4 | 0.00 | 0.00 | 0.00 | 62 | 991.4 |
| 20260905183748 | 33 | 342 | 1.6 | 4.8 | 0.00 | 0.00 | 0.00 | 61 | 991.3 |
| 20260905183647 | 33 | 0 | 1.6 | 4.8 | 0.00 | 0.00 | 0.00 | 61 | 991.3 |
| 20260905183547 | 33 | 348 | 1.6 | 4.8 | 0.00 | 0.00 | 0.00 | 61 | 991.3 |
| 20260905183448 | 33 | 274 | 1.6 | 6.4 | 0.00 | 0.00 | 0.00 | 61 | 991.3 |
| 20260905183418 | 33 | 358 | 1.6 | 6.4 | 0.00 | 0.00 | 0.00 | 61 | 991.3 |
| 20260905183348 | 33 | 351 | 1.6 | 6.4 | 0.00 | 0.00 | 0.00 | 62 | 991.3 |
| 20260905183248 | 33 | 352 | 1.6 | 6.4 | 0.00 | 0.00 | 0.00 | 61 | 991.3 |
| 20260905183149 | 33 | 237 | 1.6 | 6.4 | 0.00 | 0.00 | 0.00 | 61 | 991.3 |
| 20260905183136 | 34 | 340 | 3.2 | 6.4 | 0.00 | 0.00 | 0.00 | 63 | 991.3 |
| 20260905183048 | 34 | 347 | 1.6 | 6.4 | 0.00 | 0.00 | 0.00 | 63 | 991.3 |
| 20260905183035 | 34 | 243 | 1.6 | 6.4 | 0.00 | 0.00 | 0.00 | 63 | 991.3 |
| 20260905182847 | 34 | 322 | 3.2 | 6.4 | 0.00 | 0.00 | 0.00 | 62 | 991.4 |
| 20260905182748 | 34 | 341 | 1.6 | 6.4 | 0.00 | 0.00 | 0.00 | 61 | 991.4 |
| 20260905182647 | 34 | 335 | 1.6 | 6.4 | 0.00 | 0.00 | 0.00 | 61 | 991.4 |
| 20260905182549 | 34 | 334 | 1.6 | 6.4 | 0.00 | 0.00 | 0.00 | 60 | 991.4 |
| 20260905182448 | 35 | 354 | 1.6 | 6.4 | 0.00 | 0.00 | 0.00 | 61 | 991.4 |
| 20260905182418 | 35 | 12 | 1.6 | 4.8 | 0.00 | 0.00 | 0.00 | 61 | 991.4 |
| 20260905182348 | 35 | 3 | 1.6 | 4.8 | 0.00 | 0.00 | 0.00 | 61 | 991.4 |
| 20260905182247 | 35 | 4 | 1.6 | 4.8 | 0.00 | 0.00 | 0.00 | 60 | 991.3 |
| 20260905182148 | 35 | 351 | 1.6 | 4.8 | 0.00 | 0.00 | 0.00 | 60 | 991.3 |
| 20260905182047 | 35 | 9 | 1.6 | 4.8 | 0.00 | 0.00 | 0.00 | 60 | 991.3 |
| 20260905181918 | 35 | 3 | 1.6 | 4.8 | 0.00 | 0.00 | 0.00 | 59 | 991.3 |
| 20260905181847 | 35 | 0 | 1.6 | 4.8 | 0.00 | 0.00 | 0.00 | 59 | 991.3 |
| 20260905181747 | 35 | 0 | 1.6 | 4.8 | 0.00 | 0.00 | 0.00 | 59 | 991.4 |
| 20260905181648 | 35 | 0 | 1.6 | 4.8 | 0.00 | 0.00 | 0.00 | 59 | 991.4 |
| 20260905181547 | 35 | 353 | 1.6 | 4.8 | 0.00 | 0.00 | 0.00 | 59 | 991.4 |
| 20260905181444 | 35 | 344 | 1.6 | 4.8 | 0.00 | 0.00 | 0.00 | 59 | 991.4 |
| 20260905181418 | 35 | 0 | 1.6 | 4.8 | 0.00 | 0.00 | 0.00 | 59 | 991.4 |
| 20260905181345 | 35 | 0 | 1.6 | 4.8 | 0.00 | 0.00 | 0.00 | 58 | 991.4 |
| 20260905181241 | 35 | 4 | 1.6 | 4.8 | 0.00 | 0.00 | 0.00 | 57 | 991.4 |
| 20260905181140 | 35 | 340 | 1.6 | 3.2 | 0.00 | 0.00 | 0.00 | 57 | 991.4 |
| 20260905181041 | 35 | 334 | 0.0 | 3.2 | 0.00 | 0.00 | 0.00 | 58 | 991.4 |
| 20260905180941 | 35 | 269 | 0.0 | 3.2 | 0.00 | 0.00 | 0.00 | 57 | 991.4 |
| 20260905180919 | 35 | 258 | 0.0 | 3.2 | 0.00 | 0.00 | 0.00 | 57 | 991.4 |
| 20260905180915 | 34 | 238 | 1.6 | 4.8 | 0.00 | 0.00 | 0.00 | 59 | 991.4 |
| 20260905180840 | 35 | 47 | 1.6 | 4.8 | 0.00 | 0.00 | 0.00 | 58 | 991.4 |
| 20260905180815 | 35 | 0 | 1.6 | 4.8 | 0.00 | 0.00 | 0.00 | 58 | 991.4 |
| 20260905180651 | 35 | 340 | 1.6 | 4.8 | 0.00 | 0.00 | 0.00 | 58 | 991.4 |
| 20260905180546 | 34 | 273 | 1.6 | 4.8 | 0.00 | 0.00 | 0.00 | 58 | 991.4 |
| 20260905180534 | 34 | 0 | 1.6 | 4.8 | 0.00 | 0.00 | 0.00 | 59 | 991.4 |
| 20260905180339 | 34 | 0 | 1.6 | 4.8 | 0.00 | 0.00 | 0.00 | 59 | 991.4 |
| 20260905180239 | 34 | 0 | 1.6 | 4.8 | 0.00 | 0.00 | 0.00 | 59 | 991.4 |
| 20260905180139 | 34 | 185 | 1.6 | 4.8 | 0.00 | 0.00 | 0.00 | 59 | 991.5 |
| 20260905180038 | 34 | 169 | 1.6 | 4.8 | 0.00 | 0.00 | 0.00 | 60 | 991.5 |
| 20260905175934 | 34 | 0 | 1.6 | 4.8 | 0.00 | 0.00 | 0.00 | 59 | 991.5 |
| 20260905175918 | 34 | 223 | 1.6 | 4.8 | 0.00 | 0.00 | 0.00 | 59 | 991.5 |
| 20260905175832 | 33 | 216 | 1.6 | 4.8 | 0.00 | 0.00 | 0.00 | 60 | 991.5 |
| 20260905175730 | 33 | 0 | 1.6 | 4.8 | 0.00 | 0.00 | 0.00 | 60 | 991.5 |
| 20260905175631 | 33 | 0 | 1.6 | 6.4 | 0.00 | 0.00 | 0.00 | 61 | 991.5 |
| 20260905175530 | 33 | 0 | 1.6 | 6.4 | 0.00 | 0.00 | 0.00 | 62 | 991.6 |
| 20260905175434 | 33 | 0 | 1.6 | 8.0 | 0.00 | 0.00 | 0.00 | 61 | 991.6 |
| 20260905175418 | 33 | 333 | 1.6 | 8.0 | 0.00 | 0.00 | 0.00 | 61 | 991.6 |
| 20260905175328 | 33 | 340 | 3.2 | 8.0 | 0.00 | 0.00 | 0.00 | 61 | 991.6 |
| 20260905175227 | 33 | 342 | 1.6 | 8.0 | 0.00 | 0.00 | 0.00 | 61 | 991.6 |
| 20260905175128 | 33 | 0 | 1.6 | 8.0 | 0.00 | 0.00 | 0.00 | 62 | 991.7 |
| 20260905175028 | 33 | 269 | 1.6 | 8.0 | 0.00 | 0.00 | 0.00 | 61 | 991.7 |
| 20260905174915 | 33 | 352 | 1.6 | 8.0 | 0.00 | 0.00 | 0.00 | 62 | 991.6 |
| 20260905174828 | 33 | 240 | 3.2 | 8.0 | 0.00 | 0.00 | 0.00 | 62 | 991.6 |
| 20260905174727 | 33 | 357 | 1.6 | 8.0 | 0.00 | 0.00 | 0.00 | 63 | 991.6 |
| 20260905174627 | 34 | 0 | 1.6 | 8.0 | 0.00 | 0.00 | 0.00 | 62 | 991.6 |
| 20260905174528 | 34 | 352 | 1.6 | 8.0 | 0.00 | 0.00 | 0.00 | 62 | 991.7 |
| 20260905174432 | 34 | 342 | 1.6 | 6.4 | 0.00 | 0.00 | 0.00 | 61 | 991.6 |
| 20260905174416 | 34 | 332 | 1.6 | 6.4 | 0.00 | 0.00 | 0.00 | 61 | 991.6 |
| 20260905174327 | 34 | 0 | 1.6 | 6.4 | 0.00 | 0.00 | 0.00 | 60 | 991.6 |
| 20260905174228 | 34 | 328 | 1.6 | 6.4 | 0.00 | 0.00 | 0.00 | 61 | 991.7 |
| 20260905174127 | 34 | 320 | 1.6 | 6.4 | 0.00 | 0.00 | 0.00 | 60 | 991.7 |
| 20260905174032 | 34 | 2 | 1.6 | 6.4 | 0.00 | 0.00 | 0.00 | 60 | 991.7 |
| 20260905173931 | 34 | 2 | 1.6 | 6.4 | 0.00 | 0.00 | 0.00 | 60 | 991.7 |
| 20260905173916 | 34 | 345 | 1.6 | 6.4 | 0.00 | 0.00 | 0.00 | 60 | 991.7 |
| 20260905173828 | 34 | 346 | 1.6 | 6.4 | 0.00 | 0.00 | 0.00 | 61 | 991.7 |
| 20260905173728 | 34 | 0 | 1.6 | 6.4 | 0.00 | 0.00 | 0.00 | 60 | 991.7 |
| 20260905173634 | 34 | 0 | 1.6 | 6.4 | 0.00 | 0.00 | 0.00 | 58 | 991.7 |
| 20260905173627 | 34 | 0 | 1.6 | 6.4 | 0.00 | 0.00 | 0.00 | 59 | 991.6 |
| 20260905173542 | 34 | 348 | 1.6 | 6.4 | 0.00 | 0.00 | 0.00 | 59 | 991.7 |
| 20260905173531 | 34 | 0 | 1.6 | 6.4 | 0.00 | 0.00 | 0.00 | 58 | 991.7 |
| 20260905173329 | 34 | 328 | 1.6 | 6.4 | 0.00 | 0.00 | 0.00 | 58 | 991.7 |
| 20260905173228 | 34 | 351 | 1.6 | 9.7 | 0.00 | 0.00 | 0.00 | 58 | 991.7 |
| 20260905173046 | 34 | 0 | 1.6 | 9.7 | 0.00 | 0.00 | 0.00 | 59 | 991.7 |
| 20260905172916 | 33 | 0 | 1.6 | 9.7 | 0.00 | 0.00 | 0.00 | 60 | 991.7 |
| 20260905172828 | 33 | 339 | 1.6 | 9.7 | 0.00 | 0.00 | 0.00 | 61 | 991.7 |
| 20260905172728 | 33 | 0 | 1.6 | 9.7 | 0.00 | 0.00 | 0.00 | 60 | 991.7 |
| 20260905172627 | 33 | 330 | 3.2 | 9.7 | 0.00 | 0.00 | 0.00 | 62 | 991.7 |
| 20260905172527 | 33 | 254 | 3.2 | 9.7 | 0.00 | 0.00 | 0.00 | 62 | 991.7 |
| 20260905172430 | 33 | 0 | 3.2 | 9.7 | 0.00 | 0.00 | 0.00 | 62 | 991.7 |
| 20260905172415 | 33 | 327 | 3.2 | 9.7 | 0.00 | 0.00 | 0.00 | 62 | 991.7 |
| 20260905172340 | 33 | 345 | 3.2 | 9.7 | 0.00 | 0.00 | 0.00 | 61 | 991.7 |
| 20260905172228 | 33 | 344 | 3.2 | 9.7 | 0.00 | 0.00 | 0.00 | 61 | 991.8 |
| 20260905172127 | 33 | 311 | 1.6 | 6.4 | 0.00 | 0.00 | 0.00 | 61 | 991.7 |
| 20260905172043 | 34 | 338 | 1.6 | 6.4 | 0.00 | 0.00 | 0.00 | 61 | 991.8 |
| 20260905171929 | 34 | 325 | 1.6 | 6.4 | 0.00 | 0.00 | 0.00 | 60 | 991.8 |
| 20260905171916 | 34 | 323 | 1.6 | 6.4 | 0.00 | 0.00 | 0.00 | 60 | 991.8 |
| 20260905171828 | 34 | 352 | 1.6 | 6.4 | 0.00 | 0.00 | 0.00 | 60 | 991.8 |
| 20260905171740 | 34 | 354 | 1.6 | 6.4 | 0.00 | 0.00 | 0.00 | 60 | 991.8 |
| 20260905171624 | 33 | 222 | 1.6 | 4.8 | 0.00 | 0.00 | 0.00 | 61 | 991.8 |
| 20260905171524 | 33 | 4 | 1.6 | 4.8 | 0.00 | 0.00 | 0.00 | 61 | 991.8 |
| 20260905171421 | 33 | 333 | 1.6 | 4.8 | 0.00 | 0.00 | 0.00 | 61 | 991.8 |
| 20260905171321 | 33 | 323 | 1.6 | 4.8 | 0.00 | 0.00 | 0.00 | 60 | 991.8 |
| 20260905171221 | 33 | 327 | 1.6 | 6.4 | 0.00 | 0.00 | 0.00 | 60 | 991.8 |
| 20260905171124 | 33 | 0 | 1.6 | 6.4 | 0.00 | 0.00 | 0.00 | 60 | 991.8 |
| 20260905171018 | 33 | 189 | 1.6 | 8.0 | 0.00 | 0.00 | 0.00 | 61 | 991.8 |
| 20260905170921 | 33 | 190 | 1.6 | 8.0 | 0.00 | 0.00 | 0.00 | 62 | 991.8 |
| 20260905170917 | 33 | 190 | 3.2 | 8.0 | 0.00 | 0.00 | 0.00 | 62 | 991.8 |
| 20260905170814 | 33 | 5 | 3.2 | 8.0 | 0.00 | 0.00 | 0.00 | 62 | 991.8 |
| 20260905170712 | 33 | 321 | 3.2 | 8.0 | 0.00 | 0.00 | 0.00 | 62 | 991.9 |
| 20260905170636 | 33 | 0 | 3.2 | 8.0 | 0.00 | 0.00 | 0.00 | 63 | 992.0 |
| 20260905170611 | 33 | 0 | 3.2 | 8.0 | 0.00 | 0.00 | 0.00 | 62 | 991.9 |
| 20260905170533 | 33 | 0 | 3.2 | 8.0 | 0.00 | 0.00 | 0.00 | 63 | 991.9 |
| 20260905170411 | 33 | 0 | 3.2 | 8.0 | 0.00 | 0.00 | 0.00 | 63 | 992.0 |
| 20260905170311 | 33 | 0 | 3.2 | 8.0 | 0.00 | 0.00 | 0.00 | 62 | 992.0 |
| 20260905170210 | 33 | 356 | 3.2 | 8.0 | 0.00 | 0.00 | 0.00 | 62 | 992.0 |
| 20260905170136 | 34 | 344 | 1.6 | 8.0 | 0.00 | 0.00 | 0.00 | 60 | 991.9 |
| 20260905170110 | 33 | 0 | 1.6 | 8.0 | 0.00 | 0.00 | 0.00 | 62 | 992.0 |
| 20260905170038 | 34 | 356 | 1.6 | 8.0 | 0.00 | 0.00 | 0.00 | 60 | 992.0 |
| 20260905165909 | 34 | 2 | 1.6 | 8.0 | 0.00 | 0.00 | 0.00 | 60 | 991.9 |
| 20260905165809 | 33 | 346 | 1.6 | 6.4 | 0.00 | 0.00 | 0.00 | 60 | 991.9 |
| 20260905165710 | 33 | 232 | 1.6 | 6.4 | 0.00 | 0.00 | 0.00 | 60 | 991.9 |
| 20260905165632 | 33 | 0 | 1.6 | 6.4 | 0.00 | 0.00 | 0.00 | 61 | 992.0 |
| 20260905165609 | 33 | 324 | 1.6 | 6.4 | 0.00 | 0.00 | 0.00 | 61 | 991.9 |
| 20260905165531 | 33 | 253 | 1.6 | 6.4 | 0.00 | 0.00 | 0.00 | 61 | 991.9 |
| 20260905165409 | 33 | 0 | 1.6 | 6.4 | 0.00 | 0.00 | 0.00 | 61 | 992.0 |
| 20260905165309 | 33 | 0 | 1.6 | 6.4 | 0.00 | 0.00 | 0.00 | 61 | 992.0 |
| 20260905165207 | 33 | 248 | 1.6 | 6.4 | 0.00 | 0.00 | 0.00 | 62 | 992.0 |
| 20260905165108 | 33 | 0 | 1.6 | 6.4 | 0.00 | 0.00 | 0.00 | 61 | 992.0 |
| 20260905165004 | 33 | 9 | 1.6 | 6.4 | 0.00 | 0.00 | 0.00 | 61 | 992.0 |
| 20260905164911 | 33 | 351 | 1.6 | 4.8 | 0.00 | 0.00 | 0.00 | 61 | 992.0 |
| 20260905164904 | 33 | 358 | 1.6 | 4.8 | 0.00 | 0.00 | 0.00 | 61 | 992.0 |
| 20260905164803 | 33 | 2 | 1.6 | 4.8 | 0.00 | 0.00 | 0.00 | 61 | 992.0 |
| 20260905164703 | 33 | 324 | 1.6 | 4.8 | 0.00 | 0.00 | 0.00 | 61 | 992.0 |
| 20260905164636 | 33 | 333 | 1.6 | 6.4 | 0.00 | 0.00 | 0.00 | 61 | 992.0 |
| 20260905164602 | 33 | 0 | 1.6 | 4.8 | 0.00 | 0.00 | 0.00 | 62 | 992.0 |
| 20260905164525 | 33 | 18 | 1.6 | 4.8 | 0.00 | 0.00 | 0.00 | 62 | 992.0 |
| 20260905164404 | 33 | 353 | 1.6 | 6.4 | 0.00 | 0.00 | 0.00 | 61 | 992.0 |
| 20260905164303 | 33 | 341 | 1.6 | 6.4 | 0.00 | 0.00 | 0.00 | 61 | 992.0 |
| 20260905164204 | 33 | 336 | 1.6 | 6.4 | 0.00 | 0.00 | 0.00 | 61 | 992.0 |
| 20260905164103 | 33 | 309 | 1.6 | 6.4 | 0.00 | 0.00 | 0.00 | 62 | 992.0 |
| 20260905164002 | 33 | 0 | 1.6 | 6.4 | 0.00 | 0.00 | 0.00 | 61 | 992.1 |
| 20260905163910 | 33 | 234 | 1.6 | 6.4 | 0.00 | 0.00 | 0.00 | 62 | 992.1 |
| 20260905163902 | 33 | 259 | 1.6 | 6.4 | 0.00 | 0.00 | 0.00 | 62 | 992.1 |
| 20260905163802 | 33 | 18 | 1.6 | 6.4 | 0.00 | 0.00 | 0.00 | 63 | 992.1 |
| 20260905163703 | 32 | 1 | 1.6 | 6.4 | 0.00 | 0.00 | 0.00 | 63 | 992.1 |
| 20260905163604 | 32 | 325 | 1.6 | 6.4 | 0.00 | 0.00 | 0.00 | 63 | 992.1 |
| 20260905163503 | 32 | 350 | 1.6 | 6.4 | 0.00 | 0.00 | 0.00 | 63 | 992.1 |
| 20260905163409 | 32 | 347 | 1.6 | 6.4 | 0.00 | 0.00 | 0.00 | 63 | 992.1 |
| 20260905163404 | 32 | 337 | 1.6 | 6.4 | 0.00 | 0.00 | 0.00 | 63 | 992.1 |
| 20260905163302 | 32 | 0 | 1.6 | 6.4 | 0.00 | 0.00 | 0.00 | 64 | 992.1 |
| 20260905163201 | 32 | 0 | 3.2 | 6.4 | 0.00 | 0.00 | 0.00 | 64 | 992.1 |
| 20260905163100 | 32 | 357 | 3.2 | 6.4 | 0.00 | 0.00 | 0.00 | 64 | 992.1 |
| 20260905163000 | 32 | 354 | 3.2 | 6.4 | 0.00 | 0.00 | 0.00 | 64 | 992.1 |
| 20260905162910 | 32 | 359 | 3.2 | 6.4 | 0.00 | 0.00 | 0.00 | 64 | 992.1 |
| 20260905162900 | 32 | 341 | 3.2 | 6.4 | 0.00 | 0.00 | 0.00 | 64 | 992.1 |
| 20260905162800 | 32 | 0 | 3.2 | 6.4 | 0.00 | 0.00 | 0.00 | 64 | 992.1 |
| 20260905162701 | 32 | 339 | 3.2 | 6.4 | 0.00 | 0.00 | 0.00 | 64 | 992.1 |
| 20260905162600 | 32 | 339 | 3.2 | 6.4 | 0.00 | 0.00 | 0.00 | 66 | 992.1 |
| 20260905162500 | 32 | 354 | 3.2 | 6.4 | 0.00 | 0.00 | 0.00 | 65 | 992.1 |
| 20260905162408 | 32 | 283 | 3.2 | 6.4 | 0.00 | 0.00 | 0.00 | 66 | 992.1 |
| 20260905162359 | 32 | 310 | 3.2 | 6.4 | 0.00 | 0.00 | 0.00 | 65 | 992.1 |
| 20260905162259 | 32 | 334 | 3.2 | 6.4 | 0.00 | 0.00 | 0.00 | 65 | 992.1 |
| 20260905162159 | 32 | 316 | 1.6 | 6.4 | 0.00 | 0.00 | 0.00 | 65 | 992.1 |
| 20260905161959 | 32 | 334 | 1.6 | 6.4 | 0.00 | 0.00 | 0.00 | 64 | 992.1 |
| 20260905161908 | 32 | 344 | 1.6 | 6.4 | 0.00 | 0.00 | 0.00 | 64 | 992.1 |
| 20260905161858 | 32 | 326 | 1.6 | 6.4 | 0.00 | 0.00 | 0.00 | 64 | 992.1 |
| 20260905161759 | 32 | 3 | 1.6 | 6.4 | 0.00 | 0.00 | 0.00 | 64 | 992.2 |
| 20260905161659 | 32 | 315 | 1.6 | 4.8 | 0.00 | 0.00 | 0.00 | 64 | 992.1 |
| 20260905161559 | 32 | 0 | 1.6 | 4.8 | 0.00 | 0.00 | 0.00 | 64 | 992.2 |
| 20260905161459 | 32 | 337 | 1.6 | 4.8 | 0.00 | 0.00 | 0.00 | 65 | 992.2 |
| 20260905161408 | 32 | 337 | 1.6 | 4.8 | 0.00 | 0.00 | 0.00 | 65 | 992.2 |
| 20260905161359 | 32 | 337 | 1.6 | 4.8 | 0.00 | 0.00 | 0.00 | 65 | 992.2 |
| 20260905161259 | 32 | 0 | 1.6 | 4.8 | 0.00 | 0.00 | 0.00 | 64 | 992.2 |
| 20260905161159 | 32 | 353 | 1.6 | 4.8 | 0.00 | 0.00 | 0.00 | 64 | 992.2 |
| 20260905161112 | 32 | 338 | 1.6 | 4.8 | 0.00 | 0.00 | 0.00 | 65 | 992.1 |
| 20260905160959 | 32 | 336 | 1.6 | 4.8 | 0.00 | 0.00 | 0.00 | 65 | 992.1 |
| 20260905160911 | 32 | 319 | 1.6 | 4.8 | 0.00 | 0.00 | 0.00 | 65 | 992.1 |
| 20260905160858 | 32 | 319 | 1.6 | 4.8 | 0.00 | 0.00 | 0.00 | 64 | 992.1 |
| 20260905160759 | 32 | 316 | 1.6 | 4.8 | 0.00 | 0.00 | 0.00 | 64 | 992.0 |
| 20260905160659 | 32 | 194 | 1.6 | 4.8 | 0.00 | 0.00 | 0.00 | 65 | 992.0 |
| 20260905160558 | 32 | 193 | 1.6 | 4.8 | 0.00 | 0.00 | 0.00 | 65 | 992.1 |
| 20260905160459 | 32 | 0 | 1.6 | 4.8 | 0.00 | 0.00 | 0.00 | 64 | 992.1 |
| 20260905160410 | 32 | 0 | 1.6 | 4.8 | 0.00 | 0.00 | 0.00 | 64 | 992.1 |
| 20260905160359 | 32 | 343 | 1.6 | 4.8 | 0.00 | 0.00 | 0.00 | 64 | 992.1 |
| 20260905160259 | 32 | 326 | 1.6 | 4.8 | 0.00 | 0.00 | 0.00 | 65 | 992.1 |
| 20260905160159 | 32 | 0 | 1.6 | 4.8 | 0.00 | 0.00 | 0.00 | 65 | 992.1 |
| 20260905160108 | 32 | 325 | 1.6 | 4.8 | 0.00 | 0.00 | 0.00 | 66 | 992.1 |
| 20260905155946 | 31 | 328 | 1.6 | 4.8 | 0.00 | 0.00 | 0.00 | 66 | 992.1 |
| 20260905155854 | 31 | 347 | 1.6 | 4.8 | 0.00 | 0.00 | 0.00 | 66 | 992.1 |
| 20260905155845 | 31 | 350 | 1.6 | 4.8 | 0.00 | 0.00 | 0.00 | 66 | 992.0 |
| 20260905155745 | 31 | 0 | 1.6 | 4.8 | 0.00 | 0.00 | 0.00 | 65 | 992.0 |
| 20260905155646 | 31 | 28 | 1.6 | 4.8 | 0.00 | 0.00 | 0.00 | 65 | 992.0 |
| 20260905155533 | 31 | 342 | 1.6 | 4.8 | 0.00 | 0.00 | 0.00 | 65 | 992.0 |
| 20260905155430 | 31 | 354 | 1.6 | 4.8 | 0.00 | 0.00 | 0.00 | 65 | 992.0 |
| 20260905155354 | 31 | 354 | 1.6 | 4.8 | 0.00 | 0.00 | 0.00 | 65 | 992.0 |
| 20260905155330 | 31 | 339 | 1.6 | 4.8 | 0.00 | 0.00 | 0.00 | 65 | 991.9 |
| 20260905155217 | 31 | 351 | 1.6 | 3.2 | 0.00 | 0.00 | 0.00 | 65 | 992.0 |
| 20260905155121 | 31 | 338 | 1.6 | 3.2 | 0.00 | 0.00 | 0.00 | 65 | 992.0 |
| 20260905155117 | 31 | 0 | 1.6 | 3.2 | 0.00 | 0.00 | 0.00 | 65 | 991.9 |
| 20260905155023 | 31 | 335 | 1.6 | 3.2 | 0.00 | 0.00 | 0.00 | 64 | 992.0 |
| 20260905155005 | 31 | 338 | 1.6 | 3.2 | 0.00 | 0.00 | 0.00 | 65 | 992.0 |
| 20260905154801 | 31 | 333 | 1.6 | 3.2 | 0.00 | 0.00 | 0.00 | 65 | 992.0 |
| 20260905154701 | 31 | 333 | 1.6 | 3.2 | 0.00 | 0.00 | 0.00 | 65 | 992.0 |
| 20260905154601 | 31 | 336 | 1.6 | 3.2 | 0.00 | 0.00 | 0.00 | 65 | 992.0 |
| 20260905154501 | 31 | 212 | 1.6 | 3.2 | 0.00 | 0.00 | 0.00 | 66 | 992.0 |
| 20260905154401 | 31 | 359 | 1.6 | 3.2 | 0.00 | 0.00 | 0.00 | 66 | 992.0 |
| 20260905154301 | 31 | 0 | 1.6 | 3.2 | 0.00 | 0.00 | 0.00 | 66 | 992.0 |
| 20260905154202 | 31 | 339 | 1.6 | 4.8 | 0.00 | 0.00 | 0.00 | 66 | 992.0 |
| 20260905154101 | 31 | 329 | 3.2 | 4.8 | 0.00 | 0.00 | 0.00 | 67 | 992.0 |
| 20260905154001 | 31 | 14 | 3.2 | 4.8 | 0.00 | 0.00 | 0.00 | 66 | 992.0 |
| 20260905153900 | 31 | 0 | 3.2 | 4.8 | 0.00 | 0.00 | 0.00 | 66 | 991.9 |
| 20260905153801 | 31 | 0 | 3.2 | 4.8 | 0.00 | 0.00 | 0.00 | 65 | 991.9 |
| 20260905153701 | 31 | 266 | 3.2 | 4.8 | 0.00 | 0.00 | 0.00 | 66 | 991.9 |
| 20260905153601 | 31 | 346 | 3.2 | 4.8 | 0.00 | 0.00 | 0.00 | 66 | 991.9 |
| 20260905153502 | 31 | 334 | 3.2 | 4.8 | 0.00 | 0.00 | 0.00 | 66 | 991.9 |
| 20260905153401 | 31 | 329 | 3.2 | 4.8 | 0.00 | 0.00 | 0.00 | 65 | 991.9 |
| 20260905153301 | 31 | 337 | 1.6 | 4.8 | 0.00 | 0.00 | 0.00 | 65 | 991.9 |
| 20260905153201 | 31 | 348 | 1.6 | 4.8 | 0.00 | 0.00 | 0.00 | 65 | 991.9 |
| 20260905153101 | 31 | 14 | 1.6 | 4.8 | 0.00 | 0.00 | 0.00 | 66 | 991.9 |
| 20260905153001 | 31 | 355 | 1.6 | 4.8 | 0.00 | 0.00 | 0.00 | 66 | 991.9 |
| 20260905152904 | 31 | 184 | 1.6 | 3.2 | 0.00 | 0.00 | 0.00 | 66 | 991.8 |
| 20260905152853 | 31 | 349 | 1.6 | 3.2 | 0.00 | 0.00 | 0.00 | 67 | 991.9 |
| 20260905152801 | 31 | 342 | 1.6 | 3.2 | 0.00 | 0.00 | 0.00 | 67 | 991.9 |
| 20260905152701 | 31 | 337 | 1.6 | 4.8 | 0.00 | 0.00 | 0.00 | 66 | 991.8 |
| 20260905152602 | 31 | 327 | 1.6 | 4.8 | 0.00 | 0.00 | 0.00 | 67 | 991.8 |
| 20260905152500 | 31 | 0 | 1.6 | 4.8 | 0.00 | 0.00 | 0.00 | 67 | 991.8 |
| 20260905152359 | 31 | 0 | 1.6 | 4.8 | 0.00 | 0.00 | 0.00 | 66 | 991.8 |
| 20260905152300 | 31 | 244 | 1.6 | 4.8 | 0.00 | 0.00 | 0.00 | 66 | 991.8 |
| 20260905152200 | 31 | 243 | 1.6 | 4.8 | 0.00 | 0.00 | 0.00 | 66 | 991.8 |
| 20260905152100 | 31 | 322 | 1.6 | 4.8 | 0.00 | 0.00 | 0.00 | 66 | 991.8 |
| 20260905152000 | 31 | 338 | 1.6 | 4.8 | 0.00 | 0.00 | 0.00 | 66 | 991.8 |
| 20260905151859 | 31 | 235 | 1.6 | 4.8 | 0.00 | 0.00 | 0.00 | 66 | 991.9 |
| 20260905151800 | 31 | 315 | 1.6 | 4.8 | 0.00 | 0.00 | 0.00 | 66 | 991.9 |
| 20260905151700 | 31 | 354 | 1.6 | 4.8 | 0.00 | 0.00 | 0.00 | 66 | 991.9 |
| 20260905151618 | 31 | 0 | 1.6 | 4.8 | 0.00 | 0.00 | 0.00 | 66 | 991.9 |
| 20260905151600 | 31 | 336 | 1.6 | 4.8 | 0.00 | 0.00 | 0.00 | 66 | 991.9 |
| 20260905151519 | 31 | 340 | 1.6 | 4.8 | 0.00 | 0.00 | 0.00 | 67 | 991.9 |
| 20260905151504 | 31 | 0 | 1.6 | 4.8 | 0.00 | 0.00 | 0.00 | 66 | 991.9 |
| 20260905151300 | 31 | 344 | 1.6 | 4.8 | 0.00 | 0.00 | 0.00 | 66 | 991.9 |
| 20260905151200 | 31 | 342 | 1.6 | 4.8 | 0.00 | 0.00 | 0.00 | 66 | 991.8 |
| 20260905151110 | 30 | 308 | 1.6 | 3.2 | 0.00 | 0.00 | 0.00 | 68 | 991.9 |
| 20260905151100 | 31 | 328 | 1.6 | 4.8 | 0.00 | 0.00 | 0.00 | 67 | 991.9 |
| 20260905151008 | 31 | 323 | 1.6 | 4.8 | 0.00 | 0.00 | 0.00 | 67 | 991.9 |
| 20260905150951 | 30 | 308 | 1.6 | 3.2 | 0.00 | 0.00 | 0.00 | 68 | 991.9 |
| 20260905150747 | 30 | 353 | 1.6 | 3.2 | 0.00 | 0.00 | 0.00 | 67 | 991.8 |
| 20260905150647 | 30 | 0 | 1.6 | 6.4 | 0.00 | 0.00 | 0.00 | 67 | 991.8 |
| 20260905150547 | 30 | 0 | 1.6 | 6.4 | 0.00 | 0.00 | 0.00 | 67 | 991.8 |
| 20260905150446 | 30 | 0 | 1.6 | 6.4 | 0.00 | 0.00 | 0.00 | 67 | 991.8 |
| 20260905150347 | 30 | 0 | 1.6 | 6.4 | 0.00 | 0.00 | 0.00 | 67 | 991.8 |
| 20260905150246 | 30 | 309 | 1.6 | 6.4 | 0.00 | 0.00 | 0.00 | 67 | 991.7 |
| 20260905150132 | 30 | 325 | 1.6 | 6.4 | 0.00 | 0.00 | 0.00 | 67 | 991.7 |
| 20260905150033 | 30 | 6 | 1.6 | 6.4 | 0.00 | 0.00 | 0.00 | 68 | 991.8 |
| 20260905145932 | 30 | 352 | 1.6 | 6.4 | 0.00 | 0.00 | 0.00 | 68 | 991.8 |
| 20260905145832 | 30 | 0 | 1.6 | 6.4 | 0.00 | 0.00 | 0.00 | 68 | 991.8 |
| 20260905145717 | 30 | 349 | 1.6 | 6.4 | 0.00 | 0.00 | 0.00 | 68 | 991.8 |
| 20260905145617 | 30 | 330 | 1.6 | 4.8 | 0.00 | 0.00 | 0.00 | 69 | 991.8 |
| 20260905145518 | 30 | 333 | 1.6 | 4.8 | 0.00 | 0.00 | 0.00 | 70 | 991.8 |
| 20260905145417 | 30 | 329 | 1.6 | 4.8 | 0.00 | 0.00 | 0.00 | 69 | 991.7 |
| 20260905145339 | 30 | 10 | 1.6 | 4.8 | 0.00 | 0.00 | 0.00 | 69 | 991.7 |
| 20260905145302 | 30 | 193 | 1.6 | 4.8 | 0.00 | 0.00 | 0.00 | 69 | 991.7 |
| 20260905145203 | 30 | 0 | 1.6 | 4.8 | 0.00 | 0.00 | 0.00 | 69 | 991.7 |
| 20260905145102 | 30 | 350 | 1.6 | 4.8 | 0.00 | 0.00 | 0.00 | 69 | 991.7 |
| 20260905145002 | 30 | 352 | 1.6 | 4.8 | 0.00 | 0.00 | 0.00 | 69 | 991.7 |
| 20260905144902 | 30 | 356 | 0.0 | 4.8 | 0.00 | 0.00 | 0.00 | 69 | 991.7 |
| 20260905144824 | 30 | 0 | 0.0 | 4.8 | 0.00 | 0.00 | 0.00 | 70 | 991.7 |
| 20260905144802 | 30 | 0 | 0.0 | 4.8 | 0.00 | 0.00 | 0.00 | 70 | 991.7 |
| 20260905144701 | 30 | 342 | 1.6 | 4.8 | 0.00 | 0.00 | 0.00 | 70 | 991.7 |
| 20260905144602 | 30 | 0 | 1.6 | 4.8 | 0.00 | 0.00 | 0.00 | 70 | 991.7 |
| 20260905144502 | 30 | 345 | 1.6 | 4.8 | 0.00 | 0.00 | 0.00 | 71 | 991.7 |
| 20260905144403 | 30 | 355 | 0.0 | 4.8 | 0.00 | 0.00 | 0.00 | 71 | 991.7 |
| 20260905144325 | 30 | 352 | 1.6 | 4.8 | 0.00 | 0.00 | 0.00 | 71 | 991.6 |
| 20260905144302 | 30 | 352 | 1.6 | 4.8 | 0.00 | 0.00 | 0.00 | 71 | 991.6 |
| 20260905144201 | 30 | 0 | 1.6 | 4.8 | 0.00 | 0.00 | 0.00 | 71 | 991.6 |
| 20260905144101 | 30 | 0 | 1.6 | 4.8 | 0.00 | 0.00 | 0.00 | 71 | 991.6 |
| 20260905144003 | 30 | 0 | 1.6 | 4.8 | 0.00 | 0.00 | 0.00 | 71 | 991.6 |
| 20260905143902 | 29 | 335 | 1.6 | 4.8 | 0.00 | 0.00 | 0.00 | 71 | 991.6 |
| 20260905143825 | 29 | 335 | 1.6 | 4.8 | 0.00 | 0.00 | 0.00 | 71 | 991.6 |
| 20260905143802 | 29 | 329 | 1.6 | 4.8 | 0.00 | 0.00 | 0.00 | 71 | 991.6 |
| 20260905143702 | 29 | 307 | 1.6 | 4.8 | 0.00 | 0.00 | 0.00 | 72 | 991.6 |
| 20260905143602 | 29 | 0 | 1.6 | 4.8 | 0.00 | 0.00 | 0.00 | 72 | 991.6 |
| 20260905143503 | 29 | 0 | 1.6 | 4.8 | 0.00 | 0.00 | 0.00 | 72 | 991.6 |
| 20260905143402 | 29 | 330 | 1.6 | 4.8 | 0.00 | 0.00 | 0.00 | 72 | 991.6 |
| 20260905143326 | 29 | 334 | 0.0 | 4.8 | 0.00 | 0.00 | 0.00 | 72 | 991.6 |
| 20260905143312 | 29 | 0 | 0.0 | 3.2 | 0.00 | 0.00 | 0.00 | 72 | 991.6 |
| 20260905143302 | 29 | 10 | 0.0 | 3.2 | 0.00 | 0.00 | 0.00 | 72 | 991.6 |
| 20260905143212 | 29 | 325 | 0.0 | 3.2 | 0.00 | 0.00 | 0.00 | 72 | 991.6 |
| 20260905143159 | 29 | 0 | 0.0 | 3.2 | 0.00 | 0.00 | 0.00 | 72 | 991.6 |
| 20260905143002 | 29 | 0 | 0.0 | 3.2 | 0.00 | 0.00 | 0.00 | 72 | 991.6 |
| 20260905142940 | 29 | 0 | 0.0 | 3.2 | 0.00 | 0.00 | 0.00 | 72 | 991.6 |
| 20260905142802 | 29 | 0 | 0.0 | 3.2 | 0.00 | 0.00 | 0.00 | 72 | 991.6 |
| 20260905142702 | 29 | 239 | 0.0 | 3.2 | 0.00 | 0.00 | 0.00 | 72 | 991.6 |
| 20260905142602 | 29 | 263 | 0.0 | 3.2 | 0.00 | 0.00 | 0.00 | 72 | 991.5 |
| 20260905142503 | 29 | 247 | 0.0 | 3.2 | 0.00 | 0.00 | 0.00 | 72 | 991.6 |
| 20260905142401 | 28 | 187 | 0.0 | 3.2 | 0.00 | 0.00 | 0.00 | 72 | 991.5 |
| 20260905142324 | 28 | 186 | 0.0 | 3.2 | 0.00 | 0.00 | 0.00 | 72 | 991.5 |
| 20260905142301 | 28 | 186 | 0.0 | 3.2 | 0.00 | 0.00 | 0.00 | 73 | 991.5 |
| 20260905142201 | 28 | 0 | 0.0 | 3.2 | 0.00 | 0.00 | 0.00 | 73 | 991.5 |
| 20260905142101 | 28 | 0 | 0.0 | 3.2 | 0.00 | 0.00 | 0.00 | 73 | 991.5 |
| 20260905142001 | 28 | 0 | 0.0 | 3.2 | 0.00 | 0.00 | 0.00 | 73 | 991.5 |
| 20260905141901 | 28 | 0 | 0.0 | 3.2 | 0.00 | 0.00 | 0.00 | 73 | 991.5 |
| 20260905141825 | 28 | 0 | 0.0 | 3.2 | 0.00 | 0.00 | 0.00 | 73 | 991.5 |
| 20260905141801 | 28 | 0 | 0.0 | 3.2 | 0.00 | 0.00 | 0.00 | 73 | 991.5 |
| 20260905141702 | 28 | 0 | 0.0 | 3.2 | 0.00 | 0.00 | 0.00 | 73 | 991.4 |
| 20260905141601 | 28 | 0 | 0.0 | 3.2 | 0.00 | 0.00 | 0.00 | 73 | 991.4 |
| 20260905141544 | 28 | 220 | 0.0 | 3.2 | 0.00 | 0.00 | 0.00 | 73 | 991.5 |
| 20260905141501 | 28 | 0 | 0.0 | 3.2 | 0.00 | 0.00 | 0.00 | 73 | 991.5 |
| 20260905141440 | 28 | 0 | 0.0 | 3.2 | 0.00 | 0.00 | 0.00 | 73 | 991.5 |
| 20260905141301 | 28 | 220 | 0.0 | 3.2 | 0.00 | 0.00 | 0.00 | 73 | 991.5 |
| 20260905141144 | 28 | 222 | 0.0 | 3.2 | 0.00 | 0.00 | 0.00 | 73 | 991.5 |
| 20260905141042 | 28 | 0 | 0.0 | 3.2 | 0.00 | 0.00 | 0.00 | 73 | 991.5 |
| 20260905140942 | 28 | 0 | 0.0 | 3.2 | 0.00 | 0.00 | 0.00 | 73 | 991.4 |
| 20260905140825 | 28 | 0 | 0.0 | 3.2 | 0.00 | 0.00 | 0.00 | 73 | 991.4 |
| 20260905140745 | 28 | 0 | 0.0 | 3.2 | 0.00 | 0.00 | 0.00 | 73 | 991.4 |
| 20260905140644 | 28 | 0 | 0.0 | 3.2 | 0.00 | 0.00 | 0.00 | 73 | 991.4 |
| 20260905140529 | 28 | 186 | 0.0 | 3.2 | 0.00 | 0.00 | 0.00 | 73 | 991.4 |
| 20260905140429 | 28 | 0 | 0.0 | 3.2 | 0.00 | 0.00 | 0.00 | 73 | 991.4 |
| 20260905140330 | 28 | 0 | 0.0 | 3.2 | 0.00 | 0.00 | 0.00 | 73 | 991.4 |
| 20260905140230 | 28 | 0 | 0.0 | 3.2 | 0.00 | 0.00 | 0.00 | 73 | 991.4 |
| 20260905140129 | 28 | 0 | 0.0 | 3.2 | 0.00 | 0.00 | 0.00 | 74 | 991.4 |
| 20260905140045 | 28 | 0 | 0.0 | 3.2 | 0.00 | 0.00 | 0.00 | 75 | 991.5 |
| 20260905140030 | 28 | 249 | 0.0 | 3.2 | 0.00 | 0.00 | 0.00 | 74 | 991.4 |
| 20260905135942 | 28 | 176 | 0.0 | 3.2 | 0.00 | 0.00 | 0.00 | 74 | 991.5 |
| 20260905135813 | 28 | 0 | 0.0 | 3.2 | 0.00 | 0.00 | 0.00 | 75 | 991.5 |
| 20260905135713 | 28 | 0 | 1.6 | 3.2 | 0.00 | 0.00 | 0.00 | 75 | 991.5 |
| 20260905135613 | 28 | 0 | 1.6 | 3.2 | 0.00 | 0.00 | 0.00 | 75 | 991.5 |
| 20260905135601 | 28 | 0 | 1.6 | 3.2 | 0.00 | 0.00 | 0.00 | 75 | 991.5 |
| 20260905135513 | 28 | 0 | 1.6 | 3.2 | 0.00 | 0.00 | 0.00 | 75 | 991.5 |
| 20260905135441 | 28 | 0 | 1.6 | 3.2 | 0.00 | 0.00 | 0.00 | 75 | 991.5 |
| 20260905135313 | 28 | 0 | 1.6 | 3.2 | 0.00 | 0.00 | 0.00 | 75 | 991.5 |
| 20260905135213 | 27 | 352 | 1.6 | 3.2 | 0.00 | 0.00 | 0.00 | 75 | 991.5 |
| 20260905135059 | 27 | 347 | 1.6 | 3.2 | 0.00 | 0.00 | 0.00 | 75 | 991.5 |
| 20260905134959 | 27 | 354 | 1.6 | 3.2 | 0.00 | 0.00 | 0.00 | 76 | 991.5 |
| 20260905134859 | 27 | 350 | 1.6 | 3.2 | 0.00 | 0.00 | 0.00 | 76 | 991.5 |
| 20260905134811 | 27 | 337 | 0.0 | 3.2 | 0.00 | 0.00 | 0.00 | 77 | 991.4 |
| 20260905134759 | 27 | 334 | 0.0 | 3.2 | 0.00 | 0.00 | 0.00 | 77 | 991.4 |
| 20260905134658 | 27 | 339 | 0.0 | 3.2 | 0.00 | 0.00 | 0.00 | 77 | 991.4 |
| 20260905134558 | 27 | 0 | 0.0 | 3.2 | 0.00 | 0.00 | 0.00 | 77 | 991.3 |
| 20260905134458 | 27 | 0 | 0.0 | 3.2 | 0.00 | 0.00 | 0.00 | 77 | 991.3 |
| 20260905134358 | 27 | 347 | 0.0 | 3.2 | 0.00 | 0.00 | 0.00 | 77 | 991.3 |
| 20260905134311 | 27 | 347 | 0.0 | 3.2 | 0.00 | 0.00 | 0.00 | 77 | 991.3 |
| 20260905134258 | 27 | 0 | 0.0 | 3.2 | 0.00 | 0.00 | 0.00 | 77 | 991.3 |
| 20260905134158 | 27 | 0 | 0.0 | 3.2 | 0.00 | 0.00 | 0.00 | 77 | 991.3 |
| 20260905134058 | 27 | 188 | 0.0 | 3.2 | 0.00 | 0.00 | 0.00 | 77 | 991.3 |
| 20260905133959 | 27 | 134 | 0.0 | 3.2 | 0.00 | 0.00 | 0.00 | 77 | 991.3 |
| 20260905133858 | 27 | 0 | 0.0 | 3.2 | 0.00 | 0.00 | 0.00 | 78 | 991.3 |
| 20260905133810 | 27 | 253 | 0.0 | 3.2 | 0.00 | 0.00 | 0.00 | 78 | 991.3 |
| 20260905133758 | 27 | 253 | 0.0 | 3.2 | 0.00 | 0.00 | 0.00 | 78 | 991.3 |
| 20260905133658 | 27 | 0 | 0.0 | 3.2 | 0.00 | 0.00 | 0.00 | 77 | 991.2 |
| 20260905133558 | 27 | 0 | 0.0 | 3.2 | 0.00 | 0.00 | 0.00 | 78 | 991.3 |
| 20260905133459 | 27 | 0 | 0.0 | 3.2 | 0.00 | 0.00 | 0.00 | 78 | 991.3 |
| 20260905133359 | 27 | 0 | 0.0 | 3.2 | 0.00 | 0.00 | 0.00 | 78 | 991.3 |
| 20260905133311 | 27 | 352 | 0.0 | 3.2 | 0.00 | 0.00 | 0.00 | 78 | 991.3 |
| 20260905133259 | 27 | 352 | 0.0 | 3.2 | 0.00 | 0.00 | 0.00 | 78 | 991.3 |
| 20260905133158 | 27 | 0 | 0.0 | 1.6 | 0.00 | 0.00 | 0.00 | 78 | 991.3 |
| 20260905133059 | 27 | 0 | 0.0 | 1.6 | 0.00 | 0.00 | 0.00 | 78 | 991.2 |
| 20260905132958 | 27 | 0 | 0.0 | 1.6 | 0.00 | 0.00 | 0.00 | 78 | 991.2 |
| 20260905132859 | 27 | 0 | 0.0 | 1.6 | 0.00 | 0.00 | 0.00 | 78 | 991.2 |
| 20260905132811 | 27 | 0 | 0.0 | 1.6 | 0.00 | 0.00 | 0.00 | 78 | 991.2 |
| 20260905132759 | 27 | 0 | 0.0 | 1.6 | 0.00 | 0.00 | 0.00 | 78 | 991.2 |
| 20260905132659 | 27 | 0 | 0.0 | 1.6 | 0.00 | 0.00 | 0.00 | 78 | 991.2 |
| 20260905132559 | 27 | 31 | 0.0 | 1.6 | 0.00 | 0.00 | 0.00 | 78 | 991.2 |
| 20260905132459 | 27 | 164 | 0.0 | 1.6 | 0.00 | 0.00 | 0.00 | 79 | 991.2 |
| 20260905132355 | 27 | 0 | 0.0 | 0.0 | 0.00 | 0.00 | 0.00 | 79 | 991.3 |
| 20260905132311 | 27 | 0 | 0.0 | 0.0 | 0.00 | 0.00 | 0.00 | 79 | 991.3 |
| 20260905132257 | 27 | 0 | 0.0 | 0.0 | 0.00 | 0.00 | 0.00 | 80 | 991.3 |
| 20260905132157 | 26 | 0 | 0.0 | 0.0 | 0.00 | 0.00 | 0.00 | 80 | 991.4 |
| 20260905132058 | 26 | 0 | 0.0 | 0.0 | 0.00 | 0.00 | 0.00 | 80 | 991.4 |
| 20260905131957 | 26 | 0 | 0.0 | 0.0 | 0.00 | 0.00 | 0.00 | 80 | 991.5 |
| 20260905131857 | 26 | 0 | 0.0 | 0.0 | 0.00 | 0.00 | 0.00 | 81 | 991.5 |
| 20260905131811 | 26 | 0 | 0.0 | 0.0 | 0.00 | 0.00 | 0.00 | 81 | 991.5 |
| 20260905131757 | 26 | 0 | 0.0 | 0.0 | 0.00 | 0.00 | 0.00 | 81 | 991.5 |
| 20260905131657 | 26 | 0 | 0.0 | 0.0 | 0.00 | 0.00 | 0.00 | 81 | 991.5 |
| 20260905131557 | 26 | 0 | 0.0 | 0.0 | 0.00 | 0.00 | 0.00 | 82 | 991.5 |
| 20260905131458 | 26 | 0 | 0.0 | 0.0 | 0.00 | 0.00 | 0.00 | 82 | 991.5 |
| 20260905131357 | 26 | 0 | 0.0 | 0.0 | 0.00 | 0.00 | 0.00 | 82 | 991.5 |
| 20260905131312 | 26 | 0 | 0.0 | 0.0 | 0.00 | 0.00 | 0.00 | 82 | 991.5 |
| 20260905131258 | 26 | 0 | 0.0 | 0.0 | 0.00 | 0.00 | 0.00 | 82 | 991.5 |
| 20260905131157 | 26 | 0 | 0.0 | 0.0 | 0.00 | 0.00 | 0.00 | 82 | 991.5 |
| 20260905131057 | 26 | 0 | 0.0 | 0.0 | 0.00 | 0.00 | 0.00 | 83 | 991.5 |
| 20260905130958 | 26 | 0 | 0.0 | 0.0 | 0.00 | 0.00 | 0.00 | 83 | 991.5 |
| 20260905130857 | 26 | 0 | 0.0 | 0.0 | 0.00 | 0.00 | 0.00 | 83 | 991.5 |
| 20260905130812 | 26 | 0 | 0.0 | 0.0 | 0.00 | 0.00 | 0.00 | 83 | 991.5 |
| 20260905130807 | 26 | 0 | 0.0 | 0.0 | 0.00 | 0.00 | 0.00 | 83 | 991.5 |
| 20260905130757 | 26 | 0 | 0.0 | 0.0 | 0.00 | 0.00 | 0.00 | 83 | 991.5 |
| 20260905130702 | 26 | 0 | 0.0 | 0.0 | 0.00 | 0.00 | 0.00 | 83 | 991.5 |
| 20260905130646 | 26 | 0 | 0.0 | 0.0 | 0.00 | 0.00 | 0.00 | 83 | 991.5 |
| 20260905130457 | 26 | 0 | 0.0 | 0.0 | 0.00 | 0.00 | 0.00 | 83 | 991.5 |
| 20260905130427 | 26 | 0 | 0.0 | 0.0 | 0.00 | 0.00 | 0.00 | 83 | 991.5 |
| 20260905130258 | 26 | 0 | 0.0 | 0.0 | 0.00 | 0.00 | 0.00 | 83 | 991.5 |
| 20260905130158 | 26 | 0 | 0.0 | 0.0 | 0.00 | 0.00 | 0.00 | 83 | 991.5 |
| 20260905130058 | 26 | 0 | 0.0 | 0.0 | 0.00 | 0.00 | 0.00 | 83 | 991.5 |
| 20260905125958 | 26 | 0 | 0.0 | 0.0 | 0.00 | 0.00 | 0.00 | 84 | 991.5 |
| 20260905125858 | 26 | 0 | 0.0 | 0.0 | 0.00 | 0.00 | 0.00 | 84 | 991.4 |
| 20260905125811 | 26 | 0 | 0.0 | 0.0 | 0.00 | 0.00 | 0.00 | 84 | 991.4 |
| 20260905125758 | 26 | 0 | 0.0 | 0.0 | 0.00 | 0.00 | 0.00 | 84 | 991.4 |
| 20260905125658 | 26 | 0 | 0.0 | 0.0 | 0.00 | 0.00 | 0.00 | 85 | 991.4 |
| 20260905125557 | 26 | 0 | 0.0 | 0.0 | 0.00 | 0.00 | 0.00 | 85 | 991.4 |
| 20260905125457 | 26 | 0 | 0.0 | 0.0 | 0.00 | 0.00 | 0.00 | 85 | 991.4 |
| 20260905125358 | 26 | 0 | 0.0 | 0.0 | 0.00 | 0.00 | 0.00 | 86 | 991.3 |
| 20260905125311 | 26 | 0 | 0.0 | 0.0 | 0.00 | 0.00 | 0.00 | 86 | 991.3 |
| 20260905125244 | 26 | 0 | 0.0 | 0.0 | 0.00 | 0.00 | 0.00 | 86 | 991.3 |
| 20260905125130 | 25 | 0 | 0.0 | 0.0 | 0.00 | 0.00 | 0.00 | 86 | 991.3 |
| 20260905125029 | 25 | 0 | 0.0 | 0.0 | 0.00 | 0.00 | 0.00 | 86 | 991.3 |
| 20260905124929 | 25 | 0 | 0.0 | 0.0 | 0.00 | 0.00 | 0.00 | 86 | 991.3 |
| 20260905124829 | 25 | 0 | 0.0 | 0.0 | 0.00 | 0.00 | 0.00 | 86 | 991.2 |
| 20260905124757 | 25 | 0 | 0.0 | 0.0 | 0.00 | 0.00 | 0.00 | 86 | 991.2 |
| 20260905124729 | 25 | 0 | 0.0 | 0.0 | 0.00 | 0.00 | 0.00 | 87 | 991.2 |
| 20260905124630 | 25 | 0 | 0.0 | 0.0 | 0.00 | 0.00 | 0.00 | 87 | 991.2 |
| 20260905124529 | 25 | 0 | 0.0 | 0.0 | 0.00 | 0.00 | 0.00 | 87 | 991.2 |
| 20260905124429 | 25 | 0 | 0.0 | 0.0 | 0.00 | 0.00 | 0.00 | 87 | 991.2 |
| 20260905124330 | 25 | 0 | 0.0 | 0.0 | 0.00 | 0.00 | 0.00 | 87 | 991.2 |
| 20260905124256 | 25 | 0 | 0.0 | 0.0 | 0.00 | 0.00 | 0.00 | 87 | 991.2 |
| 20260905124229 | 25 | 0 | 0.0 | 0.0 | 0.00 | 0.00 | 0.00 | 88 | 991.2 |
| 20260905124129 | 25 | 0 | 0.0 | 0.0 | 0.00 | 0.00 | 0.00 | 88 | 991.2 |
| 20260905124030 | 25 | 0 | 0.0 | 0.0 | 0.00 | 0.00 | 0.00 | 88 | 991.2 |
| 20260905123931 | 25 | 0 | 0.0 | 0.0 | 0.00 | 0.00 | 0.00 | 88 | 991.2 |
| 20260905123830 | 25 | 0 | 0.0 | 0.0 | 0.00 | 0.00 | 0.00 | 88 | 991.2 |
| 20260905123757 | 25 | 0 | 0.0 | 0.0 | 0.00 | 0.00 | 0.00 | 88 | 991.2 |
| 20260905123730 | 25 | 0 | 0.0 | 0.0 | 0.00 | 0.00 | 0.00 | 88 | 991.1 |
| 20260905123629 | 25 | 0 | 0.0 | 0.0 | 0.00 | 0.00 | 0.00 | 88 | 991.2 |
| 20260905123529 | 25 | 0 | 0.0 | 0.0 | 0.00 | 0.00 | 0.00 | 89 | 991.2 |
| 20260905123429 | 25 | 0 | 0.0 | 0.0 | 0.00 | 0.00 | 0.00 | 89 | 991.2 |
| 20260905123329 | 25 | 0 | 0.0 | 0.0 | 0.00 | 0.00 | 0.00 | 89 | 991.2 |
| 20260905123229 | 25 | 0 | 0.0 | 0.0 | 0.00 | 0.00 | 0.00 | 89 | 991.2 |
| 20260905123129 | 25 | 0 | 0.0 | 0.0 | 0.00 | 0.00 | 0.00 | 90 | 991.2 |
| 20260905123031 | 25 | 0 | 0.0 | 0.0 | 0.00 | 0.00 | 0.00 | 90 | 991.2 |
| 20260905122929 | 25 | 0 | 0.0 | 0.0 | 0.00 | 0.00 | 0.00 | 90 | 991.2 |
| 20260905122830 | 25 | 0 | 0.0 | 0.0 | 0.00 | 0.00 | 0.00 | 90 | 991.2 |
| 20260905122730 | 25 | 0 | 0.0 | 0.0 | 0.00 | 0.00 | 0.00 | 90 | 991.2 |
| 20260905122630 | 25 | 0 | 0.0 | 0.0 | 0.00 | 0.00 | 0.00 | 90 | 991.2 |
| 20260905122529 | 25 | 0 | 0.0 | 0.0 | 0.00 | 0.00 | 0.00 | 90 | 991.2 |
| 20260905122431 | 25 | 0 | 0.0 | 0.0 | 0.00 | 0.00 | 0.00 | 90 | 991.2 |
| 20260905122329 | 25 | 0 | 0.0 | 0.0 | 0.00 | 0.00 | 0.00 | 90 | 991.1 |
| 20260905122229 | 25 | 0 | 0.0 | 0.0 | 0.00 | 0.00 | 0.00 | 90 | 991.1 |
| 20260905122129 | 25 | 0 | 0.0 | 0.0 | 0.00 | 0.00 | 0.00 | 90 | 991.1 |
| 20260905122036 | 25 | 0 | 0.0 | 0.0 | 0.00 | 0.00 | 0.00 | 91 | 991.1 |
| 20260905121930 | 25 | 0 | 0.0 | 0.0 | 0.00 | 0.00 | 0.00 | 91 | 991.1 |
| 20260905121829 | 25 | 0 | 0.0 | 0.0 | 0.00 | 0.00 | 0.00 | 91 | 991.1 |
| 20260905121734 | 25 | 0 | 0.0 | 0.0 | 0.00 | 0.00 | 0.00 | 91 | 991.1 |
| 20260905121630 | 25 | 0 | 0.0 | 0.0 | 0.00 | 0.00 | 0.00 | 91 | 991.1 |
| 20260905121530 | 25 | 0 | 0.0 | 0.0 | 0.00 | 0.00 | 0.00 | 91 | 991.1 |
| 20260905121516 | 25 | 0 | 0.0 | 0.0 | 0.00 | 0.00 | 0.00 | 91 | 991.1 |
| 20260905121430 | 25 | 0 | 0.0 | 0.0 | 0.00 | 0.00 | 0.00 | 91 | 991.1 |
| 20260905121412 | 25 | 0 | 0.0 | 0.0 | 0.00 | 0.00 | 0.00 | 91 | 991.1 |
| 20260905121233 | 25 | 0 | 0.0 | 0.0 | 0.00 | 0.00 | 0.00 | 91 | 991.1 |
| 20260905121130 | 25 | 0 | 0.0 | 0.0 | 0.00 | 0.00 | 0.00 | 91 | 991.1 |
| 20260905121030 | 25 | 0 | 0.0 | 0.0 | 0.00 | 0.00 | 0.00 | 91 | 991.0 |
| 20260905120932 | 25 | 0 | 0.0 | 0.0 | 0.00 | 0.00 | 0.00 | 91 | 991.0 |
| 20260905120830 | 25 | 0 | 0.0 | 0.0 | 0.00 | 0.00 | 0.00 | 91 | 991.0 |
| 20260905120730 | 25 | 0 | 0.0 | 0.0 | 0.00 | 0.00 | 0.00 | 91 | 991.0 |
| 20260905120630 | 25 | 0 | 0.0 | 0.0 | 0.00 | 0.00 | 0.00 | 91 | 991.0 |
| 20260905120534 | 25 | 0 | 0.0 | 0.0 | 0.00 | 0.00 | 0.00 | 91 | 991.0 |
| 20260905120430 | 25 | 0 | 0.0 | 0.0 | 0.00 | 0.00 | 0.00 | 91 | 991.0 |
| 20260905120330 | 25 | 0 | 0.0 | 0.0 | 0.00 | 0.00 | 0.00 | 91 | 991.0 |
| 20260905120230 | 25 | 0 | 0.0 | 0.0 | 0.00 | 0.00 | 0.00 | 91 | 991.0 |
| 20260905120130 | 25 | 0 | 0.0 | 0.0 | 0.00 | 0.00 | 0.00 | 91 | 991.1 |
| 20260905120031 | 25 | 0 | 0.0 | 0.0 | 0.00 | 0.00 | 0.00 | 91 | 991.1 |
| 20260905120022 | 25 | 0 | 0.0 | 0.0 | 0.00 | 0.00 | 0.00 | 91 | 991.0 |
| 20260905115930 | 25 | 0 | 0.0 | 0.0 | 0.00 | 0.00 | 0.00 | 91 | 991.1 |
| 20260905115912 | 25 | 0 | 0.0 | 0.0 | 0.00 | 0.00 | 0.00 | 91 | 991.0 |
| 20260905115730 | 25 | 0 | 0.0 | 0.0 | 0.00 | 0.00 | 0.00 | 91 | 991.0 |
| 20260905115630 | 25 | 0 | 0.0 | 0.0 | 0.00 | 0.00 | 0.00 | 91 | 991.0 |
| 20260905115518 | 25 | 0 | 0.0 | 0.0 | 0.00 | 0.00 | 0.00 | 91 | 991.0 |
| 20260905115404 | 25 | 0 | 0.0 | 0.0 | 0.00 | 0.00 | 0.00 | 92 | 991.0 |
| 20260905115306 | 25 | 0 | 0.0 | 0.0 | 0.00 | 0.00 | 0.00 | 92 | 991.0 |
| 20260905115242 | 25 | 0 | 0.0 | 0.0 | 0.00 | 0.00 | 0.00 | 92 | 990.9 |
| 20260905115204 | 25 | 0 | 0.0 | 0.0 | 0.00 | 0.00 | 0.00 | 92 | 990.9 |
| 20260905115103 | 25 | 0 | 0.0 | 0.0 | 0.00 | 0.00 | 0.00 | 92 | 990.9 |
| 20260905115004 | 25 | 0 | 0.0 | 0.0 | 0.00 | 0.00 | 0.00 | 92 | 990.9 |
| 20260905114903 | 25 | 0 | 0.0 | 0.0 | 0.00 | 0.00 | 0.00 | 92 | 990.9 |
| 20260905114803 | 25 | 0 | 0.0 | 0.0 | 0.00 | 0.00 | 0.00 | 92 | 990.9 |
| 20260905114743 | 25 | 0 | 0.0 | 0.0 | 0.00 | 0.00 | 0.00 | 92 | 990.9 |
| 20260905114703 | 25 | 0 | 0.0 | 0.0 | 0.00 | 0.00 | 0.00 | 92 | 990.9 |
| 20260905114603 | 25 | 0 | 0.0 | 0.0 | 0.00 | 0.00 | 0.00 | 92 | 990.9 |
| 20260905114504 | 25 | 0 | 0.0 | 0.0 | 0.00 | 0.00 | 0.00 | 92 | 990.8 |
| 20260905114403 | 25 | 0 | 0.0 | 0.0 | 0.00 | 0.00 | 0.00 | 92 | 990.8 |
| 20260905114304 | 25 | 0 | 0.0 | 0.0 | 0.00 | 0.00 | 0.00 | 92 | 990.8 |
| 20260905114242 | 25 | 0 | 0.0 | 0.0 | 0.00 | 0.00 | 0.00 | 91 | 990.8 |
| 20260905114203 | 25 | 0 | 0.0 | 0.0 | 0.00 | 0.00 | 0.00 | 91 | 990.8 |
| 20260905114104 | 25 | 0 | 0.0 | 0.0 | 0.00 | 0.00 | 0.00 | 91 | 990.8 |
| 20260905114003 | 25 | 0 | 0.0 | 0.0 | 0.00 | 0.00 | 0.00 | 91 | 990.8 |
| 20260905113904 | 25 | 0 | 0.0 | 0.0 | 0.00 | 0.00 | 0.00 | 91 | 990.8 |
| 20260905113743 | 25 | 0 | 0.0 | 0.0 | 0.00 | 0.00 | 0.00 | 91 | 990.8 |
| 20260905113704 | 25 | 0 | 0.0 | 0.0 | 0.00 | 0.00 | 0.00 | 91 | 990.8 |
| 20260905113603 | 25 | 0 | 0.0 | 0.0 | 0.00 | 0.00 | 0.00 | 91 | 990.8 |
| 20260905113504 | 25 | 0 | 0.0 | 0.0 | 0.00 | 0.00 | 0.00 | 91 | 990.8 |
| 20260905113404 | 25 | 0 | 0.0 | 0.0 | 0.00 | 0.00 | 0.00 | 91 | 990.8 |
| 20260905113243 | 25 | 0 | 0.0 | 0.0 | 0.00 | 0.00 | 0.00 | 91 | 990.8 |
| 20260905113203 | 25 | 0 | 0.0 | 0.0 | 0.00 | 0.00 | 0.00 | 91 | 990.8 |
| 20260905113103 | 25 | 0 | 0.0 | 0.0 | 0.00 | 0.00 | 0.00 | 91 | 990.8 |
| 20260905113004 | 25 | 0 | 0.0 | 0.0 | 0.00 | 0.00 | 0.00 | 91 | 990.8 |
| 20260905112903 | 25 | 0 | 0.0 | 0.0 | 0.00 | 0.00 | 0.00 | 91 | 990.8 |
| 20260905112743 | 25 | 0 | 0.0 | 0.0 | 0.00 | 0.00 | 0.00 | 91 | 990.8 |
| 20260905112707 | 25 | 0 | 0.0 | 0.0 | 0.00 | 0.00 | 0.00 | 91 | 990.8 |
| 20260905112603 | 25 | 0 | 0.0 | 0.0 | 0.00 | 0.00 | 0.00 | 91 | 990.8 |
| 20260905112502 | 25 | 0 | 0.0 | 0.0 | 0.00 | 0.00 | 0.00 | 91 | 990.8 |
| 20260905112402 | 25 | 0 | 0.0 | 0.0 | 0.00 | 0.00 | 0.00 | 91 | 990.7 |
| 20260905112243 | 25 | 0 | 0.0 | 0.0 | 0.00 | 0.00 | 0.00 | 91 | 990.7 |
| 20260905112202 | 25 | 0 | 0.0 | 0.0 | 0.00 | 0.00 | 0.00 | 91 | 990.7 |
| 20260905112102 | 25 | 0 | 0.0 | 0.0 | 0.00 | 0.00 | 0.00 | 91 | 990.7 |
| 20260905112003 | 25 | 0 | 0.0 | 0.0 | 0.00 | 0.00 | 0.00 | 91 | 990.7 |
| 20260905111903 | 25 | 0 | 0.0 | 0.0 | 0.00 | 0.00 | 0.00 | 91 | 990.7 |
| 20260905111744 | 25 | 0 | 0.0 | 0.0 | 0.00 | 0.00 | 0.00 | 91 | 990.7 |
| 20260905111703 | 25 | 0 | 0.0 | 0.0 | 0.00 | 0.00 | 0.00 | 91 | 990.6 |
| 20260905111602 | 25 | 0 | 0.0 | 0.0 | 0.00 | 0.00 | 0.00 | 91 | 990.6 |
| 20260905111503 | 25 | 0 | 0.0 | 0.0 | 0.00 | 0.00 | 0.00 | 91 | 990.6 |
| 20260905111402 | 25 | 0 | 0.0 | 0.0 | 0.00 | 0.00 | 0.00 | 91 | 990.6 |
| 20260905111243 | 25 | 0 | 0.0 | 0.0 | 0.00 | 0.00 | 0.00 | 91 | 990.6 |
| 20260905111203 | 25 | 0 | 0.0 | 0.0 | 0.00 | 0.00 | 0.00 | 91 | 990.6 |
| 20260905111102 | 25 | 0 | 0.0 | 0.0 | 0.00 | 0.00 | 0.00 | 91 | 990.6 |
| 20260905111003 | 25 | 0 | 0.0 | 0.0 | 0.00 | 0.00 | 0.00 | 91 | 990.7 |
| 20260905110850 | 25 | 0 | 0.0 | 0.0 | 0.00 | 0.00 | 0.00 | 91 | 990.7 |
| 20260905110749 | 25 | 0 | 0.0 | 1.6 | 0.00 | 0.00 | 0.00 | 91 | 990.7 |
| 20260905110649 | 25 | 0 | 0.0 | 1.6 | 0.00 | 0.00 | 0.00 | 91 | 990.6 |
| 20260905110549 | 25 | 0 | 0.0 | 1.6 | 0.00 | 0.00 | 0.00 | 91 | 990.6 |
| 20260905110449 | 25 | 0 | 0.0 | 1.6 | 0.00 | 0.00 | 0.00 | 91 | 990.6 |
| 20260905110349 | 25 | 0 | 0.0 | 1.6 | 0.00 | 0.00 | 0.00 | 91 | 990.6 |
| 20260905110249 | 25 | 0 | 0.0 | 1.6 | 0.00 | 0.00 | 0.00 | 91 | 990.6 |
| 20260905110149 | 25 | 0 | 0.0 | 1.6 | 0.00 | 0.00 | 0.00 | 91 | 990.6 |
| 20260905110050 | 25 | 0 | 0.0 | 1.6 | 0.00 | 0.00 | 0.00 | 91 | 990.6 |
| 20260905105949 | 25 | 0 | 0.0 | 1.6 | 0.00 | 0.00 | 0.00 | 91 | 990.6 |
| 20260905105849 | 25 | 0 | 0.0 | 1.6 | 0.00 | 0.00 | 0.00 | 91 | 990.6 |
| 20260905105735 | 25 | 0 | 0.0 | 1.6 | 0.00 | 0.00 | 0.00 | 91 | 990.6 |
| 20260905105637 | 25 | 0 | 0.0 | 0.0 | 0.00 | 0.00 | 0.00 | 91 | 990.6 |
| 20260905105522 | 25 | 0 | 0.0 | 0.0 | 0.00 | 0.00 | 0.00 | 91 | 990.6 |
| 20260905105446 | 25 | 0 | 0.0 | 0.0 | 0.00 | 0.00 | 0.00 | 90 | 990.6 |
| 20260905105416 | 25 | 0 | 0.0 | 0.0 | 0.00 | 0.00 | 0.00 | 91 | 990.6 |
| 20260905105344 | 25 | 0 | 0.0 | 0.0 | 0.00 | 0.00 | 0.00 | 90 | 990.6 |
| 20260905105216 | 25 | 0 | 0.0 | 0.0 | 0.00 | 0.00 | 0.00 | 90 | 990.6 |
| 20260905105116 | 25 | 0 | 0.0 | 0.0 | 0.00 | 0.00 | 0.00 | 90 | 990.6 |
| 20260905105016 | 25 | 0 | 0.0 | 0.0 | 0.00 | 0.00 | 0.00 | 90 | 990.6 |
| 20260905104917 | 25 | 0 | 0.0 | 0.0 | 0.00 | 0.00 | 0.00 | 90 | 990.6 |
| 20260905104816 | 25 | 0 | 0.0 | 0.0 | 0.00 | 0.00 | 0.00 | 90 | 990.6 |
| 20260905104717 | 25 | 0 | 0.0 | 0.0 | 0.00 | 0.00 | 0.00 | 90 | 990.6 |
| 20260905104617 | 25 | 0 | 0.0 | 0.0 | 0.00 | 0.00 | 0.00 | 90 | 990.6 |
| 20260905104516 | 25 | 0 | 0.0 | 0.0 | 0.00 | 0.00 | 0.00 | 90 | 990.6 |
| 20260905104416 | 25 | 0 | 0.0 | 0.0 | 0.00 | 0.00 | 0.00 | 90 | 990.6 |
| 20260905104316 | 25 | 0 | 0.0 | 0.0 | 0.00 | 0.00 | 0.00 | 90 | 990.6 |
| 20260905104225 | 25 | 0 | 0.0 | 0.0 | 0.00 | 0.00 | 0.00 | 90 | 990.7 |
| 20260905104116 | 25 | 0 | 0.0 | 0.0 | 0.00 | 0.00 | 0.00 | 90 | 990.7 |
| 20260905104017 | 25 | 0 | 0.0 | 0.0 | 0.00 | 0.00 | 0.00 | 90 | 990.7 |
| 20260905103916 | 25 | 0 | 0.0 | 0.0 | 0.00 | 0.00 | 0.00 | 90 | 990.7 |
| 20260905103817 | 25 | 0 | 0.0 | 0.0 | 0.00 | 0.00 | 0.00 | 90 | 990.7 |
| 20260905103717 | 25 | 0 | 0.0 | 0.0 | 0.00 | 0.00 | 0.00 | 90 | 990.7 |
| 20260905103617 | 25 | 0 | 0.0 | 0.0 | 0.00 | 0.00 | 0.00 | 90 | 990.7 |
| 20260905103516 | 25 | 0 | 0.0 | 0.0 | 0.00 | 0.00 | 0.00 | 90 | 990.7 |
| 20260905103416 | 25 | 0 | 0.0 | 0.0 | 0.00 | 0.00 | 0.00 | 90 | 990.7 |
| 20260905103316 | 25 | 0 | 0.0 | 0.0 | 0.00 | 0.00 | 0.00 | 90 | 990.7 |
| 20260905103222 | 25 | 0 | 0.0 | 0.0 | 0.00 | 0.00 | 0.00 | 90 | 990.6 |
| 20260905103216 | 25 | 0 | 0.0 | 0.0 | 0.00 | 0.00 | 0.00 | 90 | 990.7 |
| 20260905103121 | 25 | 0 | 0.0 | 0.0 | 0.00 | 0.00 | 0.00 | 90 | 990.7 |
| 20260905103109 | 25 | 0 | 0.0 | 0.0 | 0.00 | 0.00 | 0.00 | 90 | 990.7 |
| 20260905102917 | 25 | 0 | 0.0 | 0.0 | 0.00 | 0.00 | 0.00 | 90 | 990.7 |
| 20260905102845 | 25 | 0 | 0.0 | 0.0 | 0.00 | 0.00 | 0.00 | 90 | 990.7 |
| 20260905102717 | 25 | 0 | 0.0 | 0.0 | 0.00 | 0.00 | 0.00 | 90 | 990.6 |
| 20260905102616 | 25 | 0 | 0.0 | 0.0 | 0.00 | 0.00 | 0.00 | 90 | 990.6 |
| 20260905102516 | 25 | 0 | 0.0 | 0.0 | 0.00 | 0.00 | 0.00 | 90 | 990.6 |
| 20260905102417 | 25 | 0 | 0.0 | 0.0 | 0.00 | 0.00 | 0.00 | 90 | 990.6 |
| 20260905102317 | 25 | 0 | 0.0 | 0.0 | 0.00 | 0.00 | 0.00 | 90 | 990.6 |
| 20260905102216 | 25 | 0 | 0.0 | 0.0 | 0.00 | 0.00 | 0.00 | 90 | 990.7 |
| 20260905102117 | 25 | 0 | 0.0 | 0.0 | 0.00 | 0.00 | 0.00 | 90 | 990.7 |
| 20260905102017 | 25 | 0 | 0.0 | 0.0 | 0.00 | 0.00 | 0.00 | 90 | 990.7 |
| 20260905101917 | 25 | 0 | 0.0 | 0.0 | 0.00 | 0.00 | 0.00 | 90 | 990.7 |
| 20260905101817 | 25 | 0 | 0.0 | 0.0 | 0.00 | 0.00 | 0.00 | 90 | 990.7 |
| 20260905101717 | 25 | 0 | 0.0 | 0.0 | 0.00 | 0.00 | 0.00 | 90 | 990.7 |
| 20260905101617 | 25 | 0 | 0.0 | 0.0 | 0.00 | 0.00 | 0.00 | 90 | 990.7 |
| 20260905101517 | 25 | 0 | 0.0 | 0.0 | 0.00 | 0.00 | 0.00 | 90 | 990.7 |
| 20260905101417 | 25 | 0 | 0.0 | 0.0 | 0.00 | 0.00 | 0.00 | 90 | 990.7 |
| 20260905101317 | 25 | 0 | 0.0 | 0.0 | 0.00 | 0.00 | 0.00 | 90 | 990.7 |
| 20260905101216 | 25 | 0 | 0.0 | 0.0 | 0.00 | 0.00 | 0.00 | 90 | 990.8 |
| 20260905101117 | 25 | 0 | 0.0 | 0.0 | 0.00 | 0.00 | 0.00 | 90 | 990.8 |
| 20260905101017 | 25 | 0 | 0.0 | 0.0 | 0.00 | 0.00 | 0.00 | 90 | 990.8 |
| 20260905100952 | 25 | 0 | 0.0 | 0.0 | 0.00 | 0.00 | 0.00 | 90 | 990.8 |
| 20260905100917 | 25 | 0 | 0.0 | 0.0 | 0.00 | 0.00 | 0.00 | 90 | 990.8 |
| 20260905100845 | 25 | 0 | 0.0 | 0.0 | 0.00 | 0.00 | 0.00 | 90 | 990.8 |
| 20260905100717 | 25 | 0 | 0.0 | 0.0 | 0.00 | 0.00 | 0.00 | 90 | 990.8 |
| 20260905100617 | 25 | 0 | 0.0 | 0.0 | 0.00 | 0.00 | 0.00 | 90 | 990.8 |
| 20260905100517 | 25 | 0 | 0.0 | 0.0 | 0.00 | 0.00 | 0.00 | 90 | 990.8 |
| 20260905100417 | 25 | 0 | 0.0 | 0.0 | 0.00 | 0.00 | 0.00 | 90 | 990.8 |
| 20260905100317 | 25 | 0 | 0.0 | 0.0 | 0.00 | 0.00 | 0.00 | 90 | 990.8 |
| 20260905100217 | 25 | 0 | 0.0 | 0.0 | 0.00 | 0.00 | 0.00 | 90 | 990.8 |
| 20260905100117 | 25 | 0 | 0.0 | 0.0 | 0.00 | 0.00 | 0.00 | 90 | 990.8 |
| 20260905100017 | 25 | 0 | 0.0 | 0.0 | 0.00 | 0.00 | 0.00 | 90 | 990.8 |
| 20260905095953 | 25 | 0 | 0.0 | 0.0 | 0.00 | 0.00 | 0.00 | 90 | 990.8 |
| 20260905095917 | 25 | 0 | 0.0 | 0.0 | 0.00 | 0.00 | 0.00 | 90 | 990.8 |
| 20260905095844 | 25 | 0 | 0.0 | 0.0 | 0.00 | 0.00 | 0.00 | 90 | 990.8 |
| 20260905095717 | 25 | 0 | 0.0 | 0.0 | 0.00 | 0.00 | 0.00 | 90 | 990.8 |
| 20260905095603 | 25 | 0 | 0.0 | 0.0 | 0.00 | 0.00 | 0.00 | 90 | 990.8 |
| 20260905095503 | 25 | 0 | 0.0 | 0.0 | 0.00 | 0.00 | 0.00 | 90 | 990.8 |
| 20260905095404 | 25 | 0 | 0.0 | 0.0 | 0.00 | 0.00 | 0.00 | 90 | 990.8 |
| 20260905095305 | 25 | 0 | 0.0 | 0.0 | 0.00 | 0.00 | 0.00 | 90 | 990.7 |
| 20260905095221 | 25 | 0 | 0.0 | 0.0 | 0.00 | 0.00 | 0.00 | 90 | 990.7 |
| 20260905095203 | 25 | 0 | 0.0 | 0.0 | 0.00 | 0.00 | 0.00 | 90 | 990.7 |
| 20260905095103 | 25 | 0 | 0.0 | 0.0 | 0.00 | 0.00 | 0.00 | 90 | 990.7 |
| 20260905095003 | 25 | 0 | 0.0 | 0.0 | 0.00 | 0.00 | 0.00 | 90 | 990.7 |
| 20260905094903 | 25 | 0 | 0.0 | 0.0 | 0.00 | 0.00 | 0.00 | 90 | 990.7 |
| 20260905094803 | 25 | 0 | 0.0 | 0.0 | 0.00 | 0.00 | 0.00 | 90 | 990.7 |
| 20260905094718 | 25 | 0 | 0.0 | 0.0 | 0.00 | 0.00 | 0.00 | 90 | 990.7 |
| 20260905094703 | 25 | 0 | 0.0 | 0.0 | 0.00 | 0.00 | 0.00 | 90 | 990.7 |
| 20260905094603 | 25 | 0 | 0.0 | 0.0 | 0.00 | 0.00 | 0.00 | 90 | 990.7 |
| 20260905094503 | 25 | 0 | 0.0 | 0.0 | 0.00 | 0.00 | 0.00 | 90 | 990.7 |
| 20260905094403 | 25 | 0 | 0.0 | 0.0 | 0.00 | 0.00 | 0.00 | 90 | 990.7 |
| 20260905094303 | 25 | 0 | 0.0 | 0.0 | 0.00 | 0.00 | 0.00 | 90 | 990.7 |
| 20260905094222 | 25 | 0 | 0.0 | 0.0 | 0.00 | 0.00 | 0.00 | 90 | 990.7 |
| 20260905094203 | 25 | 0 | 0.0 | 0.0 | 0.00 | 0.00 | 0.00 | 90 | 990.7 |
| 20260905094103 | 25 | 0 | 0.0 | 0.0 | 0.00 | 0.00 | 0.00 | 89 | 990.7 |
| 20260905094003 | 25 | 0 | 0.0 | 0.0 | 0.00 | 0.00 | 0.00 | 89 | 990.7 |
| 20260905093903 | 25 | 0 | 0.0 | 1.6 | 0.00 | 0.00 | 0.00 | 89 | 990.7 |
| 20260905093804 | 25 | 0 | 0.0 | 1.6 | 0.00 | 0.00 | 0.00 | 89 | 990.7 |
| 20260905093717 | 25 | 0 | 0.0 | 1.6 | 0.00 | 0.00 | 0.00 | 89 | 990.7 |
| 20260905093703 | 25 | 0 | 0.0 | 1.6 | 0.00 | 0.00 | 0.00 | 89 | 990.7 |
| 20260905093603 | 25 | 0 | 0.0 | 1.6 | 0.00 | 0.00 | 0.00 | 89 | 990.7 |
| 20260905093502 | 25 | 0 | 0.0 | 1.6 | 0.00 | 0.00 | 0.00 | 89 | 990.7 |
| 20260905093403 | 25 | 0 | 0.0 | 1.6 | 0.00 | 0.00 | 0.00 | 89 | 990.7 |
| 20260905093334 | 25 | 0 | 0.0 | 1.6 | 0.00 | 0.00 | 0.00 | 89 | 990.7 |
| 20260905093221 | 25 | 0 | 0.0 | 1.6 | 0.00 | 0.00 | 0.00 | 89 | 990.7 |
| 20260905093203 | 25 | 0 | 0.0 | 1.6 | 0.00 | 0.00 | 0.00 | 89 | 990.7 |
| 20260905093103 | 25 | 351 | 0.0 | 1.6 | 0.00 | 0.00 | 0.00 | 89 | 990.7 |
| 20260905093001 | 25 | 351 | 0.0 | 1.6 | 0.00 | 0.00 | 0.00 | 89 | 990.7 |
| 20260905092901 | 25 | 0 | 0.0 | 0.0 | 0.00 | 0.00 | 0.00 | 89 | 990.7 |
| 20260905092801 | 25 | 0 | 0.0 | 0.0 | 0.00 | 0.00 | 0.00 | 89 | 990.7 |
| 20260905092721 | 25 | 0 | 0.0 | 0.0 | 0.00 | 0.00 | 0.00 | 89 | 990.7 |
| 20260905092701 | 25 | 0 | 0.0 | 0.0 | 0.00 | 0.00 | 0.00 | 89 | 990.7 |
| 20260905092601 | 25 | 0 | 0.0 | 0.0 | 0.00 | 0.00 | 0.00 | 89 | 990.7 |
| 20260905092501 | 25 | 0 | 0.0 | 0.0 | 0.00 | 0.00 | 0.00 | 89 | 990.7 |
| 20260905092401 | 25 | 0 | 0.0 | 0.0 | 0.00 | 0.00 | 0.00 | 89 | 990.7 |
| 20260905092301 | 25 | 0 | 0.0 | 0.0 | 0.00 | 0.00 | 0.00 | 88 | 990.7 |
| 20260905092219 | 25 | 0 | 0.0 | 0.0 | 0.00 | 0.00 | 0.00 | 88 | 990.7 |
| 20260905092202 | 25 | 0 | 0.0 | 0.0 | 0.00 | 0.00 | 0.00 | 88 | 990.7 |
| 20260905092101 | 25 | 0 | 0.0 | 0.0 | 0.00 | 0.00 | 0.00 | 88 | 990.7 |
| 20260905092001 | 25 | 0 | 0.0 | 0.0 | 0.00 | 0.00 | 0.00 | 88 | 990.7 |
| 20260905091902 | 25 | 8 | 0.0 | 0.0 | 0.00 | 0.00 | 0.00 | 88 | 990.7 |
| 20260905091802 | 25 | 0 | 0.0 | 0.0 | 0.00 | 0.00 | 0.00 | 88 | 990.7 |
| 20260905091719 | 25 | 0 | 0.0 | 0.0 | 0.00 | 0.00 | 0.00 | 88 | 990.7 |
| 20260905091701 | 25 | 0 | 0.0 | 0.0 | 0.00 | 0.00 | 0.00 | 88 | 990.7 |
| 20260905091602 | 25 | 0 | 0.0 | 0.0 | 0.00 | 0.00 | 0.00 | 88 | 990.7 |
| 20260905091502 | 25 | 0 | 0.0 | 0.0 | 0.00 | 0.00 | 0.00 | 88 | 990.7 |
| 20260905091402 | 25 | 0 | 0.0 | 0.0 | 0.00 | 0.00 | 0.00 | 88 | 990.7 |
| 20260905091301 | 25 | 0 | 0.0 | 0.0 | 0.00 | 0.00 | 0.00 | 88 | 990.7 |
| 20260905091219 | 25 | 0 | 0.0 | 0.0 | 0.00 | 0.00 | 0.00 | 88 | 990.7 |
| 20260905091201 | 25 | 0 | 0.0 | 0.0 | 0.00 | 0.00 | 0.00 | 88 | 990.7 |
| 20260905091101 | 26 | 0 | 0.0 | 0.0 | 0.00 | 0.00 | 0.00 | 88 | 990.7 |
| 20260905091002 | 26 | 0 | 0.0 | 0.0 | 0.00 | 0.00 | 0.00 | 88 | 990.7 |
| 20260905090902 | 26 | 0 | 0.0 | 0.0 | 0.00 | 0.00 | 0.00 | 88 | 990.7 |
| 20260905090802 | 26 | 0 | 0.0 | 0.0 | 0.00 | 0.00 | 0.00 | 88 | 990.7 |
| 20260905090718 | 26 | 0 | 0.0 | 0.0 | 0.00 | 0.00 | 0.00 | 88 | 990.7 |
| 20260905090701 | 26 | 0 | 0.0 | 0.0 | 0.00 | 0.00 | 0.00 | 88 | 990.7 |
| 20260905090602 | 26 | 0 | 0.0 | 0.0 | 0.00 | 0.00 | 0.00 | 88 | 990.6 |
| 20260905090501 | 26 | 0 | 0.0 | 0.0 | 0.00 | 0.00 | 0.00 | 88 | 990.6 |
| 20260905090402 | 26 | 0 | 0.0 | 0.0 | 0.00 | 0.00 | 0.00 | 88 | 990.6 |
| 20260905090302 | 26 | 0 | 0.0 | 0.0 | 0.00 | 0.00 | 0.00 | 88 | 990.6 |
| 20260905090219 | 26 | 0 | 0.0 | 0.0 | 0.00 | 0.00 | 0.00 | 88 | 990.6 |
| 20260905090201 | 26 | 0 | 0.0 | 0.0 | 0.00 | 0.00 | 0.00 | 88 | 990.6 |
| 20260905090002 | 26 | 0 | 0.0 | 0.0 | 0.00 | 0.00 | 0.00 | 88 | 990.7 |
| 20260905085902 | 26 | 0 | 0.0 | 0.0 | 0.00 | 0.00 | 0.00 | 88 | 990.7 |
| 20260905085752 | 26 | 0 | 0.0 | 0.0 | 0.00 | 0.00 | 0.00 | 88 | 990.7 |
| 20260905085708 | 26 | 0 | 0.0 | 0.0 | 0.00 | 0.00 | 0.00 | 88 | 990.7 |
| 20260905085646 | 26 | 0 | 0.0 | 0.0 | 0.00 | 0.00 | 0.00 | 88 | 990.8 |
| 20260905085546 | 26 | 0 | 0.0 | 0.0 | 0.00 | 0.00 | 0.00 | 88 | 990.8 |
| 20260905085445 | 26 | 0 | 0.0 | 0.0 | 0.00 | 0.00 | 0.00 | 88 | 990.8 |
| 20260905085346 | 26 | 0 | 0.0 | 0.0 | 0.00 | 0.00 | 0.00 | 88 | 990.8 |
| 20260905085245 | 26 | 0 | 0.0 | 0.0 | 0.00 | 0.00 | 0.00 | 88 | 990.8 |
| 20260905085203 | 26 | 0 | 0.0 | 0.0 | 0.00 | 0.00 | 0.00 | 88 | 990.8 |
| 20260905085146 | 26 | 0 | 0.0 | 0.0 | 0.00 | 0.00 | 0.00 | 88 | 990.8 |
| 20260905085045 | 26 | 0 | 0.0 | 0.0 | 0.00 | 0.00 | 0.00 | 88 | 990.8 |
| 20260905084946 | 26 | 0 | 0.0 | 0.0 | 0.00 | 0.00 | 0.00 | 88 | 990.8 |
| 20260905084846 | 26 | 0 | 0.0 | 0.0 | 0.00 | 0.00 | 0.00 | 88 | 990.8 |
| 20260905084745 | 26 | 0 | 0.0 | 0.0 | 0.00 | 0.00 | 0.00 | 88 | 990.9 |
| 20260905084704 | 26 | 0 | 0.0 | 0.0 | 0.00 | 0.00 | 0.00 | 88 | 990.9 |
| 20260905084646 | 26 | 0 | 0.0 | 0.0 | 0.00 | 0.00 | 0.00 | 88 | 990.8 |
| 20260905084546 | 26 | 0 | 0.0 | 0.0 | 0.00 | 0.00 | 0.00 | 88 | 990.9 |
| 20260905084446 | 26 | 0 | 0.0 | 0.0 | 0.00 | 0.00 | 0.00 | 88 | 990.9 |
| 20260905084346 | 26 | 0 | 0.0 | 0.0 | 0.00 | 0.00 | 0.00 | 88 | 990.8 |
| 20260905084245 | 26 | 0 | 0.0 | 0.0 | 0.00 | 0.00 | 0.00 | 88 | 990.8 |
| 20260905084204 | 26 | 0 | 0.0 | 0.0 | 0.00 | 0.00 | 0.00 | 88 | 990.8 |
| 20260905084145 | 26 | 0 | 0.0 | 0.0 | 0.00 | 0.00 | 0.00 | 88 | 990.8 |
| 20260905084046 | 26 | 0 | 0.0 | 0.0 | 0.00 | 0.00 | 0.00 | 88 | 990.8 |
| 20260905083946 | 26 | 0 | 0.0 | 0.0 | 0.00 | 0.00 | 0.00 | 87 | 990.8 |
| 20260905083846 | 26 | 0 | 0.0 | 0.0 | 0.00 | 0.00 | 0.00 | 87 | 990.8 |
| 20260905083746 | 26 | 0 | 0.0 | 0.0 | 0.00 | 0.00 | 0.00 | 87 | 990.8 |
| 20260905083704 | 26 | 0 | 0.0 | 0.0 | 0.00 | 0.00 | 0.00 | 87 | 990.8 |
| 20260905083645 | 26 | 0 | 0.0 | 0.0 | 0.00 | 0.00 | 0.00 | 87 | 990.9 |
| 20260905083546 | 26 | 0 | 0.0 | 0.0 | 0.00 | 0.00 | 0.00 | 87 | 990.9 |
| 20260905083446 | 26 | 0 | 0.0 | 0.0 | 0.00 | 0.00 | 0.00 | 87 | 990.9 |
| 20260905083426 | 26 | 0 | 0.0 | 0.0 | 0.00 | 0.00 | 0.00 | 87 | 990.9 |
| 20260905083346 | 26 | 0 | 0.0 | 0.0 | 0.00 | 0.00 | 0.00 | 87 | 990.9 |
| 20260905083315 | 26 | 0 | 0.0 | 0.0 | 0.00 | 0.00 | 0.00 | 87 | 990.9 |
| 20260905083146 | 26 | 0 | 0.0 | 0.0 | 0.00 | 0.00 | 0.00 | 87 | 990.9 |
| 20260905083046 | 26 | 0 | 0.0 | 0.0 | 0.00 | 0.00 | 0.00 | 87 | 990.8 |
| 20260905082946 | 26 | 0 | 0.0 | 0.0 | 0.00 | 0.00 | 0.00 | 87 | 990.8 |
| 20260905082846 | 26 | 0 | 0.0 | 0.0 | 0.00 | 0.00 | 0.00 | 87 | 990.8 |
| 20260905082747 | 26 | 0 | 0.0 | 0.0 | 0.00 | 0.00 | 0.00 | 87 | 990.8 |
| 20260905082647 | 26 | 0 | 0.0 | 0.0 | 0.00 | 0.00 | 0.00 | 87 | 990.8 |
| 20260905082546 | 26 | 0 | 0.0 | 0.0 | 0.00 | 0.00 | 0.00 | 87 | 990.8 |
| 20260905082446 | 26 | 0 | 0.0 | 0.0 | 0.00 | 0.00 | 0.00 | 87 | 990.8 |
| 20260905082346 | 26 | 0 | 0.0 | 0.0 | 0.00 | 0.00 | 0.00 | 87 | 990.8 |
| 20260905082246 | 26 | 0 | 0.0 | 0.0 | 0.00 | 0.00 | 0.00 | 87 | 990.8 |
| 20260905082146 | 26 | 0 | 0.0 | 0.0 | 0.00 | 0.00 | 0.00 | 87 | 990.8 |
| 20260905082046 | 26 | 0 | 0.0 | 0.0 | 0.00 | 0.00 | 0.00 | 87 | 990.8 |
| 20260905081946 | 26 | 0 | 0.0 | 0.0 | 0.00 | 0.00 | 0.00 | 87 | 990.8 |
| 20260905081846 | 26 | 0 | 0.0 | 0.0 | 0.00 | 0.00 | 0.00 | 87 | 990.8 |
| 20260905081746 | 26 | 0 | 0.0 | 0.0 | 0.00 | 0.00 | 0.00 | 87 | 990.9 |
| 20260905081647 | 26 | 0 | 0.0 | 0.0 | 0.00 | 0.00 | 0.00 | 87 | 990.9 |
| 20260905081643 | 26 | 0 | 0.0 | 0.0 | 0.00 | 0.00 | 0.00 | 87 | 990.9 |
| 20260905081551 | 26 | 0 | 0.0 | 0.0 | 0.00 | 0.00 | 0.00 | 87 | 990.9 |
| 20260905081535 | 26 | 0 | 0.0 | 0.0 | 0.00 | 0.00 | 0.00 | 87 | 990.9 |
| 20260905081346 | 26 | 0 | 0.0 | 0.0 | 0.00 | 0.00 | 0.00 | 87 | 990.9 |
| 20260905081316 | 26 | 0 | 0.0 | 0.0 | 0.00 | 0.00 | 0.00 | 87 | 990.9 |
| 20260905081147 | 26 | 0 | 0.0 | 0.0 | 0.00 | 0.00 | 0.00 | 87 | 990.9 |
| 20260905081046 | 26 | 0 | 0.0 | 0.0 | 0.00 | 0.00 | 0.00 | 87 | 990.9 |
| 20260905080946 | 26 | 0 | 0.0 | 0.0 | 0.00 | 0.00 | 0.00 | 87 | 990.9 |
| 20260905080846 | 26 | 0 | 0.0 | 0.0 | 0.00 | 0.00 | 0.00 | 87 | 990.9 |
| 20260905080746 | 26 | 0 | 0.0 | 0.0 | 0.00 | 0.00 | 0.00 | 87 | 990.9 |
| 20260905080647 | 26 | 0 | 0.0 | 0.0 | 0.00 | 0.00 | 0.00 | 87 | 990.9 |
| 20260905080547 | 26 | 0 | 0.0 | 0.0 | 0.00 | 0.00 | 0.00 | 87 | 990.9 |
| 20260905080447 | 26 | 0 | 0.0 | 0.0 | 0.00 | 0.00 | 0.00 | 87 | 990.9 |
| 20260905080346 | 26 | 0 | 0.0 | 0.0 | 0.00 | 0.00 | 0.00 | 87 | 990.9 |
| 20260905080247 | 26 | 0 | 0.0 | 0.0 | 0.00 | 0.00 | 0.00 | 87 | 990.9 |
| 20260905080147 | 26 | 0 | 0.0 | 0.0 | 0.00 | 0.00 | 0.00 | 86 | 990.9 |
| 20260905080046 | 26 | 0 | 0.0 | 0.0 | 0.00 | 0.00 | 0.00 | 86 | 990.9 |
| 20260905075936 | 26 | 1 | 0.0 | 0.0 | 0.00 | 0.00 | 0.00 | 86 | 990.9 |
| 20260905075820 | 26 | 0 | 0.0 | 0.0 | 0.00 | 0.00 | 0.00 | 86 | 990.9 |
| 20260905075722 | 26 | 0 | 0.0 | 0.0 | 0.00 | 0.00 | 0.00 | 86 | 990.9 |
| 20260905075702 | 26 | 0 | 0.0 | 0.0 | 0.00 | 0.00 | 0.00 | 86 | 990.9 |
| 20260905075621 | 26 | 0 | 0.0 | 0.0 | 0.00 | 0.00 | 0.00 | 86 | 990.9 |
| 20260905075521 | 26 | 0 | 0.0 | 0.0 | 0.00 | 0.00 | 0.00 | 86 | 990.9 |
| 20260905075437 | 26 | 0 | 0.0 | 0.0 | 0.00 | 0.00 | 0.00 | 86 | 991.0 |
| 20260905075340 | 26 | 0 | 0.0 | 0.0 | 0.00 | 0.00 | 0.00 | 86 | 991.0 |
| 20260905075327 | 26 | 0 | 0.0 | 0.0 | 0.00 | 0.00 | 0.00 | 86 | 991.0 |
| 20260905075121 | 26 | 0 | 0.0 | 0.0 | 0.00 | 0.00 | 0.00 | 86 | 991.0 |
| 20260905075020 | 26 | 0 | 0.0 | 0.0 | 0.00 | 0.00 | 0.00 | 86 | 991.0 |
| 20260905074921 | 26 | 0 | 0.0 | 0.0 | 0.00 | 0.00 | 0.00 | 86 | 991.0 |
| 20260905074821 | 26 | 0 | 0.0 | 0.0 | 0.00 | 0.00 | 0.00 | 86 | 991.1 |
| 20260905074721 | 26 | 0 | 0.0 | 0.0 | 0.00 | 0.00 | 0.00 | 87 | 991.1 |
| 20260905074702 | 26 | 0 | 0.0 | 0.0 | 0.00 | 0.00 | 0.00 | 87 | 991.1 |
| 20260905074621 | 26 | 0 | 0.0 | 0.0 | 0.00 | 0.00 | 0.00 | 87 | 991.1 |
| 20260905074521 | 26 | 0 | 0.0 | 0.0 | 0.00 | 0.00 | 0.00 | 87 | 991.1 |
| 20260905074426 | 26 | 0 | 0.0 | 0.0 | 0.00 | 0.00 | 0.00 | 87 | 991.1 |
| 20260905074420 | 26 | 0 | 0.0 | 0.0 | 0.00 | 0.00 | 0.00 | 87 | 991.1 |
| 20260905074325 | 26 | 0 | 0.0 | 0.0 | 0.00 | 0.00 | 0.00 | 87 | 991.1 |
| 20260905074312 | 26 | 0 | 0.0 | 0.0 | 0.00 | 0.00 | 0.00 | 87 | 991.1 |
| 20260905074259 | 26 | 0 | 0.0 | 0.0 | 0.00 | 0.00 | 0.00 | 87 | 991.1 |
| 20260905074121 | 26 | 0 | 0.0 | 0.0 | 0.00 | 0.00 | 0.00 | 87 | 991.1 |
| 20260905074100 | 26 | 0 | 0.0 | 0.0 | 0.00 | 0.00 | 0.00 | 87 | 991.1 |
| 20260905073921 | 26 | 0 | 0.0 | 0.0 | 0.00 | 0.00 | 0.00 | 87 | 991.1 |
| 20260905073827 | 26 | 0 | 0.0 | 0.0 | 0.00 | 0.00 | 0.00 | 87 | 991.1 |
| 20260905073810 | 26 | 0 | 0.0 | 0.0 | 0.00 | 0.00 | 0.00 | 87 | 991.1 |
| 20260905073608 | 26 | 0 | 0.0 | 0.0 | 0.00 | 0.00 | 0.00 | 87 | 991.1 |
| 20260905073508 | 26 | 0 | 0.0 | 0.0 | 0.00 | 0.00 | 0.00 | 87 | 991.1 |
| 20260905073409 | 26 | 0 | 0.0 | 0.0 | 0.00 | 0.00 | 0.00 | 87 | 991.1 |
| 20260905073309 | 26 | 0 | 0.0 | 0.0 | 0.00 | 0.00 | 0.00 | 87 | 991.1 |
| 20260905073210 | 26 | 0 | 0.0 | 0.0 | 0.00 | 0.00 | 0.00 | 87 | 991.1 |
| 20260905073202 | 26 | 0 | 0.0 | 0.0 | 0.00 | 0.00 | 0.00 | 87 | 991.1 |
| 20260905073108 | 26 | 0 | 0.0 | 0.0 | 0.00 | 0.00 | 0.00 | 87 | 991.1 |
| 20260905073008 | 26 | 0 | 0.0 | 0.0 | 0.00 | 0.00 | 0.00 | 87 | 991.1 |
| 20260905072906 | 26 | 0 | 0.0 | 0.0 | 0.00 | 0.00 | 0.00 | 87 | 991.1 |
| 20260905072805 | 26 | 0 | 0.0 | 0.0 | 0.00 | 0.00 | 0.00 | 87 | 991.1 |
| 20260905072708 | 26 | 0 | 0.0 | 0.0 | 0.00 | 0.00 | 0.00 | 87 | 991.1 |
| 20260905072701 | 26 | 0 | 0.0 | 0.0 | 0.00 | 0.00 | 0.00 | 87 | 991.1 |
| 20260905072605 | 26 | 0 | 0.0 | 0.0 | 0.00 | 0.00 | 0.00 | 87 | 991.1 |
| 20260905072506 | 26 | 0 | 0.0 | 0.0 | 0.00 | 0.00 | 0.00 | 87 | 991.1 |
| 20260905072405 | 26 | 0 | 0.0 | 0.0 | 0.00 | 0.00 | 0.00 | 87 | 991.1 |
| 20260905072307 | 26 | 0 | 0.0 | 0.0 | 0.00 | 0.00 | 0.00 | 87 | 991.1 |
| 20260905072208 | 26 | 0 | 0.0 | 0.0 | 0.00 | 0.00 | 0.00 | 87 | 991.1 |
| 20260905072201 | 26 | 0 | 0.0 | 0.0 | 0.00 | 0.00 | 0.00 | 87 | 991.1 |
| 20260905072106 | 26 | 0 | 0.0 | 0.0 | 0.00 | 0.00 | 0.00 | 87 | 991.1 |
| 20260905072005 | 26 | 0 | 0.0 | 0.0 | 0.00 | 0.00 | 0.00 | 87 | 991.1 |
| 20260905071905 | 26 | 0 | 0.0 | 0.0 | 0.00 | 0.00 | 0.00 | 87 | 991.1 |
| 20260905071805 | 26 | 0 | 0.0 | 0.0 | 0.00 | 0.00 | 0.00 | 87 | 991.1 |
| 20260905071721 | 26 | 0 | 0.0 | 0.0 | 0.00 | 0.00 | 0.00 | 86 | 991.1 |
| 20260905071714 | 26 | 0 | 0.0 | 0.0 | 0.00 | 0.00 | 0.00 | 86 | 991.1 |
| 20260905071605 | 26 | 0 | 0.0 | 0.0 | 0.00 | 0.00 | 0.00 | 86 | 991.1 |
| 20260905071505 | 26 | 0 | 0.0 | 0.0 | 0.00 | 0.00 | 0.00 | 86 | 991.1 |
| 20260905071405 | 26 | 0 | 0.0 | 0.0 | 0.00 | 0.00 | 0.00 | 86 | 991.1 |
| 20260905071305 | 26 | 0 | 0.0 | 0.0 | 0.00 | 0.00 | 0.00 | 86 | 991.1 |
| 20260905071208 | 26 | 0 | 0.0 | 0.0 | 0.00 | 0.00 | 0.00 | 86 | 991.1 |
| 20260905071202 | 26 | 0 | 0.0 | 0.0 | 0.00 | 0.00 | 0.00 | 86 | 991.1 |
| 20260905071105 | 26 | 0 | 0.0 | 0.0 | 0.00 | 0.00 | 0.00 | 86 | 991.1 |
| 20260905071005 | 26 | 0 | 0.0 | 0.0 | 0.00 | 0.00 | 0.00 | 86 | 991.1 |
| 20260905070905 | 26 | 0 | 0.0 | 0.0 | 0.00 | 0.00 | 0.00 | 86 | 991.1 |
| 20260905070807 | 26 | 0 | 0.0 | 0.0 | 0.00 | 0.00 | 0.00 | 86 | 991.1 |
| 20260905070708 | 26 | 0 | 0.0 | 0.0 | 0.00 | 0.00 | 0.00 | 86 | 991.1 |
| 20260905070701 | 26 | 0 | 0.0 | 0.0 | 0.00 | 0.00 | 0.00 | 86 | 991.1 |
| 20260905070606 | 26 | 0 | 0.0 | 0.0 | 0.00 | 0.00 | 0.00 | 86 | 991.1 |
| 20260905070506 | 26 | 0 | 0.0 | 0.0 | 0.00 | 0.00 | 0.00 | 86 | 991.1 |
| 20260905070406 | 26 | 0 | 0.0 | 0.0 | 0.00 | 0.00 | 0.00 | 86 | 991.1 |
| 20260905070305 | 26 | 0 | 0.0 | 0.0 | 0.00 | 0.00 | 0.00 | 86 | 991.1 |
| 20260905070208 | 26 | 0 | 0.0 | 1.6 | 0.00 | 0.00 | 0.00 | 86 | 991.1 |
| 20260905070201 | 26 | 0 | 0.0 | 1.6 | 0.00 | 0.00 | 0.00 | 86 | 991.1 |
| 20260905070113 | 26 | 0 | 0.0 | 1.6 | 0.00 | 0.00 | 0.00 | 86 | 991.1 |
| 20260905070005 | 26 | 0 | 0.0 | 1.6 | 0.00 | 0.00 | 0.00 | 86 | 991.1 |
| 20260905065906 | 26 | 0 | 0.0 | 1.6 | 0.00 | 0.00 | 0.00 | 86 | 991.1 |
| 20260905065806 | 26 | 0 | 0.0 | 1.6 | 0.00 | 0.00 | 0.00 | 86 | 991.1 |
| 20260905065708 | 26 | 0 | 0.0 | 1.6 | 0.00 | 0.00 | 0.00 | 86 | 991.1 |
| 20260905065701 | 27 | 0 | 0.0 | 1.6 | 0.00 | 0.00 | 0.00 | 86 | 991.1 |
| 20260905065605 | 27 | 0 | 0.0 | 1.6 | 0.00 | 0.00 | 0.00 | 86 | 991.1 |
| 20260905065506 | 27 | 0 | 0.0 | 1.6 | 0.00 | 0.00 | 0.00 | 86 | 991.1 |
| 20260905065406 | 27 | 0 | 0.0 | 1.6 | 0.00 | 0.00 | 0.00 | 86 | 991.1 |
| 20260905065308 | 27 | 0 | 0.0 | 1.6 | 0.00 | 0.00 | 0.00 | 86 | 991.1 |
| 20260905065209 | 27 | 0 | 0.0 | 1.6 | 0.00 | 0.00 | 0.00 | 86 | 991.0 |
| 20260905065202 | 27 | 0 | 0.0 | 1.6 | 0.00 | 0.00 | 0.00 | 86 | 991.0 |
| 20260905065105 | 27 | 0 | 0.0 | 1.6 | 0.00 | 0.00 | 0.00 | 86 | 991.0 |
| 20260905065006 | 27 | 0 | 0.0 | 1.6 | 0.00 | 0.00 | 0.00 | 86 | 991.0 |
| 20260905064905 | 27 | 0 | 0.0 | 1.6 | 0.00 | 0.00 | 0.00 | 86 | 991.0 |
| 20260905064806 | 27 | 0 | 0.0 | 1.6 | 0.00 | 0.00 | 0.00 | 85 | 991.0 |
| 20260905064709 | 27 | 0 | 0.0 | 1.6 | 0.00 | 0.00 | 0.00 | 86 | 991.0 |
| 20260905064702 | 27 | 0 | 0.0 | 1.6 | 0.00 | 0.00 | 0.00 | 85 | 991.1 |
| 20260905064606 | 27 | 0 | 0.0 | 0.0 | 0.00 | 0.00 | 0.00 | 85 | 991.1 |
| 20260905064505 | 27 | 0 | 0.0 | 0.0 | 0.00 | 0.00 | 0.00 | 86 | 991.1 |
| 20260905064425 | 27 | 0 | 0.0 | 0.0 | 0.00 | 0.00 | 0.00 | 85 | 991.1 |
| 20260905064406 | 27 | 0 | 0.0 | 0.0 | 0.00 | 0.00 | 0.00 | 85 | 991.1 |
| 20260905064325 | 27 | 0 | 0.0 | 0.0 | 0.00 | 0.00 | 0.00 | 85 | 991.1 |
| 20260905064309 | 27 | 0 | 0.0 | 0.0 | 0.00 | 0.00 | 0.00 | 85 | 991.1 |
| 20260905064105 | 27 | 0 | 0.0 | 0.0 | 0.00 | 0.00 | 0.00 | 85 | 991.1 |
| 20260905064006 | 27 | 0 | 0.0 | 0.0 | 0.00 | 0.00 | 0.00 | 85 | 991.1 |
| 20260905063906 | 27 | 0 | 0.0 | 0.0 | 0.00 | 0.00 | 0.00 | 85 | 991.1 |
| 20260905063807 | 27 | 0 | 0.0 | 0.0 | 0.00 | 0.00 | 0.00 | 85 | 991.1 |
| 20260905063709 | 27 | 0 | 0.0 | 0.0 | 0.00 | 0.00 | 0.00 | 85 | 991.1 |
| 20260905063702 | 27 | 0 | 0.0 | 0.0 | 0.00 | 0.00 | 0.00 | 85 | 991.1 |
| 20260905063606 | 27 | 0 | 0.0 | 0.0 | 0.00 | 0.00 | 0.00 | 85 | 991.1 |
| 20260905063506 | 27 | 0 | 0.0 | 0.0 | 0.00 | 0.00 | 0.00 | 85 | 991.1 |
| 20260905063405 | 27 | 0 | 0.0 | 0.0 | 0.00 | 0.00 | 0.00 | 85 | 991.2 |
| 20260905063305 | 27 | 0 | 0.0 | 0.0 | 0.00 | 0.00 | 0.00 | 85 | 991.2 |
| 20260905063209 | 27 | 0 | 0.0 | 0.0 | 0.00 | 0.00 | 0.00 | 85 | 991.3 |
| 20260905063202 | 27 | 0 | 0.0 | 0.0 | 0.00 | 0.00 | 0.00 | 85 | 991.3 |
| 20260905063105 | 27 | 0 | 0.0 | 0.0 | 0.00 | 0.00 | 0.00 | 85 | 991.3 |
| 20260905063005 | 27 | 0 | 0.0 | 0.0 | 0.00 | 0.00 | 0.00 | 85 | 991.3 |
| 20260905062905 | 27 | 0 | 0.0 | 0.0 | 0.00 | 0.00 | 0.00 | 85 | 991.3 |
| 20260905062804 | 27 | 0 | 0.0 | 0.0 | 0.00 | 0.00 | 0.00 | 85 | 991.3 |
| 20260905062707 | 27 | 0 | 0.0 | 0.0 | 0.00 | 0.00 | 0.00 | 85 | 991.3 |
| 20260905062658 | 27 | 0 | 0.0 | 0.0 | 0.00 | 0.00 | 0.00 | 85 | 991.3 |
| 20260905062615 | 27 | 0 | 0.0 | 0.0 | 0.00 | 0.00 | 0.00 | 85 | 991.3 |
| 20260905062503 | 27 | 0 | 0.0 | 0.0 | 0.00 | 0.00 | 0.00 | 85 | 991.3 |
| 20260905062423 | 27 | 0 | 0.0 | 0.0 | 0.00 | 0.00 | 0.00 | 85 | 991.3 |
| 20260905062404 | 27 | 0 | 0.0 | 0.0 | 0.00 | 0.00 | 0.00 | 85 | 991.3 |
| 20260905062320 | 27 | 0 | 0.0 | 0.0 | 0.00 | 0.00 | 0.00 | 85 | 991.3 |
| 20260905062306 | 27 | 0 | 0.0 | 0.0 | 0.00 | 0.00 | 0.00 | 85 | 991.3 |
| 20260905062103 | 27 | 0 | 0.0 | 0.0 | 0.00 | 0.00 | 0.00 | 85 | 991.3 |
| 20260905062003 | 27 | 0 | 0.0 | 0.0 | 0.00 | 0.00 | 0.00 | 85 | 991.3 |
| 20260905061903 | 27 | 0 | 0.0 | 0.0 | 0.00 | 0.00 | 0.00 | 85 | 991.3 |
| 20260905061804 | 27 | 0 | 0.0 | 0.0 | 0.00 | 0.00 | 0.00 | 85 | 991.3 |
| 20260905061706 | 27 | 0 | 0.0 | 0.0 | 0.00 | 0.00 | 0.00 | 85 | 991.3 |
| 20260905061657 | 27 | 0 | 0.0 | 0.0 | 0.00 | 0.00 | 0.00 | 85 | 991.3 |
| 20260905061604 | 27 | 0 | 0.0 | 0.0 | 0.00 | 0.00 | 0.00 | 85 | 991.4 |
| 20260905061504 | 27 | 0 | 0.0 | 0.0 | 0.00 | 0.00 | 0.00 | 85 | 991.4 |
| 20260905061403 | 27 | 0 | 0.0 | 0.0 | 0.00 | 0.00 | 0.00 | 85 | 991.4 |
| 20260905061303 | 27 | 0 | 0.0 | 0.0 | 0.00 | 0.00 | 0.00 | 85 | 991.4 |
| 20260905061206 | 27 | 0 | 0.0 | 0.0 | 0.00 | 0.00 | 0.00 | 85 | 991.4 |
| 20260905061157 | 27 | 0 | 0.0 | 0.0 | 0.00 | 0.00 | 0.00 | 85 | 991.4 |
| 20260905061104 | 27 | 0 | 0.0 | 0.0 | 0.00 | 0.00 | 0.00 | 85 | 991.4 |
| 20260905061003 | 27 | 0 | 0.0 | 0.0 | 0.00 | 0.00 | 0.00 | 85 | 991.4 |
| 20260905060804 | 27 | 0 | 0.0 | 0.0 | 0.00 | 0.00 | 0.00 | 85 | 991.5 |
| 20260905060706 | 27 | 0 | 0.0 | 0.0 | 0.00 | 0.00 | 0.00 | 85 | 991.5 |
| 20260905060657 | 27 | 0 | 0.0 | 0.0 | 0.00 | 0.00 | 0.00 | 85 | 991.5 |
| 20260905060603 | 27 | 0 | 0.0 | 0.0 | 0.00 | 0.00 | 0.00 | 85 | 991.5 |
| 20260905060504 | 27 | 0 | 0.0 | 0.0 | 0.00 | 0.00 | 0.00 | 86 | 991.5 |
| 20260905060415 | 27 | 0 | 0.0 | 0.0 | 0.00 | 0.00 | 0.00 | 86 | 991.5 |
| 20260905060304 | 27 | 0 | 0.0 | 0.0 | 0.00 | 0.00 | 0.00 | 86 | 991.5 |
| 20260905060206 | 27 | 0 | 0.0 | 0.0 | 0.00 | 0.00 | 0.00 | 86 | 991.5 |
| 20260905060158 | 27 | 0 | 0.0 | 0.0 | 0.00 | 0.00 | 0.00 | 86 | 991.5 |
| 20260905060116 | 27 | 0 | 0.0 | 0.0 | 0.00 | 0.00 | 0.00 | 85 | 991.5 |
| 20260905060004 | 27 | 0 | 0.0 | 0.0 | 0.00 | 0.00 | 0.00 | 85 | 991.5 |
| 20260905055904 | 27 | 0 | 0.0 | 0.0 | 0.00 | 0.00 | 0.00 | 85 | 991.5 |
| 20260905055804 | 27 | 0 | 0.0 | 0.0 | 0.00 | 0.00 | 0.00 | 85 | 991.5 |
| 20260905055706 | 27 | 0 | 0.0 | 0.0 | 0.00 | 0.00 | 0.00 | 85 | 991.5 |
| 20260905055658 | 27 | 0 | 0.0 | 0.0 | 0.00 | 0.00 | 0.00 | 85 | 991.5 |
| 20260905055604 | 27 | 0 | 0.0 | 0.0 | 0.00 | 0.00 | 0.00 | 85 | 991.4 |
| 20260905055504 | 27 | 0 | 0.0 | 0.0 | 0.00 | 0.00 | 0.00 | 85 | 991.4 |
| 20260905055404 | 27 | 0 | 0.0 | 0.0 | 0.00 | 0.00 | 0.00 | 85 | 991.4 |
| 20260905055306 | 27 | 0 | 0.0 | 0.0 | 0.00 | 0.00 | 0.00 | 85 | 991.4 |
| 20260905055207 | 27 | 0 | 0.0 | 0.0 | 0.00 | 0.00 | 0.00 | 85 | 991.4 |
| 20260905055158 | 27 | 0 | 0.0 | 0.0 | 0.00 | 0.00 | 0.00 | 85 | 991.4 |
| 20260905055103 | 27 | 0 | 0.0 | 0.0 | 0.00 | 0.00 | 0.00 | 85 | 991.4 |
| 20260905055004 | 27 | 0 | 0.0 | 0.0 | 0.00 | 0.00 | 0.00 | 85 | 991.4 |
| 20260905054904 | 27 | 0 | 0.0 | 0.0 | 0.00 | 0.00 | 0.00 | 85 | 991.4 |
| 20260905054804 | 27 | 0 | 0.0 | 0.0 | 0.00 | 0.00 | 0.00 | 85 | 991.5 |
| 20260905054707 | 27 | 0 | 0.0 | 0.0 | 0.00 | 0.00 | 0.00 | 85 | 991.5 |
| 20260905054658 | 27 | 0 | 0.0 | 0.0 | 0.00 | 0.00 | 0.00 | 85 | 991.5 |
| 20260905054604 | 27 | 0 | 0.0 | 0.0 | 0.00 | 0.00 | 0.00 | 85 | 991.4 |
| 20260905054503 | 27 | 0 | 0.0 | 0.0 | 0.00 | 0.00 | 0.00 | 85 | 991.4 |
| 20260905054404 | 27 | 0 | 0.0 | 0.0 | 0.00 | 0.00 | 0.00 | 85 | 991.4 |
| 20260905054303 | 27 | 0 | 0.0 | 0.0 | 0.00 | 0.00 | 0.00 | 85 | 991.4 |
| 20260905054207 | 27 | 0 | 0.0 | 0.0 | 0.00 | 0.00 | 0.00 | 85 | 991.4 |
| 20260905054159 | 27 | 0 | 0.0 | 0.0 | 0.00 | 0.00 | 0.00 | 85 | 991.4 |
| 20260905054104 | 27 | 0 | 0.0 | 0.0 | 0.00 | 0.00 | 0.00 | 85 | 991.4 |
| 20260905054004 | 27 | 0 | 0.0 | 0.0 | 0.00 | 0.00 | 0.00 | 85 | 991.4 |
| 20260905053922 | 27 | 0 | 0.0 | 0.0 | 0.00 | 0.00 | 0.00 | 85 | 991.4 |
| 20260905053904 | 27 | 0 | 0.0 | 0.0 | 0.00 | 0.00 | 0.00 | 85 | 991.4 |
| 20260905053821 | 27 | 0 | 0.0 | 0.0 | 0.00 | 0.00 | 0.00 | 85 | 991.4 |
| 20260905053807 | 27 | 0 | 0.0 | 0.0 | 0.00 | 0.00 | 0.00 | 85 | 991.4 |
| 20260905053604 | 27 | 0 | 0.0 | 1.6 | 0.00 | 0.00 | 0.00 | 85 | 991.4 |
| 20260905053508 | 27 | 0 | 0.0 | 1.6 | 0.00 | 0.00 | 0.00 | 85 | 991.4 |
| 20260905053403 | 27 | 0 | 0.0 | 1.6 | 0.00 | 0.00 | 0.00 | 85 | 991.4 |
| 20260905053304 | 27 | 0 | 0.0 | 1.6 | 0.00 | 0.00 | 0.00 | 85 | 991.4 |
| 20260905053207 | 27 | 0 | 0.0 | 1.6 | 0.00 | 0.00 | 0.00 | 85 | 991.4 |
| 20260905053158 | 27 | 0 | 0.0 | 1.6 | 0.00 | 0.00 | 0.00 | 85 | 991.4 |
| 20260905053104 | 27 | 0 | 0.0 | 1.6 | 0.00 | 0.00 | 0.00 | 84 | 991.4 |
| 20260905053005 | 27 | 0 | 0.0 | 1.6 | 0.00 | 0.00 | 0.00 | 84 | 991.4 |
| 20260905052904 | 27 | 0 | 0.0 | 1.6 | 0.00 | 0.00 | 0.00 | 84 | 991.4 |
| 20260905052805 | 27 | 0 | 0.0 | 1.6 | 0.00 | 0.00 | 0.00 | 84 | 991.4 |
| 20260905052707 | 27 | 0 | 0.0 | 1.6 | 0.00 | 0.00 | 0.00 | 84 | 991.4 |
| 20260905052642 | 27 | 0 | 0.0 | 0.0 | 0.00 | 0.00 | 0.00 | 84 | 991.3 |
| 20260905052602 | 27 | 0 | 0.0 | 1.6 | 0.00 | 0.00 | 0.00 | 84 | 991.3 |
| 20260905052538 | 27 | 0 | 0.0 | 1.6 | 0.00 | 0.00 | 0.00 | 84 | 991.3 |
| 20260905052405 | 27 | 0 | 0.0 | 0.0 | 0.00 | 0.00 | 0.00 | 84 | 991.3 |
| 20260905052318 | 27 | 0 | 0.0 | 0.0 | 0.00 | 0.00 | 0.00 | 84 | 991.3 |
| 20260905052306 | 27 | 0 | 0.0 | 0.0 | 0.00 | 0.00 | 0.00 | 84 | 991.3 |
| 20260905052103 | 27 | 0 | 0.0 | 0.0 | 0.00 | 0.00 | 0.00 | 84 | 991.3 |
| 20260905052003 | 27 | 0 | 0.0 | 0.0 | 0.00 | 0.00 | 0.00 | 84 | 991.3 |
| 20260905051903 | 27 | 0 | 0.0 | 0.0 | 0.00 | 0.00 | 0.00 | 84 | 991.3 |
| 20260905051803 | 27 | 0 | 0.0 | 0.0 | 0.00 | 0.00 | 0.00 | 84 | 991.3 |
| 20260905051656 | 27 | 0 | 0.0 | 0.0 | 0.00 | 0.00 | 0.00 | 84 | 991.3 |
| 20260905051603 | 27 | 0 | 0.0 | 0.0 | 0.00 | 0.00 | 0.00 | 84 | 991.3 |
| 20260905051503 | 27 | 0 | 0.0 | 0.0 | 0.00 | 0.00 | 0.00 | 84 | 991.3 |
| 20260905051403 | 27 | 0 | 0.0 | 0.0 | 0.00 | 0.00 | 0.00 | 84 | 991.3 |
| 20260905051303 | 27 | 0 | 0.0 | 0.0 | 0.00 | 0.00 | 0.00 | 84 | 991.3 |
| 20260905051156 | 27 | 0 | 0.0 | 0.0 | 0.00 | 0.00 | 0.00 | 84 | 991.3 |
| 20260905051103 | 27 | 0 | 0.0 | 0.0 | 0.00 | 0.00 | 0.00 | 84 | 991.2 |
| 20260905051004 | 27 | 0 | 0.0 | 0.0 | 0.00 | 0.00 | 0.00 | 84 | 991.2 |
| 20260905050902 | 27 | 0 | 0.0 | 1.6 | 0.00 | 0.00 | 0.00 | 84 | 991.2 |
| 20260905050802 | 27 | 0 | 0.0 | 1.6 | 0.00 | 0.00 | 0.00 | 84 | 991.2 |
| 20260905050656 | 27 | 0 | 0.0 | 1.6 | 0.00 | 0.00 | 0.00 | 84 | 991.2 |
| 20260905050603 | 27 | 0 | 0.0 | 1.6 | 0.00 | 0.00 | 0.00 | 84 | 991.2 |
| 20260905050503 | 27 | 0 | 0.0 | 1.6 | 0.00 | 0.00 | 0.00 | 84 | 991.2 |
| 20260905050403 | 27 | 0 | 0.0 | 1.6 | 0.00 | 0.00 | 0.00 | 84 | 991.2 |
| 20260905050303 | 27 | 0 | 0.0 | 1.6 | 0.00 | 0.00 | 0.00 | 84 | 991.2 |
| 20260905050156 | 27 | 0 | 0.0 | 1.6 | 0.00 | 0.00 | 0.00 | 84 | 991.2 |
| 20260905050111 | 27 | 0 | 0.0 | 1.6 | 0.00 | 0.00 | 0.00 | 84 | 991.2 |
| 20260905050004 | 27 | 0 | 0.0 | 1.6 | 0.00 | 0.00 | 0.00 | 84 | 991.2 |
| 20260905045903 | 27 | 345 | 0.0 | 1.6 | 0.00 | 0.00 | 0.00 | 84 | 991.2 |
| 20260905045802 | 27 | 0 | 0.0 | 1.6 | 0.00 | 0.00 | 0.00 | 83 | 991.2 |
| 20260905045656 | 27 | 345 | 0.0 | 1.6 | 0.00 | 0.00 | 0.00 | 83 | 991.2 |
| 20260905045603 | 27 | 0 | 0.0 | 0.0 | 0.00 | 0.00 | 0.00 | 83 | 991.2 |
| 20260905045503 | 27 | 0 | 0.0 | 0.0 | 0.00 | 0.00 | 0.00 | 83 | 991.2 |
| 20260905045402 | 27 | 0 | 0.0 | 0.0 | 0.00 | 0.00 | 0.00 | 83 | 991.2 |
| 20260905045305 | 27 | 0 | 0.0 | 0.0 | 0.00 | 0.00 | 0.00 | 83 | 991.2 |
| 20260905045157 | 27 | 0 | 0.0 | 0.0 | 0.00 | 0.00 | 0.00 | 83 | 991.2 |
| 20260905045102 | 27 | 0 | 0.0 | 0.0 | 0.00 | 0.00 | 0.00 | 83 | 991.2 |
| 20260905045004 | 27 | 0 | 0.0 | 0.0 | 0.00 | 0.00 | 0.00 | 83 | 991.3 |
| 20260905044903 | 27 | 0 | 0.0 | 0.0 | 0.00 | 0.00 | 0.00 | 83 | 991.3 |
| 20260905044803 | 27 | 0 | 0.0 | 0.0 | 0.00 | 0.00 | 0.00 | 83 | 991.3 |
| 20260905044656 | 27 | 0 | 0.0 | 0.0 | 0.00 | 0.00 | 0.00 | 83 | 991.3 |
| 20260905044603 | 27 | 0 | 0.0 | 0.0 | 0.00 | 0.00 | 0.00 | 83 | 991.3 |
| 20260905044503 | 27 | 0 | 0.0 | 0.0 | 0.00 | 0.00 | 0.00 | 83 | 991.4 |
| 20260905044403 | 28 | 0 | 0.0 | 0.0 | 0.00 | 0.00 | 0.00 | 83 | 991.4 |
| 20260905044303 | 28 | 0 | 0.0 | 0.0 | 0.00 | 0.00 | 0.00 | 83 | 991.4 |
| 20260905044156 | 28 | 0 | 0.0 | 1.6 | 0.00 | 0.00 | 0.00 | 83 | 991.4 |
| 20260905044102 | 28 | 0 | 0.0 | 1.6 | 0.00 | 0.00 | 0.00 | 83 | 991.4 |
| 20260905044003 | 28 | 0 | 0.0 | 1.6 | 0.00 | 0.00 | 0.00 | 83 | 991.4 |
| 20260905043903 | 28 | 0 | 0.0 | 1.6 | 0.00 | 0.00 | 0.00 | 83 | 991.4 |
| 20260905043803 | 28 | 0 | 0.0 | 1.6 | 0.00 | 0.00 | 0.00 | 83 | 991.4 |
| 20260905043656 | 28 | 0 | 0.0 | 1.6 | 0.00 | 0.00 | 0.00 | 83 | 991.4 |
| 20260905043603 | 28 | 0 | 0.0 | 1.6 | 0.00 | 0.00 | 0.00 | 83 | 991.3 |
| 20260905043502 | 28 | 0 | 0.0 | 1.6 | 0.00 | 0.00 | 0.00 | 83 | 991.3 |
| 20260905043403 | 28 | 0 | 0.0 | 1.6 | 0.00 | 0.00 | 0.00 | 83 | 991.3 |
| 20260905043300 | 28 | 357 | 0.0 | 1.6 | 0.00 | 0.00 | 0.00 | 83 | 991.3 |
| 20260905043157 | 28 | 70 | 0.0 | 1.6 | 0.00 | 0.00 | 0.00 | 83 | 991.3 |
| 20260905043056 | 28 | 0 | 0.0 | 1.6 | 0.00 | 0.00 | 0.00 | 83 | 991.3 |
| 20260905042957 | 28 | 0 | 0.0 | 1.6 | 0.00 | 0.00 | 0.00 | 83 | 991.3 |
| 20260905042857 | 28 | 0 | 0.0 | 1.6 | 0.00 | 0.00 | 0.00 | 83 | 991.3 |
| 20260905042756 | 28 | 0 | 0.0 | 1.6 | 0.00 | 0.00 | 0.00 | 83 | 991.3 |
| 20260905042656 | 28 | 0 | 0.0 | 1.6 | 0.00 | 0.00 | 0.00 | 82 | 991.3 |
| 20260905042556 | 28 | 357 | 0.0 | 1.6 | 0.00 | 0.00 | 0.00 | 82 | 991.3 |
| 20260905042455 | 28 | 0 | 0.0 | 0.0 | 0.00 | 0.00 | 0.00 | 82 | 991.3 |
| 20260905042355 | 28 | 0 | 0.0 | 0.0 | 0.00 | 0.00 | 0.00 | 82 | 991.3 |
| 20260905042255 | 28 | 0 | 0.0 | 0.0 | 0.00 | 0.00 | 0.00 | 82 | 991.3 |
| 20260905042155 | 28 | 0 | 0.0 | 0.0 | 0.00 | 0.00 | 0.00 | 82 | 991.3 |
| 20260905042056 | 28 | 0 | 0.0 | 0.0 | 0.00 | 0.00 | 0.00 | 82 | 991.2 |
| 20260905041955 | 28 | 0 | 0.0 | 0.0 | 0.00 | 0.00 | 0.00 | 82 | 991.2 |
| 20260905041856 | 28 | 0 | 0.0 | 0.0 | 0.00 | 0.00 | 0.00 | 82 | 991.2 |
| 20260905041755 | 28 | 0 | 0.0 | 0.0 | 0.00 | 0.00 | 0.00 | 82 | 991.2 |
| 20260905041655 | 28 | 0 | 0.0 | 0.0 | 0.00 | 0.00 | 0.00 | 82 | 991.2 |
| 20260905041555 | 28 | 0 | 0.0 | 0.0 | 0.00 | 0.00 | 0.00 | 82 | 991.2 |
| 20260905041455 | 28 | 0 | 0.0 | 0.0 | 0.00 | 0.00 | 0.00 | 82 | 991.2 |
| 20260905041356 | 28 | 0 | 0.0 | 0.0 | 0.00 | 0.00 | 0.00 | 82 | 991.2 |
| 20260905041255 | 28 | 0 | 0.0 | 0.0 | 0.00 | 0.00 | 0.00 | 82 | 991.2 |
| 20260905041155 | 28 | 0 | 0.0 | 0.0 | 0.00 | 0.00 | 0.00 | 82 | 991.2 |
| 20260905041055 | 28 | 0 | 0.0 | 0.0 | 0.00 | 0.00 | 0.00 | 81 | 991.2 |
| 20260905040955 | 28 | 0 | 0.0 | 0.0 | 0.00 | 0.00 | 0.00 | 81 | 991.2 |
| 20260905040923 | 28 | 0 | 0.0 | 0.0 | 0.00 | 0.00 | 0.00 | 81 | 991.1 |
| 20260905040855 | 28 | 0 | 0.0 | 0.0 | 0.00 | 0.00 | 0.00 | 81 | 991.2 |
| 20260905040815 | 28 | 0 | 0.0 | 0.0 | 0.00 | 0.00 | 0.00 | 81 | 991.1 |
| 20260905040759 | 28 | 0 | 0.0 | 0.0 | 0.00 | 0.00 | 0.00 | 81 | 991.1 |
| 20260905040555 | 28 | 0 | 0.0 | 0.0 | 0.00 | 0.00 | 0.00 | 81 | 991.1 |
| 20260905040455 | 28 | 0 | 0.0 | 0.0 | 0.00 | 0.00 | 0.00 | 81 | 991.1 |
| 20260905040355 | 28 | 0 | 0.0 | 0.0 | 0.00 | 0.00 | 0.00 | 81 | 991.1 |
| 20260905040255 | 28 | 0 | 0.0 | 0.0 | 0.00 | 0.00 | 0.00 | 81 | 991.1 |